[[{"header":{"parameterUnit":"m.s-1","parameterCategory":1,"la1":30.6,"la2":28.766,"lo1":-90.7593,"lo2":-88.6598,"dy":0.0162,"dx":0.0183,"nx":116,"ny":114,"refTime":"2024-04-30T12:00:00:Z","depth":0,"parameterNumber":2,"parameterNumberName":"U-component_of_WINDS"},"data":[0.0,0.0,0.0,0.0,0.0,0.0,0.0,0.0,0.0,0.0,0.0,0.0,0.0,0.0,0.0,0.0,0.0,0.0,0.0,0.0,0.0,0.0,0.0,0.0,0.0,0.0,0.0,0.0,0.0,0.0,0.0,0.0,0.0,0.0,0.0,0.0,0.0,0.0,0.0,0.0,0.0,0.0,0.0,0.0,0.0,0.0,0.0,0.0,0.0,0.0,0.0,0.0,0.0,0.0,0.0,0.0,0.0,0.0,0.0,0.0,0.0,0.0,0.0,0.0,0.0,0.0,0.0,0.0,0.0,0.0,0.0,0.0,0.0,0.0,0.0,0.0,0.0,0.0,0.0,0.0,0.0,0.0,0.0,0.0,0.0,0.0,0.0,0.0,0.0,0.0,0.0,0.0,0.0,0.0,0.0,0.0,0.0,0.0,0.0,0.0,0.0,0.0,0.0,0.0,0.0,0.0,0.0,0.0,0.0,0.0,0.0,0.0,0.0,0.0,0.0,0.0,0.0,0.0,0.0,0.0,0.0,0.0,0.0,0.0,0.0,0.0,0.0,0.0,0.0,0.0,0.0,0.0,0.0,0.0,0.0,0.0,0.0,0.0,0.0,0.0,0.0,0.0,0.0,0.0,0.0,0.0,0.0,0.0,0.0,0.0,0.0,0.0,0.0,0.0,0.0,0.0,0.0,0.0,0.0,0.0,0.0,0.0,0.0,0.0,0.0,0.0,0.0,0.0,0.0,0.0,0.0,0.0,0.0,0.0,0.0,0.0,0.0,0.0,0.0,0.0,0.0,0.0,0.0,0.0,0.0,0.0,0.0,0.0,0.0,0.0,0.0,0.0,0.0,0.0,0.0,0.0,0.0,0.0,0.0,0.0,0.0,0.0,0.0,0.0,0.0,0.0,0.0,0.0,0.0,0.0,0.0,0.0,0.0,0.0,0.0,0.0,0.0,0.0,0.0,0.0,0.0,0.0,0.0,0.0,0.0,0.0,0.0,0.0,0.0,0.0,0.0,0.0,0.0,0.0,0.0,0.0,0.0,0.0,0.0,0.0,0.0,0.0,0.0,0.0,0.0,0.0,0.0,0.0,0.0,0.0,0.0,0.0,0.0,0.0,0.0,0.0,0.0,0.0,0.0,0.0,0.0,0.0,0.0,0.0,0.0,0.0,0.0,0.0,0.0,0.0,0.0,0.0,0.0,0.0,0.0,0.0,0.0,0.0,0.0,0.0,0.0,0.0,0.0,0.0,0.0,0.0,0.0,0.0,0.0,0.0,0.0,0.0,0.0,0.0,0.0,0.0,0.0,0.0,0.0,0.0,0.0,0.0,0.0,0.0,0.0,0.0,0.0,0.0,0.0,0.0,0.0,0.0,0.0,0.0,0.0,0.0,0.0,0.0,0.0,0.0,0.0,0.0,0.0,0.0,0.0,0.0,0.0,0.0,0.0,0.0,0.0,0.0,0.0,0.0,0.0,0.0,0.0,0.0,0.0,0.0,0.0,0.0,0.0,0.0,0.0,0.0,0.0,0.0,0.0,0.0,0.0,0.0,0.0,0.0,0.0,0.0,0.0,0.0,0.0,0.0,0.0,0.0,0.0,0.0,0.0,0.0,0.0,0.0,0.0,0.0,0.0,0.0,0.0,0.0,0.0,0.0,0.0,0.0,0.0,0.0,0.0,0.0,0.0,0.0,0.0,0.0,0.0,0.0,0.0,0.0,0.0,0.0,0.0,0.0,0.0,0.0,0.0,0.0,0.0,0.0,0.0,0.0,0.0,0.0,0.0,0.0,0.0,0.0,0.0,0.0,0.0,0.0,0.0,0.0,0.0,0.0,0.0,0.0,0.0,0.0,0.0,0.0,0.0,0.0,0.0,0.0,0.0,0.0,0.0,0.0,0.0,0.0,0.0,0.0,0.0,0.0,0.0,0.0,0.0,0.0,0.0,0.0,0.0,0.0,0.0,0.0,0.0,0.0,0.0,0.0,0.0,0.0,0.0,0.0,0.0,0.0,0.0,0.0,0.0,0.0,0.0,0.0,0.0,0.0,0.0,0.0,0.0,0.0,0.0,0.0,0.0,0.0,0.0,0.0,0.0,0.0,0.0,0.0,0.0,0.0,0.0,0.0,0.0,0.0,0.0,0.0,0.0,0.0,0.0,0.0,0.0,0.0,0.0,0.0,0.0,0.0,0.0,0.0,0.0,0.0,0.0,0.0,0.0,0.0,0.0,0.0,0.0,0.0,0.0,0.0,0.0,0.0,0.0,0.0,0.0,0.0,0.0,0.0,0.0,0.0,0.0,0.0,0.0,0.0,0.0,0.0,0.0,0.0,0.0,0.0,0.0,0.0,0.0,0.0,0.0,0.0,0.0,0.0,0.0,0.0,0.0,0.0,0.0,0.0,0.0,0.0,0.0,0.0,0.0,0.0,0.0,0.0,0.0,0.0,0.0,0.0,0.0,0.0,0.0,0.0,0.0,0.0,0.0,0.0,0.0,0.0,0.0,0.0,0.0,0.0,0.0,0.0,0.0,0.0,0.0,0.0,0.0,0.0,0.0,0.0,0.0,0.0,0.0,0.0,0.0,0.0,0.0,0.0,0.0,0.0,0.0,0.0,0.0,0.0,0.0,0.0,0.0,0.0,0.0,0.0,0.0,0.0,0.0,0.0,0.0,0.0,0.0,0.0,0.0,0.0,0.0,0.0,0.0,0.0,0.0,0.0,0.0,0.0,0.0,0.0,0.0,0.0,0.0,0.0,0.0,0.0,0.0,0.0,0.0,0.0,0.0,0.0,0.0,0.0,0.0,0.0,0.0,0.0,0.0,0.0,0.0,0.0,0.0,0.0,0.0,0.0,0.0,0.0,0.0,0.0,0.0,0.0,0.0,0.0,0.0,0.0,0.0,0.0,0.0,0.0,0.0,0.0,0.0,0.0,0.0,0.0,0.0,0.0,0.0,0.0,0.0,0.0,0.0,0.0,0.0,0.0,0.0,0.0,0.0,0.0,0.0,0.0,0.0,0.0,0.0,0.0,0.0,0.0,0.0,0.0,0.0,0.0,0.0,0.0,0.0,0.0,0.0,0.0,0.0,0.0,0.0,0.0,0.0,0.0,0.0,0.0,0.0,0.0,0.0,0.0,0.0,0.0,0.0,0.0,0.0,0.0,0.0,0.0,0.0,0.0,0.0,0.0,0.0,0.0,0.0,0.0,0.0,0.0,0.0,0.0,0.0,0.0,0.0,0.0,0.0,0.0,0.0,0.0,0.0,0.0,0.0,0.0,0.0,0.0,0.0,0.0,0.0,0.0,0.0,0.0,0.0,0.0,0.0,0.0,0.0,0.0,0.0,0.0,0.0,0.0,0.0,0.0,0.0,0.0,0.0,0.0,0.0,0.0,0.0,0.0,0.0,0.0,0.0,0.0,0.0,0.0,0.0,0.0,0.0,0.0,0.0,0.0,0.0,0.0,0.0,0.0,0.0,0.0,0.0,0.0,0.0,0.0,0.0,0.0,0.0,0.0,0.0,0.0,0.0,0.0,0.0,0.0,0.0,0.0,0.0,0.0,0.0,0.0,0.0,0.0,0.0,0.0,0.0,0.0,0.0,0.0,0.0,0.0,0.0,0.0,0.0,0.0,0.0,0.0,0.0,0.0,0.0,0.0,0.0,0.0,0.0,0.0,0.0,0.0,0.0,0.0,0.0,0.0,0.0,0.0,0.0,0.0,0.0,0.0,0.0,0.0,0.0,0.0,0.0,0.0,0.0,0.0,0.0,0.0,0.0,0.0,0.0,0.0,0.0,0.0,0.0,0.0,0.0,0.0,0.0,0.0,0.0,0.0,0.0,0.0,0.0,0.0,0.0,0.0,0.0,0.0,0.0,0.0,0.0,0.0,0.0,0.0,0.0,0.0,0.0,0.0,0.0,0.0,0.0,0.0,0.0,0.0,0.0,0.0,0.0,0.0,0.0,0.0,0.0,0.0,0.0,0.0,0.0,0.0,0.0,0.0,0.0,0.0,0.0,0.0,0.0,0.0,0.0,0.0,0.0,0.0,0.0,0.0,0.0,0.0,0.0,0.0,0.0,0.0,0.0,0.0,0.0,0.0,0.0,0.0,0.0,0.0,0.0,0.0,0.0,0.0,0.0,0.0,0.0,0.0,0.0,0.0,0.0,0.0,0.0,0.0,0.0,0.0,0.0,0.0,0.0,0.0,0.0,0.0,0.0,0.0,0.0,0.0,0.0,0.0,0.0,0.0,0.0,0.0,0.0,0.0,0.0,0.0,0.0,0.0,0.0,0.0,0.0,0.0,0.0,0.0,0.0,0.0,0.0,0.0,0.0,0.0,0.0,0.0,0.0,0.0,0.0,0.0,0.0,0.0,0.0,0.0,0.0,0.0,0.0,0.0,0.0,0.0,0.0,0.0,0.0,0.0,0.0,0.0,0.0,0.0,0.0,0.0,0.0,0.0,0.0,0.0,0.0,0.0,0.0,0.0,0.0,0.0,0.0,0.0,0.0,0.0,0.0,0.0,0.0,0.0,0.0,0.0,0.0,0.0,0.0,0.0,0.0,0.0,0.0,0.0,0.0,0.0,0.0,0.0,0.0,0.0,0.0,0.0,0.0,0.0,0.0,0.0,0.0,0.0,0.0,0.0,0.0,0.0,0.0,0.0,0.0,0.0,0.0,0.0,0.0,0.0,0.0,0.0,0.0,0.0,0.0,0.0,0.0,0.0,0.0,0.0,0.0,0.0,0.0,0.0,0.0,0.0,0.0,0.0,0.0,0.0,0.0,0.0,0.0,0.0,0.0,0.0,0.0,0.0,0.0,0.0,0.0,0.0,0.0,0.0,0.0,0.0,0.0,0.0,0.0,0.0,0.0,0.0,0.0,0.0,0.0,0.0,0.0,0.0,0.0,0.0,0.0,0.0,0.0,0.0,0.0,0.0,0.0,0.0,0.0,0.0,0.0,0.0,0.0,0.0,0.0,0.0,0.0,0.0,0.0,0.0,0.0,0.0,0.0,0.0,0.0,0.0,0.0,0.0,0.0,0.0,0.0,0.0,0.0,0.0,0.0,0.0,0.0,0.0,0.0,0.0,0.0,0.0,0.0,0.0,0.0,0.0,0.0,0.0,0.0,0.0,0.0,0.0,0.0,0.0,0.0,0.0,0.0,0.0,0.0,0.0,0.0,0.0,0.0,0.0,0.0,0.0,0.0,0.0,0.0,0.0,0.0,0.0,0.0,0.0,0.0,0.0,0.0,0.0,0.0,0.0,0.0,0.0,0.0,0.0,0.0,0.0,0.0,0.0,0.0,0.0,0.0,0.0,0.0,0.0,0.0,0.0,0.0,0.0,0.0,0.0,0.0,0.0,0.0,0.0,0.0,0.0,0.0,0.0,0.0,0.0,0.0,0.0,0.0,0.0,0.0,0.0,0.0,0.0,0.0,0.0,0.0,0.0,0.0,0.0,0.0,0.0,0.0,0.0,0.0,0.0,0.0,0.0,0.0,0.0,0.0,0.0,0.0,0.0,0.0,0.0,0.0,0.0,0.0,0.0,0.0,0.0,0.0,0.0,0.0,0.0,0.0,0.0,0.0,0.0,0.0,0.0,0.0,0.0,0.0,0.0,0.0,0.0,0.0,0.0,0.0,0.0,0.0,0.0,0.0,0.0,0.0,0.0,0.0,0.0,0.0,0.0,0.0,0.0,0.0,0.0,0.0,0.0,0.0,0.0,0.0,0.0,0.0,0.0,0.0,0.0,0.0,0.0,0.0,0.0,0.0,0.0,0.0,0.0,0.0,0.0,0.0,0.0,0.0,0.0,0.0,0.0,0.0,0.0,0.0,0.0,0.0,0.0,0.0,0.0,0.0,0.0,0.0,0.0,0.0,0.0,0.0,0.0,0.0,0.0,0.0,0.0,0.0,0.0,0.0,0.0,0.0,0.0,0.0,0.0,0.0,0.0,0.0,0.0,0.0,0.0,0.0,0.0,0.0,0.0,0.0,0.0,0.0,0.0,0.0,0.0,0.0,0.0,0.0,0.0,0.0,0.0,0.0,0.0,0.0,0.0,0.0,0.0,0.0,0.0,0.0,0.0,0.0,0.0,-2.3851,0.0,0.0,0.0,0.0,0.0,0.0,0.0,0.0,0.0,0.0,0.0,0.0,0.0,0.0,0.0,0.0,0.0,0.0,0.0,0.0,0.0,0.0,0.0,0.0,-2.1293,-2.1293,-2.1293,-2.1293,-2.1293,-2.1293,0.0,0.0,0.0,0.0,0.0,-2.1293,-2.1324,-2.1167,-2.0794,-2.0893,-2.0763,-2.0398,-1.9967,-1.977,-1.9752,0.0,0.0,0.0,0.0,0.0,0.0,0.0,0.0,0.0,0.0,0.0,0.0,0.0,0.0,0.0,0.0,0.0,0.0,0.0,0.0,0.0,0.0,0.0,0.0,0.0,0.0,0.0,0.0,0.0,0.0,0.0,0.0,0.0,0.0,0.0,0.0,0.0,0.0,0.0,0.0,0.0,0.0,0.0,0.0,0.0,0.0,0.0,0.0,0.0,0.0,0.0,0.0,0.0,0.0,0.0,0.0,0.0,0.0,0.0,0.0,0.0,0.0,0.0,0.0,0.0,0.0,0.0,0.0,0.0,0.0,0.0,-2.4603,0.0,0.0,0.0,0.0,0.0,0.0,0.0,0.0,0.0,0.0,0.0,0.0,0.0,0.0,0.0,0.0,0.0,0.0,0.0,0.0,0.0,-2.1293,-2.1293,-2.1293,-2.1293,-2.1293,-2.1293,-2.1293,-2.1293,-2.1293,0.0,0.0,0.0,-2.1293,-2.1293,-2.1371,-2.1246,-2.0893,-2.1055,-2.0991,-2.073,-2.073,-2.073,-2.0698,-2.0089,0.0,0.0,0.0,0.0,0.0,0.0,0.0,0.0,0.0,0.0,0.0,0.0,0.0,0.0,0.0,0.0,0.0,0.0,0.0,0.0,0.0,0.0,0.0,0.0,0.0,0.0,0.0,0.0,0.0,0.0,0.0,0.0,0.0,0.0,0.0,0.0,0.0,0.0,0.0,0.0,0.0,0.0,0.0,0.0,0.0,0.0,0.0,0.0,0.0,0.0,0.0,0.0,0.0,0.0,0.0,0.0,0.0,0.0,0.0,0.0,0.0,0.0,0.0,-2.7191,-2.7345,-2.7373,-2.7373,-2.7401,-2.7401,-2.6942,-2.6683,-2.6522,-2.6065,0.0,0.0,0.0,0.0,0.0,0.0,0.0,0.0,0.0,0.0,0.0,0.0,0.0,0.0,0.0,0.0,0.0,0.0,0.0,-2.1293,-2.1293,-2.1293,-2.1293,-2.1293,-2.1293,-2.1293,-2.1293,-2.1293,-2.1293,-2.1293,-2.1293,-2.1293,-2.1293,-2.1371,-2.1371,-2.1324,-2.1509,-2.1601,-2.1631,-2.1631,-2.1631,-2.1569,-2.04,-2.0074,-2.0362,0.0,0.0,0.0,0.0,0.0,0.0,0.0,0.0,0.0,0.0,0.0,0.0,0.0,0.0,0.0,0.0,0.0,0.0,0.0,0.0,0.0,0.0,0.0,0.0,0.0,0.0,0.0,0.0,0.0,0.0,0.0,0.0,0.0,0.0,0.0,0.0,0.0,0.0,0.0,0.0,0.0,-2.2999,-2.3053,0.0,0.0,0.0,0.0,0.0,0.0,0.0,0.0,0.0,0.0,0.0,0.0,0.0,-2.6392,-2.7369,-2.7485,-2.7978,-2.8833,-2.8928,-2.9088,-2.9233,-2.9233,-2.9343,-2.949,-2.9437,0.0,-2.6813,-2.6345,0.0,0.0,0.0,0.0,0.0,0.0,0.0,0.0,0.0,0.0,0.0,0.0,0.0,0.0,0.0,0.0,0.0,0.0,0.0,0.0,0.0,-2.134,-2.1356,-2.1356,-2.1434,-2.1434,-2.1371,-2.1356,-2.134,-2.1293,-2.1293,-2.1324,-2.1356,-2.1449,-2.1556,-2.1616,-2.1678,-2.1723,-2.1812,-2.1812,-2.1812,-2.1783,-2.1023,-2.0747,-2.0813,-2.026,0.0,0.0,0.0,0.0,0.0,0.0,0.0,0.0,0.0,0.0,0.0,0.0,0.0,0.0,0.0,0.0,0.0,0.0,0.0,0.0,0.0,0.0,0.0,0.0,0.0,0.0,0.0,0.0,0.0,0.0,0.0,0.0,0.0,0.0,0.0,0.0,0.0,0.0,0.0,-2.2895,-2.3324,-2.3928,-2.3811,-2.3849,0.0,0.0,0.0,0.0,0.0,0.0,0.0,0.0,0.0,-2.7723,-2.7893,-2.8258,-2.8895,-2.8914,-2.9158,-2.9598,-3.0124,-3.0405,-3.0505,-3.0977,-3.1229,-3.128,-3.0825,-3.0072,-2.9092,-2.8289,-2.789,-2.772,0.0,0.0,0.0,0.0,-2.6829,-2.6921,0.0,0.0,0.0,0.0,0.0,0.0,0.0,0.0,0.0,0.0,0.0,0.0,-2.1293,-2.1371,-2.1386,-2.1387,-2.148,-2.1511,-2.1371,-2.1386,-2.1371,-2.1293,-2.1293,-2.1324,-2.1402,-2.1557,-2.1679,-2.1812,-2.1951,-2.2034,-2.2094,-2.2261,-2.226,-2.2079,-2.1819,-2.1549,-2.1244,-2.078,-2.0431,0.0,0.0,0.0,0.0,0.0,0.0,0.0,0.0,0.0,0.0,0.0,0.0,0.0,0.0,0.0,0.0,0.0,0.0,0.0,0.0,0.0,0.0,0.0,0.0,0.0,0.0,0.0,0.0,0.0,0.0,0.0,0.0,0.0,0.0,0.0,0.0,0.0,0.0,-2.339,-2.3999,-2.498,-2.495,-2.5047,0.0,0.0,0.0,0.0,0.0,0.0,-2.7652,-2.781,-2.843,-2.9642,-2.9793,-3.0039,-3.0454,-3.041,-3.041,-3.0473,-3.1071,-3.1382,-3.1446,-3.2051,-3.2343,-3.236,-3.1772,-3.1391,-3.111,-2.9824,-2.9185,-2.8968,-2.8601,-2.8365,-2.8215,-2.8129,-2.8156,-2.8228,0.0,0.0,0.0,0.0,0.0,0.0,0.0,0.0,0.0,0.0,0.0,-2.1371,-2.1325,-2.1371,-2.1371,-2.1309,-2.1371,-2.1387,-2.1309,-2.1355,-2.1371,-2.1293,-2.1293,-2.1324,-2.1402,-2.1587,-2.1723,-2.1812,-2.2493,-2.2841,-2.2857,-2.3553,-2.352,-2.2841,-2.2825,-2.2428,-2.1721,-2.1055,-2.0893,-2.0975,0.0,0.0,0.0,0.0,0.0,0.0,0.0,0.0,0.0,0.0,0.0,0.0,0.0,0.0,0.0,0.0,0.0,0.0,0.0,0.0,0.0,0.0,0.0,0.0,0.0,0.0,0.0,0.0,0.0,0.0,0.0,0.0,0.0,0.0,0.0,0.0,0.0,0.0,0.0,-2.6132,-2.6256,0.0,0.0,0.0,0.0,-2.7655,-2.8322,-2.8831,-2.9081,-2.9273,-2.9706,-3.0432,-3.0702,-3.1204,-3.1975,-3.1792,-3.1792,-3.1994,-3.1848,-3.1867,-3.205,-3.2107,-3.2223,-3.2397,-3.236,-3.2231,-3.1908,-3.0058,-2.9185,-2.8945,-2.8355,-2.8313,-2.8531,-2.8215,-2.8313,-2.8574,0.0,0.0,0.0,0.0,0.0,-2.099,-2.1246,-2.1293,-2.1293,-2.1293,-2.1324,-2.1324,-2.1293,-2.1371,-2.1386,-2.1371,-2.1481,-2.148,-2.1371,-2.1386,-2.1371,-2.1293,-2.134,-2.1661,-2.2276,-2.2417,-2.271,-2.3222,-2.3487,-2.3603,-2.3603,-2.3884,-2.3868,-2.3603,-2.3603,-2.3454,-2.314,-2.195,-2.1371,-2.1214,-2.0974,-2.0697,0.0,0.0,0.0,0.0,0.0,0.0,0.0,0.0,0.0,0.0,0.0,0.0,0.0,0.0,0.0,0.0,0.0,0.0,0.0,0.0,0.0,0.0,0.0,0.0,0.0,0.0,0.0,0.0,0.0,0.0,0.0,0.0,0.0,0.0,0.0,0.0,0.0,-2.6838,-2.7082,0.0,-2.7951,-2.8274,-2.8761,-2.9538,-2.9845,-3.031,-3.1036,-3.1223,-3.1421,-3.1655,-3.1789,-3.2005,-3.2288,-3.2779,-3.3062,-3.3148,-3.4147,-3.4666,-3.4764,-3.5274,-3.555,-3.559,-3.5059,-3.4414,-3.3629,-3.242,-3.1496,-3.0783,-3.0556,-3.0544,-3.0639,-3.052,-3.0112,-2.9631,0.0,0.0,0.0,-2.0545,-2.0712,-2.0909,-2.1246,-2.1246,-2.1262,-2.1293,-2.1324,-2.1324,-2.1293,-2.1371,-2.1386,-2.1371,-2.1511,-2.1542,-2.1402,-2.1449,-2.1563,-2.1761,-2.2084,-2.2539,-2.316,-2.324,-2.3503,-2.4,-2.4249,-2.4381,-2.4381,-2.463,-2.4613,-2.4381,-2.4381,-2.4232,-2.3934,-2.2957,-2.2271,-2.1807,-2.1437,-2.1167,-2.0958,0.0,0.0,0.0,0.0,0.0,0.0,0.0,0.0,0.0,0.0,0.0,0.0,0.0,0.0,0.0,0.0,0.0,0.0,0.0,0.0,0.0,0.0,0.0,0.0,0.0,0.0,0.0,0.0,0.0,0.0,0.0,0.0,0.0,0.0,0.0,-2.6512,-2.752,-2.8057,-2.8608,-2.9308,-2.9671,-3.0246,-3.1112,-3.117,-3.1484,-3.2166,-3.2553,-3.2911,-3.3176,-3.3516,-3.3809,-3.4074,-3.4661,-3.4946,-3.4965,-3.6064,-3.6604,-3.6623,-3.7173,-3.7401,-3.7382,-3.6851,-3.6193,-3.5495,-3.4967,-3.4319,-3.3561,-3.2288,-3.1793,-3.1782,-3.1693,-3.1221,-3.0601,0.0,-1.978,-2.0239,-2.0712,-2.0794,-2.0893,-2.123,-2.1183,-2.1151,-2.1277,-2.1356,-2.1371,-2.1325,-2.1371,-2.1371,-2.1309,-2.1481,-2.1559,-2.145,-2.156,-2.1965,-2.2719,-2.3506,-2.3951,-2.3968,-2.4033,-2.4083,-2.4133,-2.4846,-2.521,-2.5243,-2.5956,-2.5905,-2.5209,-2.5193,-2.4779,-2.41,-2.405,-2.3619,-2.2859,-2.1791,-2.1357,-2.1357,0.0,0.0,0.0,0.0,0.0,0.0,0.0,0.0,0.0,0.0,0.0,0.0,0.0,0.0,0.0,0.0,0.0,0.0,0.0,0.0,0.0,0.0,0.0,0.0,0.0,0.0,0.0,0.0,0.0,0.0,0.0,0.0,0.0,-2.6753,-2.6899,-2.7392,-2.8246,-2.9232,-2.9988,-3.0309,-3.1232,-3.1976,-3.2355,-3.2374,-3.243,-3.2549,-3.3354,-3.4169,-3.4946,-3.5799,-3.6623,-3.7401,-3.7438,-3.7438,-3.7438,-3.7495,-3.7533,-3.7533,-3.7552,-3.7552,-3.7533,-3.7533,-3.7495,-3.7438,-3.7438,-3.742,-3.7038,-3.3401,-3.1964,-3.1931,-3.1666,-3.1538,-3.1421,-1.9376,-1.978,-2.0204,-2.0527,-2.0529,-2.0663,-2.1087,-2.1119,-2.1151,-2.1277,-2.1309,-2.1324,-2.1293,-2.1309,-2.134,-2.1371,-2.1433,-2.1708,-2.2295,-2.2375,-2.2862,-2.389,0.0,0.0,-2.5473,-2.5521,-2.6066,-2.7194,-2.7382,-2.7624,-2.7852,-2.8055,-2.7908,-2.7481,-2.6934,-2.6586,-2.6321,-2.5243,-2.4679,-2.4381,-2.3011,-2.2453,-2.2387,0.0,0.0,0.0,0.0,0.0,0.0,0.0,0.0,0.0,0.0,0.0,0.0,0.0,0.0,0.0,0.0,0.0,0.0,0.0,0.0,0.0,0.0,0.0,0.0,0.0,0.0,0.0,0.0,0.0,0.0,0.0,-2.7766,-2.7996,-2.7796,-2.8448,-2.9044,-2.9287,-3.0374,-3.1179,-3.1359,-3.1871,-3.2721,-3.4084,-3.4188,-3.4709,-3.595,-3.6253,-3.6481,-3.6708,-3.6946,-3.7192,-3.7401,-3.8026,-3.8348,-3.8367,-3.957,-4.0157,-4.0176,-4.0764,-4.0707,-4.0157,-4.0157,-3.9475,-3.8348,-3.8348,-3.7969,-3.7296,-3.6266,-3.5866,-3.5834,-3.5562,-3.4482,-3.2963,-1.9176,-1.9527,-1.9922,-2.0272,-2.0239,-2.0361,-2.1006,-2.1038,-2.1039,-2.1262,-2.1293,-2.1293,-2.1293,-2.1293,-2.1324,-2.1386,-2.1449,-2.1899,-2.2888,-2.369,-2.4398,0.0,0.0,-2.6077,-2.6555,-2.6899,-2.7486,-2.84,-2.8711,-2.8956,-2.9143,-2.9143,-2.9053,-2.8835,-2.825,-2.7808,-2.749,-2.6458,-2.5839,-2.5457,-2.4299,-2.3454,-2.2841,-2.241,-2.2077,-2.1812,-2.1812,-2.1661,-2.1541,-2.1738,0.0,0.0,0.0,0.0,0.0,0.0,0.0,0.0,0.0,0.0,0.0,0.0,0.0,0.0,0.0,0.0,0.0,0.0,0.0,0.0,0.0,0.0,0.0,0.0,-2.8649,-2.8913,-2.9137,-2.9475,-2.9876,-3.0321,-3.1672,-3.2624,-3.2783,-3.3695,-3.4722,-3.5776,-3.5921,-3.6367,-3.7363,-3.7761,-3.8102,-3.8433,-3.8793,-3.9153,-3.9494,-4.0006,-4.0252,-4.0252,-4.1237,-4.17,-4.1719,-4.2192,-4.2136,-4.17,-4.17,-4.1162,-4.0252,-4.0252,-3.9949,-3.9361,0.0,0.0,0.0,0.0,-3.6149,-3.4884,-1.8879,-1.9139,-1.9487,-1.9942,-1.9874,-2.0035,-2.0844,-2.0876,-2.0909,-2.123,-2.1293,-2.1293,-2.1293,-2.1293,-2.1324,-2.1433,-2.1527,-2.213,-2.3348,-2.5116,0.0,-2.6195,-2.6913,-2.7359,-2.7461,-2.8151,-2.86,-2.8774,-2.9432,-2.9762,-2.9815,-2.9815,-2.9781,-2.973,-2.9296,-2.8762,-2.8167,-2.7623,-2.699,-2.6307,-2.5542,-2.4398,-2.3123,-2.2957,-2.2477,-2.1912,-2.1858,-2.184,-2.1857,-2.194,0.0,0.0,0.0,0.0,0.0,0.0,0.0,0.0,0.0,0.0,0.0,0.0,0.0,0.0,0.0,0.0,0.0,0.0,0.0,0.0,0.0,0.0,0.0,0.0,-2.9627,-3.0038,-3.0713,-3.0402,-3.0437,-3.137,-3.297,-3.4096,-3.4365,-3.596,-3.7047,-3.7269,-3.7494,-3.7682,-3.7787,0.0,0.0,0.0,0.0,-4.1681,-4.2382,-4.2401,-4.2401,-4.2401,-4.2507,-4.2564,-4.2564,-4.2628,-4.2628,-4.2564,-4.2564,-4.2477,-4.2401,-4.2401,-4.2401,-4.2109,-3.902,-3.7816,-3.7718,-3.7295,-3.7018,-3.6825,-1.8874,-1.8936,-1.912,-1.9472,-1.949,-1.9672,-2.0204,-2.0579,-2.0876,-2.1103,-2.123,-2.1293,-2.1293,-2.1293,-2.1372,-2.1542,-2.1589,-2.2361,-2.4152,0.0,-2.6469,-2.7335,-2.7794,-2.8312,-2.8965,-2.9124,-2.9816,-3.1056,-3.1198,-3.1444,-3.1759,-3.1759,-3.1586,-3.1248,-3.0574,-3.0195,-2.997,-2.8439,-2.7705,-2.7467,-2.6412,-2.5457,-2.4547,-2.3354,-2.2808,-2.2655,-2.2257,-2.2108,-2.2209,-2.2801,-2.3003,-2.3076,-2.345,0.0,0.0,0.0,0.0,0.0,0.0,0.0,0.0,0.0,0.0,0.0,0.0,0.0,0.0,0.0,0.0,0.0,0.0,0.0,0.0,-2.9326,-2.9933,-3.0897,-3.2448,-3.258,-3.2544,-3.2604,-3.384,-3.4907,-3.544,-3.625,-3.7044,-3.7704,-3.8589,-3.946,-4.0264,-4.1076,-4.1652,-4.1908,-4.2079,-4.223,-4.2401,-4.2401,-4.2401,-4.2401,0.0,0.0,-4.3474,-4.4118,-4.4061,-4.3455,-4.3455,-4.3057,-4.2401,-4.2401,-4.2401,-4.2268,-4.0961,-4.0299,-3.9907,-3.8548,-3.7897,-3.758,-1.8664,-1.8697,-1.8798,-1.9101,-1.9302,-1.956,-2.003,-2.041,-2.0761,-2.1055,-2.1167,-2.123,-2.1293,-2.1293,-2.134,-2.1496,-2.2083,-2.3035,0.0,-2.5656,-2.6746,-2.7666,-2.8025,-2.8588,-2.9387,-2.9762,-3.0529,-3.1689,-3.2114,-3.2394,-3.2606,-3.2606,-3.2488,-3.2283,-3.169,-3.1237,-3.0802,-2.9334,-2.8494,-2.8049,-2.691,-2.6234,-2.5765,-2.4481,-2.3768,-2.3435,-2.3371,-2.3338,-2.3435,-2.3969,-2.4164,-2.4203,-2.4431,-2.4504,-2.4504,0.0,0.0,0.0,0.0,0.0,0.0,0.0,0.0,0.0,0.0,0.0,0.0,0.0,0.0,-2.7611,-2.8195,0.0,-2.9572,-3.0422,-3.1397,-3.2462,-3.3671,-3.4403,-3.4743,-3.4606,-3.5604,-3.6463,-3.682,-3.8,-3.8881,-3.9227,-4.0188,-4.096,-4.1469,-4.1883,-4.2322,-4.2794,-4.2894,-4.3138,-4.3554,-4.3627,-4.3663,-4.3663,-4.4099,-4.4308,-4.4308,-4.4724,-4.4687,-4.4308,-4.4308,-4.4042,-4.3663,-4.3663,-4.3663,-4.3568,-4.2773,-4.2077,-4.146,-4.0641,-4.0024,-3.9489,-1.8498,-1.8498,-1.8562,-1.8779,-1.9082,-1.9453,-1.9904,-2.0222,-2.0561,-2.0925,-2.1039,-2.1151,-2.1262,-2.1277,-2.1324,-2.1386,-2.237,-2.3352,0.0,-2.5475,-2.6576,-2.7452,-2.788,-2.8514,-2.9387,-3.0104,-3.0886,-3.1689,-3.2507,-3.29,-3.29,-3.29,-3.29,-3.2884,-3.2573,-3.1997,-3.1222,-3.0071,-2.9175,-2.8396,-2.7263,-2.6791,-2.6707,-2.5832,-2.4963,-2.4248,-2.4554,-2.4622,-2.4656,-2.5135,-2.5288,-2.5305,-2.5403,-2.5426,-2.5411,-2.5353,-2.5382,0.0,0.0,0.0,0.0,0.0,0.0,0.0,0.0,0.0,-2.7452,-2.7591,-2.784,-2.8262,-2.9052,-2.969,-3.051,-3.1795,-3.3008,-3.4055,-3.4914,-3.5904,-3.6654,-3.6883,-3.7501,-3.7998,-3.8215,-3.9852,-4.0838,-4.0714,-4.1618,-4.2181,-4.219,-4.234,-4.2766,-4.3431,-4.3608,-4.3999,-4.464,-4.4783,-4.4858,-4.4858,-4.4883,-4.4895,-4.4895,-4.4895,-4.4895,-4.4895,-4.4895,-4.4895,-4.4895,-4.4895,-4.4895,-4.4838,-4.4194,-4.3512,-4.2837,-4.2515,-4.1984,-4.1435,-1.8459,-1.8498,-1.8517,-1.8537,-1.876,-1.9082,-1.9431,-1.9869,-2.0254,-2.0527,-2.0876,-2.1119,-2.1119,-2.123,-2.1324,-2.1386,-2.1698,0.0,-2.3369,-2.4245,-2.5323,-2.6673,-2.739,-2.8279,-2.9387,-3.0104,-3.0886,-3.1689,-3.2507,-3.29,-3.29,-3.29,-3.29,-3.29,-3.285,-3.239,-3.1573,-3.043,-2.953,-2.8743,-2.7602,-2.7149,-2.7116,-2.7016,-2.6132,-2.4996,-2.5216,-2.5118,-2.5008,-2.5987,-2.6331,-2.6411,-2.6807,-2.6954,-2.6891,-2.6602,0.0,-2.6829,-2.6335,-2.6623,-2.7249,-2.7922,-2.8099,-2.8099,0.0,0.0,-2.8294,-2.9019,-2.919,-2.9436,-3.0166,-3.0957,-3.1846,-3.2934,-3.3843,-3.4984,-3.6659,-3.7009,-3.7609,-3.8984,-3.8872,-3.8875,-3.9351,-4.0473,-4.1148,-4.1132,-4.2124,-4.2768,-4.2875,-4.3623,-4.4129,-4.435,-4.4364,-4.4435,-4.451,-4.4659,-4.4706,-4.4719,-4.4833,-4.4895,-4.4895,-4.4895,-4.4895,-4.4895,-4.4895,-4.4895,-4.4895,-4.4895,-4.4895,-4.4895,-4.48,-4.4706,-4.444,-4.2962,-4.2344,-4.2268,-1.8301,-1.8341,-1.8361,-1.8478,-1.8721,-1.8936,-1.9082,-1.9435,-1.978,-1.9995,-2.0308,-2.0596,-2.0795,-2.1087,-2.1324,-2.1386,-2.148,-2.196,-2.2934,-2.351,-2.4458,-2.5943,-2.6504,-2.7492,-2.9071,-2.9405,-3.0044,-3.1011,-3.1811,-3.2204,-3.2222,-3.2686,-3.29,-3.2882,-3.2418,-3.2025,-3.1617,-3.0234,-2.9464,-2.9095,-2.7957,-2.7491,-2.7491,-2.7491,-2.7006,-2.6364,-2.6653,-2.6647,0.0,0.0,-2.7486,-2.7525,-2.7715,-2.7777,-2.7763,-2.7612,-2.7657,0.0,-2.743,-2.7585,0.0,0.0,-2.8196,-2.8196,-2.8196,-2.8552,-2.898,-2.9333,-2.9744,-3.0279,-3.1064,-3.1865,-3.2699,0.0,-3.4927,-3.61,-3.6848,-3.7867,-3.8786,-3.9408,-4.0145,-4.0507,-4.0244,-4.126,-4.1901,-4.1901,-4.2881,-4.3515,-4.3591,-4.3927,-4.4162,-4.4203,-4.431,-4.4387,-4.4387,-4.451,-4.4578,-4.4578,-4.4725,-4.477,-4.4802,-4.4858,-4.4895,-4.4895,-4.4895,-4.4895,-4.4895,-4.4895,-4.4895,-4.4895,-4.4895,-4.4895,-4.4819,-4.4118,-4.3568,-4.317,-1.7935,-1.8089,-1.8262,-1.84,-1.862,-1.8817,-1.8879,-1.9101,-1.9343,-1.9581,-1.9889,-2.0256,-2.068,-2.1039,-2.1277,-2.1355,-2.1386,-2.1692,-2.2357,-2.2881,-2.3695,-2.4915,-2.5622,-2.6682,-2.8237,-2.8695,-2.9324,-3.0208,-3.0975,-3.1367,-3.1385,-3.1972,-3.2239,-3.2222,-3.1617,-3.126,-3.0993,-2.9869,-2.928,-2.9002,-2.8166,-2.785,-2.785,-2.785,-2.7686,-2.7507,-2.7745,-2.7774,0.0,0.0,-2.8196,-2.8196,-2.8196,-2.8196,-2.8182,-2.8081,-2.7996,-2.7954,-2.8039,0.0,0.0,-2.8168,-2.8374,-2.8534,-2.8534,-2.9141,-2.9779,-2.9993,-3.0457,-3.1082,-3.1867,-3.2704,-3.3505,-3.4375,-3.5794,-3.6898,-3.7198,-3.8609,-3.969,-3.9843,-4.1134,-4.1828,-4.1305,-4.2147,-4.2765,-4.2846,-4.3558,-4.4005,-4.4005,-4.4005,-4.4005,-4.4005,-4.4147,-4.4226,-4.4226,-4.4373,-4.4444,-4.4444,-4.4578,-4.4646,-4.4646,-4.477,-4.4833,-4.4846,-4.4883,-4.4895,-4.4895,-4.4895,-4.4895,-4.4895,-4.4895,-4.4895,-4.4895,-4.4895,-4.4535,-4.4023,-1.7353,-1.7801,-1.8202,-1.8222,-1.838,-1.86,-1.8874,-1.8898,-1.9026,-1.9376,-1.9815,-2.0342,-2.1006,-2.1103,-2.1167,-2.1293,-2.1371,-2.1402,-2.1434,-2.2292,-2.2986,-2.3352,-2.4812,-2.5953,-2.6651,-2.8132,-2.9077,-2.944,-3.0172,-3.0532,-3.0532,-3.055,-3.0582,-3.0582,-3.0564,-3.0136,-2.9476,-2.9423,-2.8945,-2.8231,-2.82,-2.8182,-2.8182,-2.8182,-2.8168,-2.8168,-2.8182,0.0,0.0,0.0,-2.8196,-2.8196,-2.8196,-2.8196,0.0,-2.7803,-2.7474,-2.7307,-2.7627,0.0,-2.7789,-2.8126,-2.8784,-2.9369,-2.9369,-2.994,-3.0689,-3.1474,-3.1653,-3.1903,-3.2721,-3.3508,-3.4394,-3.5389,-3.6268,-3.7145,-3.8204,-3.9282,-4.0186,-4.0694,-4.1719,-4.2458,0.0,-4.3212,-4.3677,-4.3936,-4.3986,-4.4005,-4.4005,-4.4005,-4.4005,-4.4005,-4.4005,-4.4005,-4.4005,-4.4226,-4.43,-4.43,-4.4444,-4.4515,-4.4515,-4.4646,-4.4712,-4.4725,-4.4833,-4.4895,-4.4895,-4.4895,-4.4895,-4.4895,-4.4895,-4.4895,-4.4895,-4.4895,-4.4876,-4.4857,-1.6752,-1.6921,-1.7144,-1.7359,-1.772,-1.8002,-1.8147,-1.8417,-1.8678,-1.8774,-1.9217,0.0,0.0,0.0,0.0,0.0,-2.1119,-2.1214,-2.1262,-2.1646,-2.2177,-2.2875,-2.345,-2.4404,-2.5841,-2.6634,-2.746,-2.8267,-2.9286,-2.9779,-2.9779,-3.0264,-3.0496,-3.0493,-2.9993,-2.9637,-2.9369,-2.882,-2.8315,-2.7879,-2.7879,-2.7879,-2.7879,-2.7879,-2.78,-2.7768,0.0,0.0,0.0,0.0,0.0,0.0,-2.8071,0.0,0.0,-2.8039,-2.7954,-2.7896,-2.8011,-2.8429,-2.8866,-2.8966,-2.9583,-3.0136,-3.0136,-3.0725,-3.1367,-3.1635,-3.2545,-3.3384,-3.3651,-3.4757,-3.5738,-3.6091,-3.6825,-3.7631,-3.8528,-3.9392,-4.0203,-4.092,-4.1788,0.0,0.0,0.0,0.0,-4.3479,-4.3795,-4.4005,-4.4005,-4.4005,-4.4005,-4.4005,-4.4005,-4.4005,-4.4005,-4.4067,-4.4097,-4.4097,-4.4281,-4.4416,-4.4501,-4.4556,-4.4619,-4.4712,-4.4751,-4.4827,-4.4895,-4.4895,-4.4895,-4.4895,-4.4895,-4.4895,-4.4895,-4.4895,-4.4895,-4.4895,0.0,-1.6349,-1.6573,-1.6774,-1.7118,0.0,0.0,0.0,0.0,0.0,0.0,0.0,0.0,0.0,0.0,0.0,0.0,-2.1006,-2.1055,-2.123,-2.1567,-2.2134,-2.2539,-2.337,-2.4636,-2.519,-2.5857,-2.6655,-2.7429,-2.7935,-2.8203,-2.8811,-2.91,-2.9068,-2.8991,-2.8816,-2.853,-2.8303,-2.8011,-2.7701,-2.7654,-2.7562,-2.7441,-2.7426,-2.7363,0.0,0.0,0.0,0.0,0.0,0.0,0.0,0.0,0.0,-2.8085,-2.8168,-2.8196,-2.8267,-2.8552,-2.8998,-2.9458,-2.9744,-3.0368,-3.0939,-3.0939,-3.1546,-3.2132,-3.2132,-3.2938,-3.3758,-3.4062,-3.5132,-3.6078,-3.6345,-3.7095,-3.788,-3.8701,-3.9545,-4.0391,-4.118,-4.2067,-4.2632,0.0,0.0,0.0,-4.3196,-4.3512,-4.3747,-4.3844,-4.386,-4.3892,-4.4005,-4.4005,-4.4005,-4.4005,-4.4005,-4.4005,-4.4005,-4.4131,-4.4237,-4.4325,-4.4401,-4.4487,-4.4565,-4.4605,-4.4685,-4.4745,-4.4808,-4.4821,-4.4821,-4.487,-4.4895,-4.4895,-4.4895,-4.4895,-4.4883,0.0,0.0,-1.6436,0.0,0.0,0.0,0.0,0.0,0.0,0.0,0.0,0.0,0.0,0.0,0.0,0.0,0.0,0.0,-2.0778,-2.1038,0.0,-2.1183,-2.2118,-2.2796,-2.3149,-2.3867,-2.4425,-2.4775,-2.4864,-2.5254,-2.5962,-2.633,-2.6486,-2.6479,-2.755,-2.7616,-2.6965,-2.7736,-2.7876,-2.7587,-2.746,-2.7232,-2.6952,-2.6888,0.0,0.0,0.0,0.0,0.0,0.0,0.0,0.0,0.0,-2.8085,-2.8182,-2.8196,-2.8231,-2.8427,-2.9191,-2.9458,-2.969,-3.0404,-3.1171,-3.176,-3.176,-3.2347,-3.29,-3.29,-3.2936,-3.3203,-3.3972,0.0,-3.5525,-3.6274,-3.7095,-3.788,-3.8754,-3.9731,-4.069,0.0,0.0,0.0,0.0,0.0,0.0,-4.3142,0.0,-4.3322,-4.3597,-4.3595,-4.373,-4.3989,-4.4005,-4.4005,-4.4005,-4.4005,-4.4005,-4.4005,-4.4005,-4.4005,-4.4005,-4.4192,-4.4285,-4.43,-4.443,-4.4501,-4.4515,-4.4632,-4.4699,-4.4712,-4.4821,-4.487,-4.4883,-4.4883,-4.4883,-4.4858,0.0,0.0,0.0,0.0,0.0,0.0,0.0,0.0,0.0,0.0,0.0,0.0,0.0,0.0,0.0,0.0,0.0,0.0,-2.0561,-2.0778,0.0,0.0,0.0,0.0,0.0,0.0,0.0,0.0,0.0,-2.492,-2.5111,-2.5212,-2.5328,-2.5471,-2.5764,-2.5889,-2.5897,-2.6096,-2.619,-2.6213,0.0,-2.6331,-2.6556,0.0,0.0,0.0,0.0,0.0,0.0,0.0,0.0,0.0,0.0,-2.8011,-2.8071,-2.8168,-2.8624,-2.9137,-2.9351,-3.0243,-3.1153,-3.135,-3.2007,-3.2596,-3.2596,-3.2757,-3.29,-3.29,-3.3366,-3.3865,-3.4062,-3.5186,0.0,-3.6363,-3.7095,0.0,-3.9432,-3.9865,0.0,-4.1964,0.0,-4.2492,-4.2412,-4.2472,0.0,0.0,-4.2938,-4.3322,-4.3597,-4.3595,-4.373,-4.3989,-4.4005,-4.4005,-4.4005,-4.4005,-4.4005,-4.4005,-4.4005,-4.4005,-4.4005,-4.4051,-4.4162,-4.43,-4.4344,-4.4416,-4.4501,-4.4542,-4.4537,-4.4551,-4.4578,-4.4659,-4.4764,-4.4764,-4.4808,-4.4858,0.0,0.0,0.0,0.0,0.0,0.0,0.0,0.0,0.0,0.0,0.0,0.0,0.0,0.0,0.0,0.0,0.0,0.0,0.0,-2.0495,0.0,0.0,0.0,0.0,0.0,0.0,0.0,0.0,0.0,0.0,0.0,-2.3996,-2.4145,-2.4232,-2.4752,-2.4861,-2.4694,-2.5042,0.0,0.0,0.0,0.0,0.0,0.0,0.0,0.0,0.0,0.0,0.0,0.0,0.0,-2.785,-2.7954,-2.8042,-2.8099,-2.8168,0.0,-2.9476,-2.9797,-3.0779,-3.1778,-3.215,-3.2579,-3.29,-3.29,-3.29,-3.29,-3.29,-3.3192,-3.357,-3.4027,-3.501,-3.5918,0.0,0.0,0.0,-3.9681,-3.9895,-4.0503,0.0,-4.2308,0.0,-4.2308,-4.2308,-4.2308,0.0,-4.271,-4.3105,-4.3409,-4.3546,-4.373,-4.3989,-4.4005,-4.4005,-4.4005,-4.4005,-4.4005,-4.4005,-4.4005,-4.4005,-4.4005,-4.4005,-4.4051,-4.4162,-4.4162,-4.4222,-4.4296,-4.4387,-4.4416,-4.4397,-4.4317,-4.4341,-4.4379,-4.426,-4.427,-4.4294,0.0,0.0,0.0,0.0,0.0,0.0,0.0,0.0,0.0,0.0,-1.842,-1.8478,0.0,0.0,0.0,0.0,0.0,0.0,0.0,0.0,0.0,0.0,0.0,0.0,0.0,0.0,0.0,0.0,0.0,0.0,0.0,0.0,0.0,0.0,0.0,0.0,0.0,0.0,0.0,0.0,0.0,0.0,0.0,0.0,0.0,0.0,0.0,0.0,0.0,0.0,-2.7806,-2.7968,-2.7996,-2.8112,-2.8196,-2.8196,-2.8838,-2.969,-3.0332,-3.1171,-3.2028,-3.2721,-3.29,-3.29,-3.2868,-3.2868,-3.285,-3.2836,0.0,-3.2835,-3.3713,-3.4375,-3.5102,-3.6061,0.0,-3.7951,-3.952,-3.9841,-4.0467,-4.1948,-4.2236,-4.2308,-4.2308,-4.2308,-4.2308,-4.2308,-4.2554,-4.2826,-4.3123,-4.3338,-4.3595,-4.3894,-4.3942,-4.3958,-4.3958,-4.3989,-4.4005,-4.4005,-4.4005,-4.4005,-4.4005,-4.4005,-4.4005,-4.4005,-4.4005,-4.4005,-4.402,-4.4192,-4.427,-4.4237,-4.4069,-4.3986,-4.3955,-4.3698,-4.3617,-4.3601,0.0,0.0,0.0,0.0,0.0,0.0,0.0,0.0,0.0,0.0,-1.7942,-1.8321,0.0,0.0,0.0,0.0,0.0,0.0,0.0,0.0,0.0,0.0,0.0,0.0,0.0,0.0,0.0,0.0,0.0,0.0,0.0,0.0,0.0,0.0,0.0,0.0,0.0,0.0,0.0,0.0,0.0,0.0,0.0,0.0,0.0,0.0,0.0,0.0,0.0,0.0,-2.763,-2.7806,-2.8085,-2.8168,-2.8196,-2.8196,-2.9194,-3.0336,-3.0475,-3.1564,-3.2721,-3.2864,-3.29,-3.2868,-3.2688,-3.2655,0.0,0.0,-3.2369,-3.2405,-3.258,-3.3231,-3.4094,-3.5084,-3.5882,-3.6984,-3.8734,-3.952,-4.0233,0.0,-4.1895,-4.2308,-4.2308,-4.2308,0.0,0.0,-4.2554,-4.2731,-4.2788,-4.2845,-4.3014,-4.3339,-4.3546,-4.3681,-4.3681,-4.3892,-4.4005,-4.4005,-4.4005,-4.4005,-4.4005,-4.4005,-4.4005,-4.4005,-4.4005,0.0,-4.4005,-4.4036,-4.4051,-4.4051,-4.4017,-4.3918,-4.3836,-4.3788,-4.3703,-4.3601,0.0,0.0,0.0,0.0,0.0,0.0,0.0,-1.568,-1.5976,-1.6548,-1.7173,-1.776,-1.8288,-1.8341,-1.8439,0.0,0.0,0.0,0.0,0.0,0.0,0.0,0.0,0.0,0.0,0.0,0.0,0.0,0.0,0.0,0.0,0.0,0.0,0.0,0.0,0.0,0.0,0.0,0.0,0.0,0.0,0.0,0.0,0.0,0.0,0.0,0.0,0.0,0.0,0.0,-2.7448,-2.7461,-2.7821,-2.7936,-2.7936,-2.7936,-2.9033,-3.0267,-3.0361,-3.1546,-3.277,-3.2884,-3.29,-3.2852,-3.2655,0.0,0.0,0.0,-3.2231,-3.2214,-3.2283,-3.2862,0.0,-3.4129,-3.5278,-3.6556,-3.7838,-3.9088,0.0,-4.1002,-4.1805,-4.2308,0.0,-4.2308,-4.2308,-4.2308,-4.2432,-4.2536,-4.2692,-4.2882,-4.3032,-4.3178,-4.3322,-4.3391,-4.3391,-4.3512,-4.358,-4.358,-4.358,-4.3647,-4.3795,-4.3795,-4.386,-4.4005,-4.4005,-4.4005,-4.4005,-4.4005,-4.4005,-4.3989,-4.3844,-4.3681,-4.3477,-4.3284,-4.3105,-4.2922,0.0,0.0,0.0,0.0,0.0,0.0,-1.5108,-1.5322,-1.5591,-1.5879,-1.6355,-1.7013,-1.7855,-1.8089,-1.8262,0.0,0.0,0.0,0.0,0.0,0.0,0.0,0.0,0.0,0.0,0.0,0.0,-2.0728,0.0,0.0,0.0,0.0,0.0,0.0,0.0,0.0,0.0,0.0,0.0,0.0,0.0,0.0,0.0,0.0,0.0,0.0,0.0,0.0,0.0,0.0,-2.7214,-2.7101,-2.7491,-2.7642,-2.7736,-2.7912,-2.8945,-3.0084,-3.0435,-3.1544,-3.2655,-3.2852,-3.2868,-3.2786,-3.2589,-3.2505,0.0,-3.2231,-3.2126,-3.2073,-3.2162,-3.2507,-3.294,0.0,-3.4672,-3.5962,-3.6907,-3.8655,-4.0087,0.0,-4.1698,0.0,-4.2308,-4.2308,0.0,-4.2308,-4.2308,-4.2391,-4.2595,-4.2863,-4.3013,-4.3013,-4.3068,-4.3087,-4.3087,-4.316,-4.3214,-4.3214,-4.3214,-4.3322,-4.3512,-4.3512,-4.3631,-4.3828,-4.3828,-4.3828,-4.3828,-4.3828,-4.3828,-4.3795,-4.3597,-4.3339,-4.3068,-4.2788,-4.2534,-4.2308,0.0,0.0,0.0,0.0,0.0,0.0,-1.5108,-1.5131,-1.5255,-1.5591,-1.569,-1.6086,-1.7013,-1.776,-1.8222,0.0,0.0,0.0,0.0,0.0,0.0,0.0,0.0,0.0,0.0,0.0,0.0,-2.0527,-2.0728,0.0,0.0,0.0,0.0,0.0,0.0,0.0,0.0,0.0,0.0,0.0,0.0,0.0,0.0,0.0,0.0,0.0,0.0,0.0,0.0,0.0,0.0,-2.6891,-2.7233,-2.7511,-2.7841,-2.8579,0.0,0.0,-3.1055,-3.1935,-3.2655,-3.2852,-3.2753,-3.2571,-3.2369,0.0,-3.209,-3.1892,-3.1837,-3.1837,-3.1838,-3.1631,-3.1869,-3.3045,0.0,-3.4586,0.0,-3.8185,-3.9718,-3.9982,0.0,0.0,-4.2308,-4.2308,-4.2308,-4.2308,-4.2308,-4.2308,-4.2348,-4.2369,-4.2389,-4.2389,-4.2632,-4.275,-4.275,-4.305,-4.3214,-4.3214,-4.3214,-4.3196,-4.3232,-4.3232,-4.325,-4.3268,-4.3268,-4.3268,0.0,-4.3268,-4.3268,-4.3268,-4.325,-4.3032,-4.275,-4.2711,-4.2534,-4.2308,0.0,0.0,0.0,0.0,0.0,0.0,-1.5108,-1.5108,-1.5153,-1.5277,-1.5479,-1.5734,-1.6129,-1.6951,-1.7679,-1.8163,-1.8282,0.0,0.0,0.0,0.0,0.0,0.0,0.0,0.0,0.0,-1.9962,-2.0085,-2.0444,0.0,0.0,0.0,0.0,0.0,0.0,-2.1006,0.0,0.0,0.0,0.0,0.0,0.0,0.0,0.0,0.0,0.0,0.0,0.0,0.0,0.0,0.0,0.0,-2.7088,-2.7559,0.0,0.0,-2.9465,-3.0507,-3.0972,-3.1688,-3.2335,-3.2506,-3.2471,-3.2387,-3.2214,-3.2144,-3.2037,-3.1837,-3.18,-3.1744,-3.1542,-3.1542,-3.1701,0.0,0.0,0.0,-3.498,0.0,-3.9496,-3.97,-4.1085,0.0,0.0,0.0,-4.2308,-4.2308,-4.2308,-4.2308,-4.2308,-4.2308,-4.2308,-4.2308,-4.2391,-4.2454,-4.2454,-4.2591,-4.265,-4.265,-4.265,-4.2729,-4.2901,-4.2901,-4.3013,-4.3214,-4.3214,-4.3214,0.0,-4.3214,-4.3214,-4.3214,-4.3214,-4.2995,-4.2711,-4.2711,-4.2534,-4.2308,0.0,0.0,0.0,0.0,0.0,-1.5108,-1.5108,-1.5108,-1.5108,-1.5108,-1.5311,-1.5479,-1.5591,-1.6303,-1.7047,-1.7794,-1.8069,0.0,0.0,0.0,0.0,0.0,0.0,0.0,0.0,0.0,-1.9714,-1.9806,-2.0239,-2.0443,0.0,0.0,-2.0712,-2.0712,0.0,0.0,0.0,0.0,0.0,0.0,0.0,0.0,0.0,0.0,0.0,0.0,0.0,0.0,0.0,0.0,0.0,0.0,0.0,0.0,0.0,0.0,-2.9661,-3.0784,-3.115,-3.1673,-3.2126,-3.2266,-3.2266,-3.2214,-3.2126,-3.2055,-3.1965,-3.1837,-3.1709,-3.1615,-3.1485,-3.1485,-3.1485,0.0,0.0,-3.4024,-3.4198,-3.6998,-3.9122,0.0,0.0,-4.1959,0.0,-4.2267,-4.2308,-4.2308,-4.2308,-4.2308,-4.2308,-4.2308,-4.2308,-4.2308,-4.2308,-4.2308,-4.2308,-4.2308,-4.2308,-4.2308,-4.2308,-4.2391,-4.2575,-4.2575,-4.271,-4.2938,-4.2938,-4.2938,0.0,-4.2938,-4.2938,-4.2938,-4.2938,-4.2787,-4.2575,-4.2575,-4.2454,-4.2308,0.0,0.0,0.0,0.0,0.0,-1.5108,-1.5108,-1.5108,-1.5108,-1.5108,-1.5108,-1.5232,-1.5568,-1.5957,-1.6426,-1.6985,-1.774,0.0,0.0,0.0,0.0,0.0,0.0,0.0,-1.8879,-1.9228,-1.9527,-1.9806,-2.015,-2.0304,-2.0304,-2.0443,-2.051,-2.051,0.0,0.0,0.0,0.0,0.0,0.0,0.0,0.0,0.0,0.0,0.0,0.0,0.0,0.0,0.0,0.0,0.0,0.0,0.0,-2.7706,-2.914,0.0,-3.0058,-3.0905,-3.1828,-3.209,-3.2126,-3.2266,-3.2197,-3.209,-3.209,-3.1946,-3.18,-3.18,-3.1542,-3.1408,-3.1727,-3.1257,-3.1024,-3.169,0.0,0.0,-3.3733,-3.6466,0.0,0.0,0.0,-4.1895,-4.1895,-4.2145,-4.2308,-4.2308,-4.2308,0.0,-4.2308,-4.2308,-4.2308,-4.2308,-4.2308,-4.2308,-4.2308,-4.2308,-4.2308,-4.2308,-4.2308,-4.2308,-4.2308,-4.2308,-4.2308,-4.2308,-4.2308,-4.2308,0.0,-4.2308,-4.2308,-4.2308,-4.2308,-4.2308,-4.2308,-4.2308,-4.2308,-4.2308,0.0,0.0,0.0,0.0,0.0,0.0,-1.5108,-1.5108,-1.5108,-1.5108,-1.5108,-1.5221,-1.5568,-1.5957,-1.6362,-1.6752,-1.7372,0.0,0.0,0.0,0.0,0.0,0.0,0.0,-1.862,-1.8912,-1.9087,-1.9184,-1.9527,-1.978,-1.9962,-1.9997,-2.0137,-2.0373,-2.0441,-2.0707,0.0,0.0,0.0,0.0,0.0,0.0,0.0,0.0,0.0,0.0,0.0,0.0,0.0,0.0,0.0,0.0,0.0,0.0,0.0,-2.9086,-3.0278,-3.1525,-3.1822,-3.1893,-3.191,-3.1947,-3.1929,-3.1893,-3.1893,-3.1855,-3.1744,-3.1504,-3.1372,-3.1181,-3.0845,-3.0804,-3.0865,-3.1083,-3.2189,0.0,0.0,0.0,0.0,-3.9045,-4.0919,-4.2166,0.0,0.0,-4.2308,-4.2308,-4.2308,-4.2308,-4.2308,-4.2308,-4.2308,-4.2308,-4.2308,-4.2308,-4.2308,-4.2308,-4.2308,-4.2308,-4.2308,-4.2308,-4.2308,-4.2308,-4.2308,-4.2308,-4.2308,-4.2308,-4.2308,-4.2308,-4.2308,-4.2308,-4.2308,-4.2308,-4.2308,-4.2308,-4.2308,-4.2308,0.0,0.0,0.0,0.0,0.0,0.0,-1.5085,-1.5108,-1.5153,-1.5255,-1.5289,-1.5424,-1.578,-1.6154,-1.6479,-1.668,-1.7123,0.0,0.0,0.0,0.0,0.0,0.0,0.0,-1.8282,-1.8606,-1.8784,-1.8784,-1.9195,-1.9545,-1.9806,-2.0062,-2.036,-2.0705,-2.0934,-2.1288,0.0,0.0,0.0,0.0,0.0,0.0,-2.4746,0.0,0.0,0.0,0.0,0.0,0.0,0.0,0.0,0.0,0.0,0.0,0.0,0.0,-3.0324,-3.18,-3.18,-3.18,-3.18,-3.18,-3.18,-3.1781,-3.1634,-3.1615,-3.1523,-3.1179,-3.1004,-3.0845,-3.0543,-3.0543,-3.0645,-3.0767,-3.2027,0.0,0.0,0.0,0.0,-4.0013,0.0,0.0,0.0,-4.2308,-4.2308,-4.2308,-4.2308,-4.2308,-4.2308,-4.2308,-4.2308,-4.2308,-4.2308,-4.2308,-4.2308,-4.2308,-4.2308,-4.2308,-4.2308,-4.2308,-4.2308,-4.2308,-4.2308,-4.2308,-4.2308,-4.2308,0.0,-4.2308,-4.2308,-4.2308,-4.2308,-4.2308,-4.2308,-4.2308,-4.2308,-4.2308,0.0,0.0,0.0,0.0,0.0,0.0,0.0,-1.5131,-1.5266,-1.5591,-1.5635,-1.5802,-1.6188,-1.6522,-1.671,-1.6731,-1.7018,0.0,0.0,0.0,0.0,0.0,0.0,-1.7902,-1.7902,-1.8352,-1.8586,-1.8643,-1.9155,-1.9561,-1.9885,-2.0501,-2.097,-2.1308,-2.1971,-2.2298,-2.2428,-2.3086,-2.3363,-2.3425,-2.4056,-2.4302,0.0,0.0,0.0,0.0,0.0,0.0,0.0,0.0,0.0,0.0,0.0,0.0,0.0,0.0,0.0,0.0,0.0,-3.1744,-3.1746,-3.1746,-3.1763,-3.1653,-3.1334,-3.1257,0.0,-3.0845,-3.0522,-3.0414,-3.0723,-3.0502,-3.0431,-3.0831,-3.206,0.0,0.0,-3.6039,0.0,0.0,-4.1604,0.0,-4.2225,-4.2267,-4.2287,-4.2308,-4.2287,-4.2287,-4.2308,-4.2308,-4.2287,-4.2267,-4.2287,-4.2308,-4.2308,-4.2308,-4.2308,-4.2308,-4.2308,-4.2308,-4.2308,-4.2308,-4.2308,0.0,-4.2308,-4.2308,-4.2308,-4.2308,-4.2308,-4.2308,-4.2308,-4.2308,-4.2308,-4.2308,-4.2308,-4.2308,0.0,0.0,0.0,0.0,0.0,0.0,0.0,0.0,0.0,0.0,-1.6057,-1.6197,-1.6531,-1.6659,-1.6808,0.0,0.0,0.0,0.0,0.0,0.0,0.0,-1.7902,-1.7902,-1.7902,-1.8149,-1.851,-1.8982,-1.9266,-1.9795,-2.0564,-2.0724,-2.0944,-2.1243,-2.1712,-2.233,-2.3102,-2.3779,-2.4071,-2.4087,-2.4241,-2.4302,0.0,0.0,0.0,0.0,-2.4343,-2.4364,0.0,0.0,0.0,0.0,0.0,0.0,0.0,0.0,-2.8899,-3.0234,-3.0666,0.0,-3.1428,-3.1428,-3.1237,-3.1004,0.0,-3.0925,-3.0808,-3.0481,0.0,-3.0314,-3.0398,-3.0335,-3.0579,-3.1496,0.0,0.0,-3.4121,0.0,0.0,-4.1385,-4.174,-4.187,-4.198,-4.198,-4.2082,-4.2287,-4.2103,-4.2082,-4.2287,-4.2308,-4.2205,-4.1998,-4.2187,-4.2308,-4.2308,-4.2308,-4.2308,-4.2308,-4.2308,-4.2308,-4.2308,-4.2308,-4.2308,-4.2308,-4.2308,-4.2308,-4.2308,-4.2308,-4.2308,-4.2308,-4.2308,-4.2308,-4.2308,-4.2308,-4.2308,-4.2308,0.0,0.0,0.0,0.0,0.0,0.0,0.0,0.0,0.0,0.0,-1.6436,-1.6565,-1.6892,-1.6934,-1.6997,0.0,0.0,0.0,0.0,0.0,0.0,-1.7563,-1.7584,-1.7625,-1.7713,-1.8222,-1.8666,-1.91,-1.9601,-2.0189,-2.0816,-2.111,-2.1423,-2.173,-2.2248,-2.2881,-2.3554,-2.392,-2.4156,-2.4302,-2.4302,0.0,0.0,0.0,0.0,0.0,-2.4302,-2.4302,0.0,-2.4302,-2.4364,-2.4529,0.0,0.0,0.0,0.0,-2.878,-2.9897,-3.0234,-3.0625,-3.0945,-3.1044,-3.0925,-3.0747,-3.0605,0.0,0.0,0.0,0.0,0.0,0.0,0.0,0.0,0.0,-3.2984,0.0,0.0,0.0,-3.9837,-4.1246,-4.1503,-4.1635,0.0,-4.1762,-4.1827,-4.1973,-4.1849,-4.187,-4.2103,-4.2103,-4.2061,-4.1895,-4.204,-4.2103,-4.2103,-4.2246,-4.2308,-4.2308,-4.2308,-4.2308,-4.2308,-4.2308,-4.2308,-4.2308,-4.2308,-4.2308,-4.2308,-4.2308,-4.2308,-4.2308,-4.2308,-4.2308,-4.2308,-4.2308,-4.2308,-4.2308,0.0,0.0,0.0,0.0,0.0,0.0,0.0,0.0,0.0,0.0,0.0,0.0,0.0,0.0,0.0,0.0,0.0,0.0,0.0,0.0,-1.7238,-1.7329,-1.7342,-1.7413,-1.7601,-1.844,-1.9004,-1.927,-2.0088,-2.0641,-2.0976,-2.1571,-2.2069,-2.2479,-2.3046,-2.3501,-2.3882,-2.3882,-2.4051,-2.4302,-2.4302,0.0,0.0,0.0,0.0,0.0,0.0,0.0,0.0,-2.4302,-2.4302,-2.4425,-2.5081,0.0,0.0,0.0,0.0,0.0,-2.9876,-3.0128,-3.0398,-3.0642,-3.0683,-3.0601,-3.0309,0.0,0.0,0.0,0.0,0.0,0.0,-3.1156,0.0,0.0,0.0,0.0,-3.8257,-3.9232,-4.0066,-4.103,-4.1186,0.0,-4.1515,-4.1538,-4.156,-4.1604,-4.156,-4.1631,-4.1831,-4.1831,-4.1849,-4.1788,-4.1831,-4.1831,-4.1788,-4.2061,-4.2205,-4.2246,-4.2246,-4.2267,-4.2308,-4.2308,-4.2308,-4.2308,-4.2308,-4.2308,-4.2308,-4.2308,-4.2308,-4.2308,-4.2308,-4.2308,-4.2308,-4.2308,-4.2308,-4.2308,0.0,0.0,0.0,0.0,0.0,0.0,0.0,0.0,0.0,0.0,0.0,0.0,0.0,0.0,0.0,0.0,0.0,0.0,0.0,-1.7199,-1.7421,-1.7944,-1.7957,-1.7978,-1.8,-1.8808,-1.9498,-2.004,-2.0557,-2.1102,-2.1657,-2.1988,-2.2489,-2.315,-2.3253,-2.3646,-2.4219,-2.4219,-2.424,-2.4302,-2.4302,0.0,0.0,0.0,0.0,0.0,0.0,0.0,0.0,-2.4302,-2.4302,-2.4425,-2.5081,0.0,0.0,0.0,0.0,0.0,-2.8858,-2.9332,-2.9805,-3.0075,-3.0087,-3.0017,-2.9968,0.0,0.0,0.0,0.0,0.0,0.0,-3.2029,-3.2583,0.0,0.0,-3.6715,0.0,0.0,-4.0014,-4.0855,0.0,-4.1232,-4.1255,-4.1255,-4.1363,-4.1582,-4.1386,-4.1368,-4.1648,-4.1648,-4.1542,-4.1305,-4.152,-4.1542,-4.1323,-4.1565,-4.1784,-4.1977,-4.1977,-4.2082,-4.2308,-4.2308,-4.2308,-4.2308,-4.2308,-4.2308,-4.2308,-4.2308,-4.2308,-4.2308,-4.2308,-4.2308,-4.2308,-4.2308,-4.2308,-4.2308,0.0,0.0,0.0,0.0,0.0,0.0,0.0,0.0,0.0,0.0,0.0,0.0,0.0,0.0,0.0,0.0,0.0,0.0,0.0,-1.7199,-1.7473,-1.8074,-1.8375,-1.8612,-1.8759,-1.9429,-1.997,-2.0355,-2.1041,-2.1531,-2.1793,-2.2067,-2.2379,-2.27,-2.27,-2.2979,-2.3465,-2.3674,-2.3846,-2.4051,0.0,0.0,0.0,0.0,0.0,0.0,0.0,0.0,0.0,0.0,-2.4302,-2.4487,-2.5512,0.0,0.0,0.0,0.0,0.0,-2.8501,-2.8826,-2.9219,-2.9667,-3.0097,-3.0405,-3.0405,0.0,0.0,0.0,0.0,0.0,0.0,0.0,-3.3683,-3.5623,0.0,-3.7957,-3.9032,-3.9853,-4.0498,0.0,0.0,-4.1041,-4.1041,-4.1041,-4.1088,-4.1221,-4.1105,-4.1134,-4.1386,-4.1386,-4.134,-4.1192,-4.1323,-4.1272,-4.1041,-4.1175,-4.1403,-4.174,-4.1849,-4.1913,-4.1931,-4.2019,-4.2082,-4.2082,-4.2082,-4.2184,-4.2308,-4.2308,-4.2308,-4.2308,-4.2308,-4.2308,-4.2308,-4.2308,-4.2308,-4.2308,0.0,0.0,0.0,0.0,0.0,0.0,0.0,0.0,0.0,0.0,0.0,0.0,0.0,0.0,0.0,0.0,0.0,0.0,0.0,-1.7329,-1.7669,-1.8257,-1.8819,-1.9212,-1.9423,-2.0016,-2.0428,-2.0627,-2.1336,-2.1769,-2.1902,-2.2114,-2.2194,-2.224,-2.2379,-2.2595,-2.2897,-2.3348,-2.3674,-2.3946,0.0,0.0,0.0,0.0,0.0,0.0,0.0,0.0,0.0,0.0,0.0,0.0,0.0,0.0,0.0,-2.8057,-2.8411,-2.8411,-2.8411,-2.8605,-2.8928,-2.9384,-3.0064,-3.0662,-3.0784,-3.0804,0.0,0.0,0.0,0.0,0.0,-3.3581,0.0,-3.7016,-3.7983,-3.8763,-3.9595,-4.0388,-4.0912,-4.0912,-4.0912,-4.0912,-4.0912,-4.0799,-4.0817,-4.0894,-4.0799,-4.0871,-4.1117,-4.1117,-4.1117,-4.1117,-4.1117,-4.1065,-4.0912,-4.0912,-4.1105,-4.1498,-4.1657,-4.1697,-4.1604,-4.1762,-4.1827,-4.1827,-4.1827,-4.1956,-4.2142,-4.2142,-4.2142,-4.2142,-4.2142,-4.2145,-4.2205,-4.2205,-4.2246,-4.2308,0.0,0.0,0.0,0.0,0.0,0.0,0.0,0.0,0.0,0.0,0.0,0.0,0.0,0.0,0.0,0.0,0.0,0.0,-1.7199,-1.7721,-1.8283,-1.8819,-1.942,-1.9734,-1.9771,-2.0358,-2.0758,-2.0955,-2.1275,-2.1688,-2.2184,-2.2184,-2.2226,-2.2328,-2.2934,-2.3282,-2.3384,-2.3973,-2.424,-2.4261,-2.4281,0.0,0.0,0.0,0.0,0.0,0.0,0.0,0.0,0.0,0.0,0.0,0.0,0.0,-2.7473,-2.8196,-2.8411,-2.8411,-2.8411,-2.8779,-2.9157,-2.9203,-2.9645,0.0,-3.0703,-3.0804,0.0,-3.175,0.0,0.0,0.0,-3.5146,-3.5929,-3.6803,-3.7603,-3.8504,-3.9549,0.0,-4.0912,-4.0912,-4.0912,-4.0912,-4.0912,-4.0558,-4.0502,-4.0871,-4.0558,-4.051,-4.0894,-4.0918,-4.0918,-4.0918,-4.0918,-4.0894,-4.0912,-4.0912,-4.1012,-4.1232,-4.1255,-4.1368,-4.1604,-4.1604,-4.1626,-4.1626,-4.1626,-4.1626,-4.1648,-4.1648,-4.1648,-4.1648,-4.1648,-4.1762,-4.1917,-4.1917,-4.2082,-4.2308,0.0,0.0,0.0,0.0,0.0,0.0,0.0,0.0,0.0,0.0,0.0,-1.7199,-1.7199,0.0,0.0,0.0,0.0,0.0,-1.7735,-1.797,-1.8506,-1.942,-1.9682,-1.9969,-2.0347,-2.0594,-2.0724,-2.0799,-2.1033,-2.135,-2.1712,-2.2044,-2.2123,-2.2016,-2.2586,-2.2904,-2.3009,-2.348,-2.3797,-2.4009,-2.4219,-2.4302,0.0,0.0,0.0,0.0,0.0,0.0,0.0,0.0,-2.541,-2.6103,-2.6795,-2.7196,-2.7534,-2.8211,-2.8411,-2.8411,-2.8411,-2.8803,-2.9219,-2.9219,-2.9761,0.0,0.0,-3.1261,-3.1783,-3.2426,-3.3048,0.0,0.0,0.0,-3.7158,-3.8101,-3.8732,-3.9422,-4.0319,-4.0722,-4.0912,-4.0912,-4.0912,-4.0799,-4.0534,-4.0404,-4.0238,-4.0112,-3.9961,-3.9935,-4.007,-4.037,-4.0395,-4.0112,-4.037,-4.051,-4.051,-4.051,-4.0704,-4.1018,-4.114,-4.1203,-4.1175,-4.1295,-4.1363,-4.1363,-4.1363,-4.1453,-4.1604,-4.1604,-4.1604,-4.1604,-4.1604,-4.1648,-4.1719,-4.1831,-4.1959,-4.2082,0.0,0.0,0.0,0.0,0.0,0.0,0.0,0.0,-1.7199,0.0,0.0,0.0,0.0,-1.7199,0.0,0.0,0.0,0.0,-1.831,-1.8532,-1.8989,-1.9773,-1.9969,-2.0281,-2.0699,-2.0699,-2.0724,-2.0799,-2.1008,-2.1229,-2.1423,-2.1864,-2.1996,-2.1817,-2.2379,-2.2655,-2.2717,-2.3238,-2.3603,-2.3824,-2.4177,-2.4302,0.0,0.0,0.0,0.0,0.0,0.0,0.0,0.0,-2.6118,-2.6795,-2.7257,-2.755,-2.7811,-2.8273,-2.8517,-2.8653,-2.8653,-2.8912,-2.9264,-2.9451,0.0,0.0,-3.1116,-3.1753,-3.2391,-3.3137,-3.4283,0.0,-3.5975,0.0,0.0,0.0,-3.9442,-3.9951,-4.0625,-4.0704,-4.0655,-4.0517,-4.0476,-4.0377,-4.0121,-3.9969,-3.9799,-3.9594,-3.948,-3.9454,-3.9594,-3.9885,-3.9927,-3.961,-3.991,-4.007,-4.007,-4.007,-4.0296,-4.0704,-4.0853,-4.0901,-4.0894,-4.1041,-4.1111,-4.1111,-4.1111,-4.1203,-4.138,-4.138,-4.138,-4.138,-4.138,-4.1426,-4.1498,-4.1635,-4.1723,-4.1827,0.0,0.0,0.0,0.0,0.0,0.0,0.0,0.0,-1.7199,-1.7199,-1.7199,0.0,0.0,0.0,0.0,0.0,0.0,0.0,-1.8872,-1.9473,-1.9799,-1.9812,-2.0373,-2.0699,-2.0699,-2.0699,-2.0799,-2.0997,-2.1253,-2.1399,-2.1399,-2.1688,-2.1793,-2.1817,-2.2434,-2.2694,-2.274,-2.348,-2.3797,-2.3824,-2.4156,-2.4297,-2.4317,0.0,0.0,0.0,0.0,0.0,0.0,0.0,-2.6864,-2.7411,-2.7411,-2.7873,-2.8411,-2.8411,-2.8779,-2.918,-2.918,-2.9219,-2.9361,0.0,0.0,0.0,-3.1667,-3.2263,-3.2721,-3.3879,-3.5925,-3.7386,-3.6979,-3.7837,0.0,-3.916,-3.9483,-3.9834,-4.0235,-4.0305,-4.0121,-3.9662,-3.961,-3.961,-3.9594,-3.9232,-3.9169,-3.9558,-3.9222,-3.9169,-3.9584,-3.9594,-3.9594,-3.9584,-3.9594,-3.9594,-3.9594,-3.9594,-3.9833,-4.0288,-4.0288,-4.0527,-4.0912,-4.0912,-4.0912,-4.0912,-4.0912,-4.0912,-4.0912,-4.0912,-4.0912,-4.0912,-4.0912,-4.1035,-4.1186,-4.1186,-4.1363,-4.1582,0.0,0.0,0.0,0.0,0.0,0.0,0.0,0.0,-1.7199,-1.7199,-1.7199,0.0,0.0,0.0,0.0,0.0,0.0,0.0,-1.9499,-1.9708,-1.9982,-2.0412,-2.0607,-2.0699,-2.0699,-2.0699,-2.0724,-2.0799,-2.0873,-2.0923,-2.0923,-2.166,-2.1827,-2.1568,-2.264,-2.3127,-2.3127,-2.326,-2.3631,-2.4166,-2.4425,-2.465,-2.4906,0.0,0.0,0.0,0.0,0.0,0.0,0.0,0.0,0.0,-2.8104,-2.8242,-2.8411,-2.8411,-2.8501,-2.8629,-2.8629,-2.9219,0.0,-2.9524,0.0,0.0,0.0,-3.2374,0.0,0.0,-3.6461,-3.7536,-3.7648,-3.8602,0.0,-3.9902,-4.0063,-4.0156,-4.0296,-4.002,-3.9756,-3.961,-3.961,-3.948,-3.9222,-3.9077,-3.8942,-3.8777,-3.8655,-3.8628,-3.875,-3.9007,-3.9034,-3.8777,-3.9034,-3.9195,-3.9195,-3.9195,-3.9391,-3.9808,-3.9808,-4.0204,-4.0912,-4.0912,-4.0912,-4.0912,-4.0912,-4.0912,-4.0912,-4.0912,-4.0912,-4.0871,-4.0583,-4.051,-4.0541,-4.0417,-4.04,-4.0546,0.0,0.0,0.0,0.0,0.0,0.0,-1.7199,-1.7199,-1.729,-1.7525,-1.7565,-1.7643,0.0,0.0,0.0,-1.8754,-1.9081,0.0,-2.0137,-2.0164,-2.0321,-2.0686,-2.0699,-2.0699,-2.0699,-2.0699,-2.0699,-2.0699,-2.0699,-2.0699,-2.0699,-2.1348,-2.1708,-2.1779,-2.2411,-2.3094,-2.3725,-2.3568,-2.3851,-2.4462,-2.5017,-2.5198,-2.5251,0.0,0.0,0.0,0.0,0.0,0.0,0.0,0.0,0.0,-2.8411,-2.8411,-2.8411,-2.8411,-2.8549,-2.8708,-2.8708,-2.9219,0.0,-2.9859,-3.0563,-3.1577,-3.2807,0.0,0.0,0.0,-3.7239,-3.8079,-3.8567,-3.9484,0.0,-4.0294,-4.0305,-4.0163,-3.9816,-3.954,-3.9312,-3.9152,-3.9125,-3.9034,-3.8794,-3.8766,-3.8655,-3.842,-3.8391,-3.8391,-3.8391,-3.8628,-3.8655,-3.8408,-3.8644,-3.8766,-3.8766,-3.8766,-3.8952,-3.9365,-3.9365,-3.9731,-4.0402,-4.0583,-4.0655,-4.0655,-4.084,-4.0912,-4.0912,-4.0912,-4.0912,-4.0847,-4.0478,-4.0305,-4.0263,-3.9944,-3.9825,-3.9902,0.0,0.0,-1.7199,-1.7199,0.0,0.0,-1.7277,-1.7316,-1.7552,-1.81,-1.8166,-1.8362,0.0,0.0,0.0,-1.976,-1.9852,-2.01,-2.0673,-2.0699,-2.0699,-2.0699,-2.0699,-2.0699,-2.0699,-2.0699,-2.0699,-2.0699,-2.0699,-2.0699,-2.0699,-2.0923,-2.1485,-2.2297,-2.209,-2.2875,-2.4382,-2.4259,-2.4383,-2.4722,-2.58,-2.5908,-2.5527,-2.6199,0.0,0.0,0.0,0.0,0.0,0.0,0.0,0.0,-2.8411,-2.8411,-2.8411,-2.8411,-2.8756,-2.9127,-2.9127,-2.9173,0.0,-3.0493,-3.1074,0.0,-3.4143,-3.5008,-3.5714,-3.7159,0.0,-3.8819,-3.956,-4.0377,-4.0752,-4.0379,-4.0263,-3.9944,-3.9131,-3.8969,-3.8821,-3.8448,-3.8391,-3.8391,-3.8391,-3.8391,-3.8391,-3.8391,-3.8391,-3.8391,-3.8391,-3.8391,-3.8391,-3.8391,-3.8391,-3.8391,-3.8391,-3.8391,-3.8572,-3.8942,-3.8942,-3.9142,-3.9506,-4.002,-4.0238,-4.0263,-4.0631,-4.0799,-4.0864,-4.0864,-4.0864,-4.0864,-4.0412,-4.0238,-4.0188,-3.9679,-3.9506,-3.9506,0.0,0.0,-1.7199,-1.7199,0.0,0.0,-1.7904,-1.827,-1.8584,-1.8715,-1.8728,-1.878,-1.8898,-1.9329,0.0,-1.9799,-2.0242,-2.0543,-2.0699,-2.0699,-2.0699,-2.0699,-2.0699,-2.0699,-2.0699,-2.0699,-2.0699,-2.0699,-2.0699,-2.0699,-2.0699,-2.1106,-2.1705,-2.2416,-2.3126,-2.3708,-2.4212,-2.491,-2.5127,-2.5067,-2.6099,-2.6555,-2.6717,-2.7367,-2.7777,0.0,0.0,0.0,0.0,0.0,0.0,0.0,-2.8411,-2.8411,-2.8411,-2.8411,-2.8493,-2.8573,-2.8573,-2.8881,0.0,0.0,-3.1194,-3.3161,-3.4713,-3.5604,-3.6255,-3.6903,-3.7865,-3.8819,-3.956,-4.0377,-4.0752,-4.0379,-3.9978,-3.9575,-3.9077,-3.8738,-3.8504,-3.8391,-3.8391,-3.8391,-3.8391,-3.8391,-3.8391,-3.8391,-3.8391,-3.8391,-3.8391,-3.8391,-3.8391,-3.8391,-3.8391,-3.8391,-3.8391,-3.8391,-3.8448,-3.8532,-3.8532,-3.8572,-3.8683,-3.9418,-3.974,-3.9756,-3.9842,-4.0104,-4.0412,-4.0412,-4.0624,-4.0823,-4.0062,-3.974,-3.9679,-3.8942,-3.8655,-3.8694,0.0,0.0,0.0,0.0,0.0,0.0,0.0,0.0,-1.9015,-1.9303,-1.9342,-1.9433,-1.9732,-2.0046,0.0,0.0,-2.0504,-2.0699,-2.0699,-2.0699,-2.0699,-2.0699,-2.0699,-2.0699,-2.0699,-2.0699,-2.0799,-2.1033,-2.0799,-2.0749,-2.0861,-2.1414,-2.2169,-2.3038,-2.3417,-2.4244,-2.5393,-2.5497,-2.5707,-2.6035,-2.6926,-2.7174,-2.7121,-2.7769,-2.8005,-2.8014,-2.8079,0.0,0.0,0.0,0.0,0.0,0.0,0.0,-2.8411,-2.8411,-2.8411,-2.8411,-2.8411,0.0,0.0,-3.0014,0.0,-3.3128,-3.4665,-3.5311,-3.5881,-3.6928,-3.7761,-3.8665,-3.9778,-4.0146,-4.0154,-3.9738,-3.9461,-3.9152,-3.8766,-3.8532,-3.8391,-3.8391,-3.8391,-3.8391,-3.8391,-3.8391,-3.8391,-3.8391,-3.8391,-3.8391,-3.8391,-3.8391,-3.8391,-3.8391,-3.8391,-3.8391,-3.8391,-3.8391,-3.8391,-3.8391,-3.8391,-3.8391,-3.842,-3.9034,-3.9401,-3.961,-3.961,-3.974,-3.9952,-3.9952,-4.0104,-4.0212,-3.9575,-3.9312,-3.9232,-3.8628,-3.8391,-3.842,0.0,0.0,0.0,0.0,0.0,0.0,0.0,0.0,0.0,-1.9891,-1.9956,-2.0164,-2.066,-2.0699,-2.0699,0.0,0.0,0.0,-2.0823,-2.0823,-2.0823,-2.0823,-2.0724,-2.0699,-2.0699,-2.0774,-2.0972,-2.1277,-2.1114,-2.1143,-2.1316,-2.1839,-2.2654,-2.37,-2.3698,-2.4734,-2.648,-2.6165,-2.6331,-2.6849,-2.76,-2.761,-2.7265,-2.7675,-2.779,-2.7675,-2.779,-2.7765,-2.77,-2.7815,0.0,0.0,0.0,0.0,-2.8339,-2.8339,-2.8348,-2.8372,-2.8372,0.0,-2.8874,-3.0909,-3.1725,0.0,-3.4317,-3.4719,-3.5238,-3.6977,-3.7629,-3.8367,-3.99,-3.9859,-3.9454,-3.9077,-3.8996,-3.886,-3.8448,-3.8391,-3.8391,-3.8391,-3.8391,-3.8391,-3.8391,-3.8391,-3.8391,-3.8391,-3.8391,-3.8391,-3.8391,-3.8391,-3.8391,-3.8391,-3.8391,-3.8391,-3.8391,-3.8391,-3.8391,-3.8391,-3.8391,-3.8391,-3.8391,-3.8738,-3.9088,-3.9401,-3.9401,-3.9428,-3.9506,-3.9506,-3.9532,-3.9558,-3.9169,-3.8996,-3.8942,-3.856,-3.8391,-3.8391,0.0,0.0,0.0,0.0,0.0,0.0,0.0,0.0,0.0,0.0,-2.0594,-2.062,-2.0699,-2.0699,-2.0699,-2.0699,-2.1057,-2.1302,-2.1302,0.0,0.0,-2.1302,-2.0923,-2.0699,-2.0699,-2.1106,-2.1131,-2.0799,-2.1876,-2.2482,-2.2556,-2.2415,-2.2823,-2.3771,-2.5095,-2.5545,-2.537,-2.7107,-2.7293,-2.6443,-2.7133,-2.7519,-2.7675,-2.7342,-2.7199,-2.7199,-2.7199,-2.7199,-2.7199,-2.7199,-2.7585,0.0,0.0,0.0,-2.8054,-2.8054,-2.8128,-2.8235,0.0,0.0,-2.8874,0.0,-3.1446,-3.2032,0.0,0.0,-3.4955,0.0,-3.7277,-3.7944,-3.942,-3.9636,-3.9454,-3.9077,-3.8996,-3.886,-3.8448,-3.8391,-3.8391,-3.8391,-3.8391,-3.8391,-3.8391,-3.8391,-3.8391,-3.8391,-3.8391,-3.8391,-3.8391,-3.8391,-3.8391,-3.8391,-3.8391,-3.8391,-3.8391,-3.8391,-3.8391,-3.8391,-3.8391,-3.8391,-3.8391,-3.8448,-3.8504,-3.8544,-3.8544,-3.8766,-3.9061,-3.9061,-3.9286,-3.9558,-3.9169,-3.8996,-3.8942,-3.856,-3.8391,-3.8391,0.0,0.0,0.0,0.0,0.0,0.0,0.0,0.0,0.0,0.0,0.0,-2.0699,-2.0699,-2.0923,-2.0997,-2.0724,-2.1131,-2.1302,-2.1008,-2.1253,-2.1399,-2.1399,-2.1444,-2.1348,-2.1106,-2.1302,-2.1537,-2.1812,-2.2294,-2.2924,-2.3713,-2.4149,-2.4623,-2.5095,-2.5357,-2.5881,-2.659,-2.6692,-2.6941,-2.7255,-2.7225,-2.7469,-2.7905,-2.7675,-2.76,-2.76,-2.7509,-2.7484,-2.7458,-2.7229,-2.7524,-2.7955,-2.7815,0.0,0.0,0.0,-2.8226,-2.821,-2.8299,-2.8348,-2.8793,0.0,-3.0826,-3.1328,-3.3137,0.0,-3.3986,-3.5458,-3.6176,-3.7062,-3.8914,-3.9088,-3.8871,-3.8683,-3.8655,-3.86,-3.842,-3.8391,-3.8391,-3.8391,-3.8391,-3.8391,-3.8391,-3.8391,-3.8391,-3.8391,-3.8391,-3.8391,-3.8391,-3.8391,-3.8391,-3.8391,-3.8391,-3.8391,-3.8391,-3.8391,-3.8391,-3.8391,-3.8391,-3.8391,-3.8391,-3.8391,-3.8391,-3.8391,-3.8391,-3.8504,-3.8655,-3.8655,-3.875,-3.8898,-3.8722,-3.8655,-3.8628,-3.8476,-3.8391,-3.8391,0.0,0.0,0.0,0.0,0.0,0.0,0.0,0.0,0.0,0.0,0.0,-2.0699,-2.0699,0.0,0.0,0.0,-2.1434,-2.1684,-2.1444,-2.166,-2.1779,-2.1779,-2.186,-2.1756,-2.1423,-2.1548,-2.1956,-2.263,-2.2807,-2.3539,-2.4792,-2.5303,-2.5908,-2.653,-2.6003,-2.627,-2.7034,-2.6508,-2.6785,-2.759,-2.724,-2.7458,-2.798,-2.7815,-2.7765,-2.7765,-2.765,-2.76,-2.7524,-2.7229,-2.7473,-2.7855,-2.765,-2.78,0.0,0.0,0.0,0.0,0.0,0.0,-2.8688,-2.9848,-3.0263,-3.0762,0.0,0.0,-3.3138,0.0,-3.5104,-3.6142,-3.8007,-3.8358,-3.8391,-3.8391,-3.8391,-3.8391,-3.8391,-3.8391,-3.8391,-3.8391,-3.8391,-3.8391,-3.8391,-3.8391,-3.8391,-3.8391,-3.8391,-3.8391,-3.8391,-3.8391,-3.8391,-3.8391,-3.8391,-3.8391,-3.8391,-3.8391,-3.8391,-3.8391,-3.8391,-3.8391,-3.8391,-3.8391,-3.8391,-3.8391,-3.8391,-3.8391,-3.8391,-3.8391,-3.8391,-3.8391,-3.8391,-3.8391,-3.8391,-3.8391,-3.8391,-3.8391,0.0,0.0,0.0,0.0,0.0,0.0,0.0,0.0,0.0,0.0,0.0,-2.0699,-2.0699,-2.1106,-2.1399,-2.1375,-2.2273,-2.3001,-2.3421,-2.3068,-2.2822,-2.2822,-2.1921,0.0,-2.1399,-2.1966,-2.2303,-2.2431,-2.3694,-2.4815,-2.5792,-2.4943,-2.5645,-2.754,-2.775,-2.6826,-2.5272,-2.7225,-2.7494,-2.6616,-2.6967,-2.7458,-2.793,-2.7367,-2.7148,-2.7148,-2.7148,-2.7045,-2.6927,-2.6927,-2.724,-2.7625,-2.76,-2.761,-2.7625,0.0,0.0,0.0,0.0,-2.8411,0.0,-2.9289,-2.9925,0.0,0.0,0.0,-3.2709,-3.3739,-3.4482,-3.5256,-3.6353,-3.7539,-3.8391,-3.8391,-3.8391,-3.8391,-3.8391,-3.8391,-3.8391,-3.8391,-3.8391,-3.8391,-3.8391,-3.8391,-3.8391,-3.8391,-3.8391,-3.8391,-3.8391,-3.8391,-3.8391,-3.8391,-3.8391,-3.8391,-3.8391,-3.8391,-3.8391,-3.8391,-3.8391,-3.8391,-3.8391,-3.8391,-3.8391,-3.8391,-3.8391,-3.8391,-3.8391,-3.8391,-3.8391,-3.8391,-3.8391,-3.8391,-3.8391,-3.8391,-3.8391,-3.8391,0.0,0.0,0.0,0.0,0.0,0.0,0.0,0.0,0.0,0.0,0.0,0.0,0.0,-2.1565,-2.1837,-2.1837,-2.2189,-2.2452,-2.2634,-2.3221,-2.3545,-2.3545,-2.3905,-2.3957,-2.3658,-2.3847,-2.3909,-2.38,-2.4857,-2.524,-2.5025,-2.6021,-2.6174,-2.5632,-2.6135,-2.6549,-2.693,-2.6956,-2.7214,-2.756,-2.7225,-2.7519,-2.8113,-2.7974,-2.7925,-2.7925,-2.7835,-2.7785,-2.7685,-2.7346,-2.7499,-2.779,-2.7539,-2.759,-2.774,-2.774,-2.7855,0.0,0.0,0.0,0.0,-2.9102,-2.9843,-3.0571,-3.1243,-3.1932,-3.2557,-3.3139,-3.3786,-3.4429,-3.4972,-3.6515,-3.7756,-3.7756,-3.7756,-3.7756,-3.7756,-3.7931,-3.8075,-3.8075,-3.8075,-3.816,-3.8363,-3.8205,-3.8177,-3.8363,-3.8391,-3.8391,-3.8391,-3.8391,-3.8391,-3.8391,-3.8391,-3.8391,-3.8391,-3.8391,-3.8391,-3.8391,-3.8391,-3.8391,-3.8391,-3.8391,-3.8391,-3.8391,-3.8391,-3.8391,-3.8391,-3.8391,-3.8391,-3.8391,-3.8391,-3.8391,-3.8391,-3.8391,-3.8391,-3.8391,0.0,0.0,0.0,0.0,0.0,-2.0848,-2.1326,-2.1131,-2.1033,-2.135,0.0,0.0,0.0,0.0,-2.288,-2.3234,-2.3281,-2.3281,-2.3281,-2.4028,-2.4473,-2.4473,-2.5056,-2.5221,-2.4907,-2.4712,-2.474,-2.5045,-2.5173,-2.538,-2.555,-2.6349,-2.6295,-2.555,-2.5755,-2.6188,-2.6837,-2.6852,-2.7137,-2.753,-2.7494,-2.7785,-2.8275,-2.8372,-2.8411,-2.8372,-2.8235,-2.8162,-2.8063,-2.768,-2.7665,-2.7831,-2.759,-2.7665,-2.7765,-2.7625,-2.7765,0.0,-2.8103,0.0,0.0,0.0,0.0,-3.0233,-3.0905,0.0,-3.2175,-3.2629,-3.3274,-3.378,-3.3959,-3.5347,-3.6566,-3.6993,-3.7259,-3.7417,-3.7417,-3.7594,-3.7725,-3.7725,-3.7725,-3.7828,-3.8033,-3.7857,-3.7828,-3.8062,-3.8062,-3.8119,-3.8234,-3.8119,-3.8119,-3.8234,-3.8335,-3.8391,-3.8391,-3.8391,-3.8391,-3.8391,-3.8391,-3.8391,-3.8391,-3.8391,-3.8391,-3.8391,-3.8391,-3.8391,-3.8391,-3.8391,-3.8391,-3.8391,-3.8391,-3.8391,-3.8391,-3.8391,-3.8391,-3.8391,0.0,0.0,-2.0699,-2.0724,-2.0737,-2.0924,-2.1402,-2.1488,-2.1502,-2.1488,0.0,0.0,0.0,0.0,0.0,-2.5506,-2.5615,-2.5615,-2.5615,-2.563,-2.563,-2.563,-2.5193,-2.4966,-2.4966,-2.4383,-2.4693,-2.5923,-2.4688,-2.5274,-2.7484,-2.5824,-2.5933,-2.7458,-2.6971,-2.5906,-2.4681,-2.6993,-2.7316,-2.6347,-2.767,-2.8259,-2.8372,-2.8387,-2.8411,-2.8372,-2.8235,-2.8128,-2.798,-2.7855,-2.774,-2.765,-2.7765,-2.779,-2.77,-2.724,-2.7509,-2.8005,0.0,0.0,0.0,0.0,0.0,0.0,-3.0217,0.0,-3.1567,-3.2228,-3.2906,-3.3367,-3.3367,-3.3981,-3.488,-3.6114,-3.6882,-3.7356,-3.7387,-3.7387,-3.7387,-3.7387,-3.7387,-3.7387,-3.7417,-3.7387,-3.7387,-3.7417,-3.7417,-3.7535,-3.7886,-3.7594,-3.7565,-3.7886,-3.8205,-3.8363,-3.8363,-3.8363,-3.8363,-3.8408,-3.8408,-3.8391,-3.8391,-3.8391,-3.8391,-3.8391,-3.8391,-3.8391,-3.8391,-3.8391,-3.8391,-3.8391,-3.8391,-3.8391,-3.8391,-3.8391,-3.8391,-3.8391,0.0,-2.0699,-2.0799,-2.1155,-2.1603,-2.2221,-2.3079,-2.3279,-2.3477,0.0,0.0,0.0,-2.4155,-2.4791,-2.5278,-2.5553,-2.5615,-2.5615,-2.5615,-2.6048,-2.6318,-2.6318,-2.6668,-2.6847,-2.6847,-2.625,-2.613,-2.6474,-2.6146,-2.5871,-2.5729,-2.6537,-2.6215,-2.5147,-2.6759,-2.6496,-2.4991,-2.6904,-2.7444,-2.7052,-2.7775,-2.7875,-2.7655,-2.821,-2.8411,-2.8411,-2.8348,-2.8323,-2.8275,-2.8137,-2.8048,-2.8014,-2.784,-2.774,-2.7549,-2.6982,-2.693,0.0,-2.6628,0.0,0.0,0.0,0.0,0.0,-2.9383,-3.0514,-3.1455,-3.1655,-3.2198,-3.2675,-3.2675,-3.3229,-3.3809,-3.4167,-3.5234,-3.618,-3.6677,-3.6953,-3.7105,-3.7105,-3.7105,-3.718,-3.7387,-3.721,-3.718,0.0,-3.7417,-3.7447,-3.7519,-3.7447,-3.7447,-3.7535,-3.7623,-3.7698,-3.7698,-3.7698,-3.7815,-3.8046,-3.8046,-3.8177,-3.8391,-3.8391,-3.8391,-3.8391,-3.8391,-3.8391,-3.8391,-3.8391,-3.8391,-3.8391,-3.8391,-3.8391,-3.8391,-3.8391,-3.8391,-3.8391,-2.1701,-2.1561,-2.1561,-2.2067,-2.2478,-2.3,-2.383,-2.4218,-2.456,0.0,0.0,0.0,-2.5589,-2.613,-2.6422,-2.6422,-2.6422,-2.6422,-2.6422,-2.6806,-2.7031,-2.7031,-2.7149,-2.7331,-2.76,-2.6744,-2.6419,-2.6709,-2.6419,-2.6079,-2.5729,-2.6747,-2.6628,-2.5605,-2.68,-2.6904,-2.619,-2.6917,-2.7348,-2.758,-2.7931,-2.8091,-2.8122,-2.8318,-2.8411,-2.8387,-2.8348,-2.8459,-2.8608,-2.8244,-2.8128,-2.7989,-2.7276,-2.7174,-2.7163,-2.6336,-2.6215,0.0,0.0,0.0,0.0,0.0,0.0,0.0,-2.9011,-3.011,-3.1067,-3.169,-3.2121,-3.2398,-3.2398,-3.2721,-3.3075,-3.3352,-3.4091,-3.486,-3.5553,-3.5842,-3.5962,-3.5962,-3.6211,-3.6442,-3.6591,-3.6721,-3.6862,-3.7013,-3.7013,-3.7013,-3.7013,-3.7268,-3.7358,-3.724,-3.7328,-3.7417,-3.7417,-3.7417,-3.7506,-3.7711,-3.7812,-3.8001,-3.8205,-3.8335,-3.8391,-3.8391,-3.8234,-3.8205,-3.8205,-3.8205,-3.8262,-3.8391,-3.8391,-3.8391,-3.8391,-3.8391,-3.8391,-3.8391,0.0,-2.2937,-2.2764,-2.3303,-2.3461,-2.3697,-2.421,-2.4821,-2.5199,0.0,-2.5617,-2.6145,-2.6742,-2.728,-2.76,-2.76,-2.76,-2.76,-2.76,-2.76,-2.76,-2.76,-2.71,-2.7049,-2.76,-2.6421,-2.6141,-2.6814,-2.6141,-2.6115,-2.6709,-2.6709,-2.6945,-2.7382,-2.7003,-2.7151,-2.7648,-2.7219,-2.7465,-2.8121,-2.8167,-2.8591,-2.9159,-2.8692,-2.8565,-2.8602,-2.8489,-2.8747,-2.9047,-2.8455,-2.8232,-2.7991,-2.6816,-2.6732,-2.6887,-2.58,-2.5758,0.0,0.0,0.0,0.0,-2.6224,-2.6669,0.0,-2.8894,-2.9711,-3.0548,-3.1854,-3.2262,-3.2312,-3.225,-3.2296,-3.257,-3.317,-3.3262,-3.3567,-3.4397,-3.4505,-3.4505,-3.4505,-3.5044,-3.5398,-3.5398,-3.5953,-3.6261,-3.6261,-3.6338,-3.6415,-3.6492,-3.7013,-3.7194,-3.6938,-3.718,-3.7298,-3.7298,-3.7298,-3.7328,-3.7358,-3.7653,-3.7828,-3.7857,-3.8148,-3.8307,-3.8278,-3.7972,-3.7857,-3.7857,-3.7857,-3.8046,-3.8335,-3.8408,-3.8391,-3.8391,-3.8391,-3.8391,-3.8391,-2.3904,-2.3842,-2.3957,-2.4461,-2.5016,-2.5524,-2.6012,-2.6644,-2.7086,-2.7086,-2.7165,-2.7284,-2.7418,-2.7524,-2.76,-2.76,-2.76,-2.76,-2.76,-2.76,-2.76,-2.76,-2.7499,-2.7484,-2.76,-2.6891,-2.6813,-2.7408,-2.6813,-2.6579,-2.6709,-2.6709,-2.651,-2.619,-2.7202,-2.738,-2.6999,-2.8544,-2.9298,-2.9357,-2.8402,-2.8538,-2.9259,-2.9215,-2.9525,-3.0002,-2.9976,-3.0043,-3.0094,-2.9852,-2.964,-2.9392,-2.9137,-2.8684,-2.8131,-2.7428,-2.6904,-2.6454,0.0,0.0,-2.5995,-2.6476,-2.6774,0.0,-2.8606,-2.9494,-3.0125,-3.0406,-3.132,-3.1898,-3.1366,-3.1701,-3.2168,-3.2402,-3.2446,-3.2931,-3.4306,-3.4505,-3.4505,-3.4505,-3.4628,-3.4705,-3.4705,-3.4813,-3.489,-3.489,-3.5398,-3.5953,-3.6461,-3.66,-3.6631,-3.6585,-3.6631,-3.6662,-3.6662,-3.6662,-3.6816,-3.709,-3.7135,-3.73,-3.7506,-3.7565,-3.761,-3.7594,-3.7535,-3.7506,-3.7506,-3.7506,-3.7711,-3.8001,-3.8307,-3.8391,-3.8391,-3.8391,-3.8391,-3.8391,-2.5326,-2.5145,-2.5119,-2.5702,-2.6079,-2.6385,-2.6615,-2.7199,-2.76,-2.76,-2.76,-2.772,-2.8053,-2.8109,-2.8244,-2.8573,-2.8603,-2.8603,-2.8603,-2.8289,-2.8109,-2.8109,-2.7484,-2.728,-2.76,-2.7023,-2.6695,-2.6707,-2.6695,-2.6537,-2.6256,-2.6563,-2.6922,-2.7307,-2.7654,-2.7784,-2.781,-2.8812,-2.9505,-2.9852,-2.9226,-2.9495,-3.0223,-2.9996,-3.0109,-3.0402,-3.0402,-3.0402,-3.0422,-3.0639,-3.0102,-2.9399,-2.9441,-2.8834,-2.8035,-2.7434,-2.7015,-2.6615,-2.5968,-2.5793,-2.5887,-2.6184,-2.6526,0.0,0.0,-2.8898,-2.9523,-2.9912,-3.0513,-3.0793,-3.0173,-3.0586,-3.1042,-3.1144,-3.1454,-3.2107,-3.3209,-3.3416,-3.3457,-3.3457,-3.3737,-3.3937,-3.3937,-3.4289,-3.4505,-3.4505,-3.4813,-3.5306,-3.5984,-3.5984,-3.6138,-3.6476,-3.6492,-3.6492,-3.6492,-3.6492,-3.6585,-3.6754,-3.6908,-3.706,-3.721,-3.7344,-3.7417,-3.7387,-3.727,-3.721,-3.721,-3.721,-3.73,-3.7478,-3.7786,-3.7988,-3.8148,-3.8148,-3.8262,-3.8391,-2.6774,-2.6469,-2.631,-2.6774,-2.6867,-2.6867,-2.6867,-2.7399,-2.7839,-2.7959,-2.7989,-2.8199,-2.8727,-2.8786,-2.9011,-2.9562,-2.9606,-2.9606,-2.9606,-2.9086,-2.8786,-2.8786,-2.7803,-2.7483,-2.7974,-2.7509,-2.7004,-2.6531,-2.6897,-2.6816,-2.634,-2.66,-2.744,-2.8757,-2.8176,-2.8234,-2.8755,-2.8996,-2.9446,-3.0001,-3.0146,-3.0691,-3.1359,-3.0806,-3.0663,-3.0771,-3.076,-3.076,-3.081,-3.1185,-3.0453,-2.9366,-2.952,-2.8799,-2.7786,-2.7421,-2.7138,-2.6823,-2.6269,-2.6119,-2.6119,-2.6119,-2.6484,-2.7058,0.0,0.0,0.0,-2.9572,0.0,0.0,0.0,0.0,0.0,-2.987,0.0,0.0,0.0,-3.1619,0.0,-3.2355,-3.2875,-3.3213,-3.3213,-3.3737,-3.415,-3.4289,-3.4305,-3.4597,-3.5275,-3.5444,-3.5737,-3.6276,-3.643,-3.6492,-3.6492,-3.6492,-3.6492,-3.6492,-3.6785,-3.6908,-3.6908,-3.7134,-3.7238,-3.7208,-3.6984,-3.6908,-3.6908,-3.6908,-3.6908,-3.6938,-3.7284,-3.7565,-3.7783,-3.7783,-3.8017,-3.8307,-2.7484,-2.7433,-2.7408,-2.7499,-2.7484,-2.7484,-2.7484,-2.8058,-2.8697,-2.9307,-2.9382,-2.9412,-2.9487,-2.9502,-2.9532,-2.9592,-2.9606,-2.9606,-2.9606,-2.9532,-2.9502,-2.9502,-2.9346,-2.9286,-2.9382,-2.9301,-2.9232,-2.9178,-2.8642,-2.8349,-2.8265,-2.7204,-2.7378,-2.8619,-2.8713,-2.8661,0.0,-2.9984,-3.0348,-3.0048,-3.0646,-3.1456,-3.217,-3.1536,-3.1659,-3.2167,-3.2045,-3.2005,-3.1964,-3.1775,-3.1245,-3.0676,-3.1084,-2.9914,-2.85,-2.9047,-2.8405,-2.749,-2.7348,-2.7307,-2.7307,-2.7307,-2.736,-2.7604,-2.8263,0.0,-2.8543,-2.8649,0.0,0.0,0.0,0.0,0.0,0.0,0.0,0.0,-2.8726,-2.9175,-3.0205,-3.2167,-3.2459,-3.2505,-3.2505,-3.2582,-3.2875,-3.3475,-3.3521,-3.3829,-3.4582,-3.5183,-3.5522,-3.5629,-3.6184,-3.6492,-3.6492,-3.6492,-3.6492,-3.6492,-3.6554,-3.6554,-3.6554,-3.6585,-3.66,-3.6616,-3.6585,-3.6554,-3.6554,-3.6554,-3.6554,-3.6616,-3.7178,-3.7417,-3.7476,-3.7476,-3.7682,-3.7943,-2.8274,-2.8173,-2.8319,-2.8693,-2.8768,-2.8768,-2.8768,-2.9007,-2.9265,-2.9577,-2.9606,-2.9714,-3.0073,-3.0118,-3.0283,-3.0687,-3.0688,-3.0688,-3.0688,-3.0342,-3.0118,-3.0118,-2.9774,-2.9606,-2.9606,-2.9606,-2.9429,-2.907,-2.8805,-2.8651,-2.8623,-2.7721,-2.7992,-2.9303,-2.9392,-2.9402,-2.9458,-3.0822,-3.1073,-3.0644,-3.1291,-3.2051,-3.271,-3.2189,-3.2398,-3.3044,-3.3402,-3.3512,-3.3527,-3.3398,-3.2512,-3.1555,-3.2168,-3.0826,-2.9091,-2.9421,-2.885,-2.8042,-2.7624,-2.749,-2.749,-2.749,-2.749,-2.7556,-2.7842,-2.7908,-2.7926,-2.7919,0.0,0.0,0.0,0.0,0.0,0.0,-2.7523,0.0,0.0,0.0,-2.9103,-3.0335,0.0,0.0,-3.2355,-3.2398,-3.2505,-3.2798,-3.2813,-3.3121,-3.3814,-3.4121,-3.4645,-3.5491,-3.5753,-3.6107,-3.6492,-3.6492,-3.6492,-3.6492,-3.6492,-3.6492,-3.6492,-3.6492,-3.6492,-3.6492,-3.6492,-3.6492,-3.6492,-3.6492,-3.6492,-3.6523,-3.6785,-3.6998,-3.7165,-3.7165,-3.7344,-3.7623,-2.9175,-2.8981,-2.9026,-2.9532,-2.9606,-2.9666,-2.9804,-2.9834,-2.9909,-3.0088,-3.0118,-3.0283,-3.0731,-3.0763,-3.0957,-3.1466,-3.1511,-3.1511,-3.1511,-3.1032,-3.0763,-3.0763,-3.0357,-3.0118,-3.0118,-3.0118,-2.9909,-2.9473,-2.9088,-2.893,-2.8901,-2.8035,-2.8272,-2.9443,-2.968,-2.9807,-2.995,-3.1058,-3.1292,-3.0999,-3.166,-3.246,-3.3225,-3.2966,-3.3231,-3.3767,-3.4246,-3.4372,-3.4283,-3.4179,-3.3117,-3.194,-3.2613,-3.1306,-2.9517,-2.9604,-2.9086,-2.8338,-2.7662,-2.749,-2.749,-2.749,-2.749,-2.749,-2.749,-2.749,-2.749,-2.749,-2.749,0.0,0.0,0.0,0.0,0.0,0.0,-2.6549,0.0,-2.7212,0.0,0.0,0.0,0.0,0.0,-3.1576,-3.1736,-3.2046,-3.216,-3.2474,-3.3106,-3.3306,-3.3952,-3.5198,-3.5414,-3.5814,-3.6476,-3.6492,-3.6492,-3.6492,-3.6492,-3.6492,-3.6492,-3.6492,-3.6492,-3.6492,-3.6492,-3.6492,-3.6492,-3.6492,-3.6492,-3.6492,-3.6492,-3.6554,-3.6647,-3.6647,-3.6907,-3.7284,-3.0328,-2.9968,-2.9577,-2.9606,-2.9606,-2.9789,-3.0387,-3.0477,-3.0717,-3.1346,-3.1451,-3.1451,-3.1466,-3.1466,-3.1481,-3.1511,-3.1511,-3.1511,-3.1511,-3.1481,-3.1466,-3.1466,-3.1451,-3.1451,-3.1451,-3.1451,-3.1436,-3.1407,-3.0106,-2.9479,0.0,0.0,0.0,0.0,-2.9428,-2.9676,-2.9566,-3.045,-3.0807,-3.0851,-3.1482,-3.257,-3.3894,-3.4073,-3.4281,-3.4429,-3.4252,-3.4014,-3.3683,-3.3347,-3.2504,-3.1683,-3.2234,-3.1226,-2.9797,-2.9929,-2.9234,-2.8263,-2.768,-2.749,-2.749,-2.749,-2.749,-2.749,-2.749,-2.749,-2.749,-2.749,-2.749,-2.749,-2.7477,0.0,0.0,0.0,0.0,0.0,0.0,0.0,0.0,0.0,0.0,0.0,0.0,-2.9479,-3.0133,0.0,-3.1522,-3.1938,-3.2401,-3.3044,-3.3737,-3.452,-3.5167,-3.5814,-3.6476,-3.6492,-3.6492,-3.6492,-3.6492,-3.6492,-3.6492,-3.6492,-3.6492,-3.6492,-3.6492,-3.6492,-3.6492,-3.6492,-3.6492,-3.6492,-3.6492,-3.6195,-3.5752,-3.5752,-3.6274,-3.6938,-3.1122,-3.0987,-3.0853,-3.0853,-3.0853,-3.0913,-3.1122,-3.1152,-3.1241,-3.1466,-3.1511,-3.1675,-3.2108,-3.2153,-3.2333,-3.2796,-3.2826,-3.2647,-3.2183,-3.2153,-3.1959,-3.1525,-3.1511,-3.1511,-3.1511,-3.1511,-3.1511,-3.1511,-3.0614,-3.0178,0.0,0.0,0.0,0.0,0.0,-2.9331,-2.9766,-3.0494,-3.1294,-3.2139,-3.3151,-3.367,-3.3897,-3.4485,-3.476,-3.4881,-3.5262,-3.5321,-3.5197,-3.5102,-3.4064,-3.2914,-3.3129,-3.172,-3.0028,-3.0147,-2.9642,-2.8935,-2.8739,-2.8399,-2.8098,-2.8098,-2.7811,-2.749,-2.749,-2.749,-2.749,-2.749,-2.749,-2.749,-2.749,0.0,0.0,0.0,0.0,0.0,0.0,0.0,0.0,0.0,0.0,0.0,0.0,0.0,0.0,-3.0577,-3.1578,-3.2231,-3.2398,-3.2613,-3.3275,-3.4459,-3.472,-3.5383,-3.6476,-3.6492,-3.6492,-3.6492,-3.6148,-3.5958,-3.5958,-3.5958,-3.5958,-3.599,-3.6352,-3.6289,-3.5958,-3.5958,-3.5752,-3.5479,-3.5816,-3.564,-3.5219,-3.5591,-3.5655,-3.5576,-3.1511,-3.1511,-3.1511,-3.1511,-3.1511,-3.1511,-3.1511,-3.1705,-3.1854,-3.1854,-3.2049,-3.2392,-3.2826,-3.2856,-3.3036,-3.3455,-3.3499,-3.332,-3.2886,-3.2856,-3.2677,-3.2213,-3.1974,-3.1854,-3.1854,-3.1396,-3.1161,-3.1161,-3.0238,-2.978,0.0,0.0,0.0,0.0,0.0,-2.9062,-2.9749,-3.0665,-3.1663,-3.2736,-3.3995,-3.4465,-3.4451,-3.4975,-3.5085,-3.4973,-3.5121,-3.5073,-3.4894,-3.4894,-3.4225,-3.338,-3.3127,-3.2117,-3.0962,-3.0537,-3.0025,-2.9536,-2.9362,-2.9035,-2.8734,-2.8734,-2.8255,-2.7837,-2.7837,-2.7633,-2.749,-2.749,-2.749,-2.749,-2.749,0.0,0.0,0.0,0.0,0.0,0.0,-2.4347,-2.4083,-2.4083,-2.5202,0.0,0.0,0.0,-2.94,-3.0534,-3.1339,-3.1971,-3.2382,-3.2398,-3.3057,-3.4459,-3.4505,-3.5152,-3.6476,-3.6492,-3.6383,-3.6211,-3.5847,-3.5591,-3.5415,-3.5415,-3.5415,-3.5415,-3.5784,-3.572,-3.5415,-3.5415,-3.5219,-3.4942,-3.5285,-3.5088,-3.4677,-3.5219,-3.5088,-3.4643,-3.16,-3.16,-3.16,-3.16,-3.157,-3.1555,-3.1555,-3.2108,-3.2557,-3.2557,-3.3095,-3.3499,-3.3544,-3.3544,-3.3559,-3.3589,-3.3589,-3.3574,-3.3544,-3.3544,-3.3529,-3.3499,-3.2901,-3.2557,-3.2557,-3.1278,-3.0568,-3.0538,-2.9202,0.0,0.0,0.0,0.0,0.0,-2.8157,0.0,-2.962,-3.0914,-3.1864,-3.2601,-3.3931,-3.481,-3.5326,-3.5326,-3.5085,-3.4662,-3.3993,-3.3408,-3.2967,-3.2932,-3.3066,-3.3094,-3.2345,-3.2345,-3.2379,-3.1106,-3.0454,-3.0022,-2.951,-2.9375,-2.9327,-2.9327,-2.8904,-2.8459,-2.8459,-2.7981,-2.7529,-2.7529,-2.7516,-2.749,-2.749,-2.749,0.0,0.0,0.0,0.0,0.0,0.0,-2.4083,-2.4083,-2.4083,-2.4813,0.0,-2.6699,-2.7826,-3.082,-3.0851,-3.1228,-3.2339,-3.2342,-3.2957,-3.4383,-3.4415,-3.5046,-3.6352,-3.6414,-3.6148,-3.5655,-3.5608,-3.535,-3.4843,-3.4843,-3.4843,-3.4843,-3.4876,-3.4876,-3.4843,-3.4843,-3.4843,-3.481,-3.4843,-3.4543,-3.4172,-3.4643,-3.4491,-3.4153,-3.2991,-3.2991,-3.2991,-3.2991,-3.2557,-3.2228,-3.2228,-3.2826,-3.3245,-3.3245,-3.338,-3.3679,-3.4204,-3.4249,-3.4427,-3.4936,-3.4996,-3.4771,-3.4294,-3.4249,-3.4008,-3.3514,-3.3335,-3.3245,-3.3245,-3.2407,-3.1751,-3.1251,-2.9899,0.0,-2.8481,0.0,0.0,0.0,0.0,-2.8679,-3.0256,-3.0616,-3.1368,-3.2406,-3.3794,-3.3796,-3.2967,-3.2967,-3.2897,-3.2953,-3.3822,-3.4061,-3.3871,-3.3318,-3.2791,-3.2376,-3.216,-3.1786,-3.1381,-3.1014,-3.0839,-3.0738,-3.0581,-3.0241,-2.9879,-2.9879,-2.9483,-2.9087,-2.9087,-2.8582,-2.8164,-2.8164,-2.7824,-2.749,-2.749,-2.749,-2.7438,0.0,0.0,0.0,0.0,-2.4083,-2.4083,-2.4083,-2.4083,-2.4318,-2.48,-2.6675,-2.8182,-2.8986,-3.0305,-3.147,-3.2355,-3.1507,-3.1663,-3.3136,-3.3321,-3.3796,-3.4618,-3.5078,-3.5252,-3.5106,-3.471,-3.4442,-3.4308,-3.4308,-3.4308,-3.4341,-3.4743,-3.4677,-3.4308,-3.4308,-3.4051,-3.3736,-3.4153,-3.4206,-3.4085,-3.3805,-3.3612,-3.3542,-3.3499,-3.3499,-3.3499,-3.3499,-3.3425,-3.3275,-3.2991,-3.3499,-3.3918,-3.3918,-3.4188,-3.4517,-3.4891,-3.4921,-3.5085,-3.5474,-3.5504,-3.534,-3.4951,-3.4921,-3.4756,-3.4397,-3.4083,-3.3918,-3.3918,-3.297,-3.2152,-3.1478,-3.0125,-2.914,-2.8445,0.0,0.0,0.0,0.0,-2.8685,-3.0086,-3.0876,-3.1775,-3.2701,-3.3488,-3.3304,0.0,-3.2577,-3.2577,-3.2648,-3.3164,-3.3129,-3.2791,-3.2376,-3.216,-3.2051,-3.17,-3.1566,-3.1431,-3.1086,-3.0986,-3.0986,-3.0986,-3.0751,-3.0503,-3.0503,-3.0072,-2.9653,-2.9653,-2.9196,-2.8778,-2.8778,-2.8307,-2.7902,-2.7902,-2.7659,-2.7411,0.0,0.0,0.0,-2.4648,-2.4491,-2.44,-2.4122,-2.4083,-2.4083,-2.4083,-2.6024,-2.7584,-2.8254,-2.9493,-3.0498,-3.1142,-3.0734,-3.1217,-3.2781,-3.2939,-3.3465,-3.4363,-3.4732,-3.4776,-3.4543,-3.424,-3.3982,-3.377,-3.377,-3.377,-3.377,-3.4065,-3.4031,-3.377,-3.377,-3.3577,-3.3312,-3.3632,-3.377,-3.3701,-3.3417,-3.329,-3.329,-3.3754,-3.3754,-3.3754,-3.3754,-3.4233,-3.4412,-3.3844,-3.4247,-3.4638,-3.4638,-3.513,-3.5504,-3.5504,-3.5504,-3.5504,-3.5504,-3.5504,-3.5504,-3.5504,-3.5504,-3.5504,-3.5504,-3.4936,-3.4638,-3.4638,-3.3402,-3.2349,-3.1532,-3.0323,-2.9316,-2.8525,0.0,0.0,0.0,0.0,0.0,0.0,-3.1562,-3.2632,-3.3073,-3.3073,-3.3017,-3.2911,-3.2911,-3.2911,-3.284,-3.2196,-3.1603,-3.1123,-3.1011,-3.1431,-3.1846,-3.1185,-3.1431,-3.1846,-3.1185,-3.0986,-3.0986,-3.0986,-3.0986,-3.0986,-3.0986,-3.062,-3.0218,-3.0218,-2.981,-2.9392,-2.9392,-2.8922,-2.8499,-2.8399,-2.7915,-2.7307,0.0,0.0,-2.634,-2.5267,-2.511,-2.49,-2.4295,-2.423,0.0,-2.4096,-2.526,-2.6589,-2.7911,-2.8537,-2.9039,-2.9523,-2.9953,-3.0939,-3.2581,-3.265,-3.3232,-3.4478,-3.4566,-3.4409,-3.3982,-3.3982,-3.377,-3.329,-3.329,-3.329,-3.329,-3.329,-3.329,-3.329,-3.329,-3.329,-3.329,-3.329,-3.329,-3.329,-3.329,-3.329,-3.329,-3.516,-3.516,-3.516,-3.516,-3.525,-3.5295,-3.5175,-3.525,-3.5325,-3.5325,-3.5429,-3.5504,-3.5504,-3.5504,-3.5504,-3.5504,-3.5504,-3.5504,-3.5504,-3.5504,-3.5504,-3.5504,-3.5385,-3.5325,-3.5325,-3.4541,-3.353,-3.2213,-3.1461,-3.0412,-2.9153,0.0,0.0,0.0,0.0,0.0,-3.0969,-3.2403,-3.2729,-3.229,-3.229,-3.1919,-3.1371,-3.1371,-3.1371,-3.1371,-3.1222,-3.1492,-3.1809,-3.1198,-3.1099,-3.1161,-3.1061,-3.1086,-3.1161,-3.1061,-3.0986,-3.0986,-3.0986,-3.0986,-3.0986,-3.0986,-3.0908,-3.083,-3.083,-3.0398,-2.9944,-2.9944,-2.9523,-2.9009,-2.8499,-2.7915,-2.7307,-2.6798,-2.6706,-2.647,-2.5772,-2.5667,-2.5458,-2.4913,-2.4848,-2.4635,-2.4164,-2.5347,-2.6293,-2.6563,-2.7499,-2.8426,-2.9158,-2.8761,-2.915,-3.0558,-3.0757,-3.1328,-3.2311,-3.2828,-3.3199,-3.3437,-3.3437,-3.3382,-3.329,-3.329,-3.329,-3.329,-3.329,-3.329,-3.329,-3.329,-3.329,-3.329,-3.329,-3.329,-3.329,-3.329,-3.329,-3.329,-3.5504,-3.5504,-3.5504,-3.5504,-3.5504,-3.5504,-3.5504,-3.5504,-3.5504,-3.5504,-3.5504,-3.5504,-3.5504,-3.5504,-3.5504,-3.5504,-3.5504,-3.5504,-3.5504,-3.5504,-3.5504,-3.5504,-3.5504,-3.5504,-3.5504,-3.5175,-3.4481,-3.3393,-3.2396,-3.1357,-3.0272,-2.9618,0.0,-2.9287,0.0,-3.0237,0.0,-3.1775,-3.1859,-3.1529,-3.1529,-3.1334,-3.0986,-3.0986,-3.0986,-3.0986,-3.0986,-3.1222,-3.1468,-3.1123,-3.0986,-3.0986,-3.0986,-3.0986,-3.0986,-3.0986,-3.0986,-3.0986,-3.0986,-3.0986,-3.0986,-3.0986,-3.0986,-3.0986,-3.0986,-3.0777,-3.0581,-3.0581,-3.0124,-2.9457,-2.8543,-2.815,-2.7785,-2.721,-2.7118,-2.6922,-2.6347,-2.6269,-2.6046,-2.5471,-2.5406,-2.5184,-2.4609,-2.5196,-2.5579,-2.5579,-2.6635,-2.7512,-2.8074,-2.8106,-2.8764,-3.0231,-3.0358,-3.0889,-3.1943,-3.2231,-3.2503,-3.2696,-3.2909,-3.298,-3.3016,-3.3206,-3.329,-3.329,-3.329,-3.329,-3.329,-3.329,-3.329,-3.329,-3.329,-3.329,-3.329,-3.329,-3.329,-3.329,-3.5504,-3.5504,-3.5504,-3.5504,-3.5504,-3.5504,-3.5504,-3.5624,-3.5669,-3.5519,-3.5504,-3.5549,-3.5699,-3.5714,-3.5774,-3.5893,-3.5789,-3.5714,-3.5714,-3.5579,-3.5504,-3.5504,-3.5504,-3.5504,-3.5504,-3.5504,-3.51,-3.4312,-3.3146,-3.2152,-3.1382,-3.0219,0.0,0.0,0.0,-3.0568,-3.0986,-3.0986,-3.0986,-3.0986,-3.0986,-3.0986,-3.0986,-3.0986,-3.0986,-3.0986,-3.0986,-3.0986,-3.0986,-3.0986,-3.0986,-3.0986,-3.0986,-3.0986,-3.0986,-3.0986,-3.0986,-3.0986,-3.0986,-3.0986,-3.0986,-3.0986,-3.0986,-3.0986,-3.0986,-3.0986,-3.0986,-3.0986,-3.0529,-2.9813,-2.8922,-2.8543,-2.8229,-2.7785,-2.7568,-2.7333,-2.6922,-2.6857,-2.6648,-2.6073,-2.6007,-2.5772,-2.521,-2.5175,-2.5227,-2.5345,-2.6078,-2.6671,-2.7065,-2.7649,-2.8645,-3.0117,-3.0158,-3.0759,-3.1969,-3.1982,-3.2019,-3.2092,-3.2417,-3.2561,-3.2596,-3.298,-3.3171,-3.3171,-3.3241,-3.329,-3.329,-3.329,-3.329,-3.329,-3.329,-3.329,-3.329,-3.329,-3.329,-3.3304,-3.5504,-3.5504,-3.5504,-3.5504,-3.5504,-3.5504,-3.5504,-3.6013,-3.6178,-3.5579,-3.5504,-3.5729,-3.6327,-3.6402,-3.6626,-3.718,-3.6716,-3.6402,-3.6402,-3.5833,-3.5504,-3.5504,-3.5504,-3.5504,-3.5504,-3.5504,-3.51,-3.4312,-3.3504,-3.2743,-3.1992,-3.1225,-3.083,-3.083,-3.0882,-3.0934,-3.0986,-3.0986,-3.0986,-3.0986,-3.0986,-3.0986,-3.0986,-3.0986,-3.0986,-3.0986,-3.0986,-3.0986,-3.0986,-3.0986,-3.0986,-3.0986,-3.0986,-3.0986,-3.0986,-3.0986,-3.0986,-3.0986,-3.0986,-3.0986,-3.0986,-3.0986,-3.0986,-3.0986,-3.0986,-3.0986,-3.0986,-3.0986,-3.0529,-3.0061,-2.9957,-2.9104,-2.8394,-2.8307,-2.7863,-2.7477,-2.7425,-2.7425,-2.7236,-2.6693,-2.6627,-2.6373,-2.5767,-2.5715,-2.5955,-2.651,-2.6138,-2.6125,-2.6712,-2.7256,-2.8127,-2.9341,-2.9416,-3.0134,-3.1616,-3.1666,-3.1813,-3.2092,-3.2128,-3.2164,-3.2164,-3.2561,-3.2775,-3.2775,-3.3122,-3.329,-3.329,-3.329,-3.329,-3.329,-3.329,-3.329,-3.329,-3.329,-3.329,-3.3361,-3.5504,-3.5504,-3.5624,-3.6028,-3.6088,-3.6222,-3.6596,-3.6866,-3.6941,-3.6686,-3.6641,-3.6746,-3.7015,-3.7045,-3.715,-3.7389,-3.718,-3.7045,-3.7045,-3.6791,-3.6492,-3.6118,-3.6088,-3.5908,-3.5519,-3.5504,-3.51,-3.4312,-3.3561,-3.2826,-3.2074,-3.1371,-3.0986,-3.0986,-3.0986,-3.0986,-3.0986,-3.0986,-3.0986,-3.0986,-3.0986,-3.0986,-3.0986,-3.0986,-3.0986,-3.0986,-3.0986,-3.0986,-3.0986,-3.0986,-3.0986,-3.0986,-3.0986,-3.0986,-3.0986,-3.0986,-3.0986,-3.0986,-3.0986,-3.0986,-3.0986,-3.0986,-3.0986,-3.0986,-3.0986,-3.0986,-3.0986,-3.0986,-3.0803,-3.0542,-3.0166,-2.9709,-2.9314,-2.8974,-2.8425,-2.8033,-2.8033,-2.7745,-2.7411,-2.721,-2.7183,-2.6961,-2.6386,-2.6334,-2.6425,-2.6693,-2.6465,-2.6582,-2.7157,-2.7732,-2.8425,-2.9284,-2.9614,-3.0249,-3.1222,-3.1235,-3.131,-3.1445,-3.1666,-3.1813,-3.1813,-3.2164,-3.2345,-3.2345,-3.2789,-3.2931,-3.2966,-3.3206,-3.329,-3.329,-3.329,-3.329,-3.329,-3.329,-3.3515,-3.3866,-3.6073,-3.6073,-3.6207,-3.6671,-3.6761,-3.6911,-3.7345,-3.7569,-3.7704,-3.7704,-3.7883,-3.7913,-3.7719,-3.7704,-3.7778,-3.7973,-3.7823,-3.7704,-3.7704,-3.7524,-3.721,-3.6776,-3.6761,-3.6447,-3.5804,-3.5789,-3.5439,-3.4643,-3.3905,-3.3143,-3.2398,-3.1431,-3.0986,-3.0986,-3.0986,-3.0986,-3.0986,-3.0986,-3.0986,-3.0986,-3.0986,-3.0986,-3.0986,-3.0986,-3.0986,-3.0986,-3.0986,-3.0986,-3.0986,-3.0986,-3.0986,-3.0986,-3.0986,-3.0986,-3.0986,-3.0986,-3.0986,-3.0986,-3.0986,-3.0986,-3.0986,-3.0986,-3.0986,-3.0986,-3.0986,-3.0986,-3.0986,-3.0986,-3.0986,-3.0869,-3.0451,-3.0218,-2.997,-2.9601,-2.9039,-2.8582,-2.8399,-2.8033,-2.7686,-2.7516,-2.749,-2.7333,-2.6961,-2.6922,-2.6922,-2.6922,-2.7112,-2.7353,-2.7758,-2.8164,-2.8739,-2.951,-2.9879,-3.0375,-3.0973,-3.0986,-3.0986,-3.0986,-3.1272,-3.1421,-3.1445,-3.1776,-3.2019,-3.2128,-3.2417,-3.2525,-3.2561,-3.2838,-3.2945,-3.2945,-3.3086,-3.3122,-3.315,-3.3452,-3.3824,-3.4245,-3.7389,-3.7389,-3.7389,-3.7404,-3.7404,-3.7404,-3.7404,-3.7958,-3.8377,-3.8377,-3.8975,-3.9125,-3.8452,-3.8377,-3.8646,-3.9298,-3.8766,-3.8377,-3.8377,-3.7764,-3.7404,-3.7404,-3.7404,-3.7105,-3.6492,-3.6477,-3.6163,-3.5504,-3.4677,-3.3905,-3.3143,-3.169,-3.0986,-3.0986,-3.0986,-3.0986,-3.0986,-3.0986,-3.0986,-3.0986,-3.0986,-3.0986,-3.0986,-3.0986,-3.0986,-3.0986,-3.0986,-3.0986,-3.0986,-3.0986,-3.0986,-3.0986,-3.0986,-3.0986,-3.0986,-3.0986,-3.0986,-3.0986,-3.0986,-3.0986,-3.0986,-3.0986,-3.0986,-3.0986,-3.0986,-3.0986,-3.0986,-3.0986,-3.0986,-3.0986,-3.0973,-3.0516,-3.01,-3.0087,-2.964,-2.91,-2.8499,-2.8407,-2.8164,-2.7555,-2.749,-2.749,-2.749,-2.749,-2.749,-2.749,-2.8033,-2.8394,-2.8407,-2.842,-2.8922,-3.0048,-3.01,-3.0375,-3.0973,-3.0986,-3.0986,-3.0986,-3.0986,-3.1024,-3.1024,-3.1421,-3.1776,-3.2092,-3.2092,-3.2092,-3.2092,-3.2092,-3.2092,-3.2164,-3.2561,-3.2704,-3.2822,-3.3806,-3.4189,-3.4371,-3.7404,-3.7404,-3.7554,-3.8003,-3.8078,-3.8242,-3.8706,-3.8945,-3.9095,-3.9095,-3.929,-3.9298,-3.911,-3.9095,-3.9185,-3.9394,-3.9215,-3.9095,-3.9095,-3.8886,-3.8571,-3.8093,-3.8078,-3.7778,-3.7135,-3.712,-3.6762,-3.606,-3.5321,-3.4098,-3.2434,-3.1468,-3.0986,-3.0999,-3.1392,-3.1536,-3.1549,-3.198,-3.215,-3.215,-3.215,-3.215,-3.215,-3.215,-3.215,-3.215,-3.215,-3.215,-3.2084,-3.1692,-3.1536,-3.1496,-3.1104,-3.0986,-3.0986,-3.0986,-3.0986,-3.0986,-3.0986,-3.0986,-3.0986,-3.0986,-3.0986,-3.0986,-3.0986,-3.0986,-3.0986,-3.0986,-3.0986,-3.0986,-3.0986,-3.083,-3.0712,-3.0712,-3.0241,-2.9797,-2.9601,-2.9235,-2.8922,-2.8739,-2.8726,-2.8726,-2.8726,-2.8726,-2.8556,-2.8137,-2.866,-2.8852,-2.8433,-2.9144,-2.9709,-3.0087,-3.0516,-3.0803,-3.0986,-3.0986,-3.0986,-3.0986,-3.0986,-3.0986,-3.0986,-3.1123,-3.1235,-3.1384,-3.1629,-3.1776,-3.1776,-3.2019,-3.2092,-3.2092,-3.2237,-3.2554,-3.2936,-3.3252,-3.3892,-3.4673,-3.8167,-3.8167,-3.8287,-3.8706,-3.8781,-3.8931,-3.9349,-3.9388,-3.9388,-3.9388,-3.9388,-3.9388,-3.9388,-3.9388,-3.9388,-3.9388,-3.9388,-3.9388,-3.9388,-3.9388,-3.923,-3.8796,-3.8781,-3.8467,-3.7793,-3.7778,-3.7436,-3.6717,-3.6012,-3.4818,-3.3193,-3.2444,-3.1944,-3.164,-3.2006,-3.2124,-3.2137,-3.2542,-3.2685,-3.2685,-3.2685,-3.2685,-3.2685,-3.2685,-3.2685,-3.2685,-3.2685,-3.2685,-3.2633,-3.228,-3.2124,-3.2097,-3.1744,-3.1483,-3.1261,-3.1052,-3.0986,-3.0986,-3.0986,-3.0986,-3.0986,-3.0986,-3.0986,-3.0986,-3.0986,-3.0986,-3.0986,-3.0986,-3.0986,-3.0986,-3.0986,-3.0986,-3.0986,-3.0986,-3.0686,-3.0348,-3.0127,-2.9823,-2.9523,-2.9301,-2.931,-2.931,-2.931,-2.931,-2.9118,-2.8786,-2.9261,-2.9431,-2.9052,-2.9696,-3.0192,-3.0451,-3.079,-3.0986,-3.0986,-3.0986,-3.0986,-3.0986,-3.0986,-3.0986,-3.0986,-3.0986,-3.0986,-3.1024,-3.1272,-3.1384,-3.1384,-3.1593,-3.18,-3.1987,-3.2135,-3.2573,-3.3176,-3.3544,-3.4138,-3.4816,-3.9388,-3.9388,-3.9388,-3.9388,-3.9388,-3.9388,-3.9388,-3.9388,-3.9388,-3.9388,-3.9388,-3.9388,-3.9388,-3.9388,-3.9388,-3.9388,-3.9388,-3.9388,-3.9388,-3.9388,-3.9388,-3.9388,-3.9388,-3.9125,-3.8467,-3.8417,-3.8033,-3.7292,-3.6579,-3.5797,-3.4985,-3.4207,-3.3416,-3.2685,-3.2738,-3.2751,-3.2751,-3.279,-3.2816,-3.2816,-3.2816,-3.2816,-3.2816,-3.2816,-3.2816,-3.2816,-3.2816,-3.2816,-3.2803,-3.2764,-3.2751,-3.2751,-3.2698,-3.2319,-3.1745,-3.1209,-3.1013,-3.0986,-3.0986,-3.0986,-3.0986,-3.0986,-3.0986,-3.0986,-3.0986,-3.0986,-3.0986,-3.0986,-3.0986,-3.0986,-3.0986,-3.0986,-3.0986,-3.0986,-3.0986,-3.079,-3.0231,-3.0153,-2.9993,-2.947,-2.9428,-2.9428,-2.9428,-2.9428,-2.9415,-2.9375,-2.9876,-3.014,-3.01,-3.014,-3.0438,-3.096,-3.0986,-3.0986,-3.0986,-3.0986,-3.0986,-3.0986,-3.0986,-3.0986,-3.0986,-3.0986,-3.0986,-3.0986,-3.0986,-3.0986,-3.0986,-3.1026,-3.1365,-3.1849,-3.2246,-3.2784,-3.3435,-3.435,-3.4737,-3.4858,-3.9388,-3.9388,-3.9388,-3.9388,-3.9388,-3.9388,-3.9388,-3.9388,-3.9388,-3.9388,-3.9388,-3.9388,-3.9388,-3.9388,-3.9388,-3.9388,-3.9388,-3.9388,-3.9388,-3.9388,-3.9388,-3.9388,-3.9388,-3.9349,-3.9185,-3.8576,-3.7585,-3.6242,-3.5505,-3.4788,-3.4083,-3.3326,-3.287,-3.2712,-3.3169,-3.3378,-3.3404,-3.3809,-3.3992,-3.3992,-3.3992,-3.3992,-3.3992,-3.3992,-3.3992,-3.3992,-3.3992,-3.3992,-3.3927,-3.3522,-3.3378,-3.33,-3.2842,-3.2594,-3.2385,-3.1758,-3.1326,-3.0986,-3.0986,-3.0986,-3.0986,-3.0986,-3.0986,-3.0986,-3.0986,-3.0986,-3.0986,-3.0986,-3.0986,-3.0986,-3.0986,-3.0986,-3.0986,-3.0986,-3.0986,-3.0934,-3.0803,-3.079,-3.0738,-3.0594,-3.0581,-3.0581,-3.0581,-3.0581,-3.0398,-2.9931,-3.0464,-3.0594,-3.0113,-3.0555,-3.0843,-3.0986,-3.0986,-3.0986,-3.0986,-3.0986,-3.0986,-3.0986,-3.0986,-3.0986,-3.0986,-3.0986,-3.0986,-3.0986,-3.0986,-3.0986,-3.1013,-3.1457,-3.168,-3.185,-3.2398,-3.3014,-3.3566,-3.3818,-3.4121,-3.4504,-4.0307,-4.0307,-4.0307,-4.0307,-4.0307,-4.0307,-4.0307,-4.0307,-4.0307,-4.0307,-4.0307,-4.0307,-4.0307,-4.0307,-4.0187,-3.9888,-3.9589,-3.9388,-3.9388,-3.9388,-3.9388,-3.9388,-3.9388,-3.9388,-3.9388,-3.8612,-3.7586,-3.635,-3.5978,-3.5398,-3.4666,-3.4246,-3.386,-3.3483,-3.3809,-3.3966,-3.3979,-3.428,-3.4397,-3.4397,-3.4397,-3.4397,-3.4397,-3.4397,-3.4397,-3.4397,-3.4397,-3.4397,-3.4358,-3.4058,-3.3966,-3.3901,-3.3574,-3.33,-3.3038,-3.2725,-3.2045,-3.1378,-3.1378,-3.1182,-3.0986,-3.0986,-3.0986,-3.0986,-3.0986,-3.0986,-3.0986,-3.0986,-3.0986,-3.0986,-3.0986,-3.0986,-3.0986,-3.0986,-3.0986,-3.0986,-3.0986,-3.0986,-3.0986,-3.0986,-3.0986,-3.0986,-3.0986,-3.0986,-3.0856,-3.0555,-3.0803,-3.0856,-3.0542,-3.0817,-3.0986,-3.0986,-3.0986,-3.0986,-3.0986,-3.0986,-3.0986,-3.0986,-3.0986,-3.0986,-3.0986,-3.0986,-3.0986,-3.0999,-3.1261,-3.1378,-3.1418,-3.1993,-3.2346,-3.2672,-3.2986,-3.3456,-3.3966,-3.3966,-3.4149,-3.4397,-4.1422,-4.1422,-4.1422,-4.1422,-4.1422,-4.1422,-4.1422,-4.1422,-4.1422,-4.1422,-4.1422,-4.1422,-4.1422,-4.1422,-4.116,-4.0591,-4.0038,-3.9634,-3.9388,-3.9301,-3.9265,-3.9388,-3.9265,-3.9265,-3.9388,-3.8486,-3.7591,-3.6738,-3.6582,-3.6148,-3.5507,-3.5507,-3.5114,-3.4397,-3.4397,-3.4397,-3.4397,-3.4397,-3.4397,-3.4397,-3.4397,-3.4397,-3.4397,-3.4397,-3.4397,-3.4397,-3.4397,-3.4397,-3.4397,-3.4397,-3.4397,-3.4397,-3.4397,-3.4084,-3.3718,-3.3718,-3.2947,-3.2045,-3.1954,-3.1548,-3.1091,-3.1013,-3.0986,-3.0986,-3.0986,-3.0986,-3.0986,-3.0986,-3.0986,-3.0986,-3.0986,-3.0986,-3.0986,-3.0986,-3.0986,-3.0986,-3.0986,-3.0986,-3.0986,-3.0986,-3.0986,-3.0986,-3.0986,-3.0986,-3.0986,-3.0986,-3.0986,-3.0986,-3.0986,-3.0986,-3.0986,-3.0986,-3.0986,-3.0986,-3.0986,-3.0986,-3.0986,-3.0986,-3.0986,-3.0986,-3.0986,-3.1065,-3.1117,-3.1143,-3.168,-3.1941,-3.1967,-3.2594,-3.313,-3.36,-3.3679,-3.3992,-3.4397,-3.4397,-3.4397,-3.4397,-4.1422,-4.1422,-4.1422,-4.1422,-4.1422,-4.1422,-4.1422,-4.1422,-4.1422,-4.1422,-4.1422,-4.1422,-4.1422,-4.1422,-4.1339,-4.1235,-4.113,-4.0606,-3.9448,-3.8775,-3.8701,-3.9373,-3.8738,-3.8686,-3.9388,-3.7881,-3.6699,-3.5896,-3.5142,-3.4716,-3.4592,-3.4592,-3.4522,-3.4397,-3.4397,-3.4397,-3.4397,-3.4397,-3.4397,-3.4397,-3.4397,-3.4397,-3.4397,-3.4397,-3.4397,-3.4397,-3.4397,-3.4397,-3.4397,-3.4397,-3.4397,-3.4397,-3.4397,-3.4345,-3.428,-3.428,-3.3822,-3.3208,-3.2698,-3.2136,-3.1549,-3.1104,-3.0986,-3.0986,-3.0986,-3.0986,-3.0986,-3.0986,-3.0986,-3.0986,-3.0986,-3.0986,-3.0986,-3.0986,-3.0986,-3.0986,-3.0986,-3.0986,-3.0986,-3.0986,-3.0986,-3.0986,-3.0986,-3.0986,-3.0986,-3.0986,-3.0986,-3.0986,-3.0986,-3.0986,-3.0986,-3.0986,-3.0986,-3.0986,-3.0986,-3.0986,-3.0986,-3.0986,-3.0986,-3.0986,-3.0999,-3.1445,-3.1667,-3.1706,-3.2306,-3.2555,-3.2607,-3.3208,-3.3509,-3.3639,-3.4097,-3.4332,-3.4397,-3.4397,-3.4397,-3.4397,-4.2432,-4.2432,-4.2432,-4.2432,-4.2432,-4.2432,-4.2432,-4.2432,-4.2432,-4.2432,-4.2432,-4.2222,-4.1774,-4.2144,-4.2088,-4.1249,-4.1662,-4.1542,-4.0531,-3.9677,-3.9357,-3.97,-3.888,-3.8371,-3.8331,-3.85,-3.7718,-3.5923,-3.6007,-3.5809,-3.5312,-3.5312,-3.5312,-3.5312,-3.5312,-3.5312,-3.5312,-3.5312,-3.5312,-3.5312,-3.5312,-3.5312,-3.5286,-3.4986,-3.4881,-3.4842,-3.4515,-3.4397,-3.4397,-3.4397,-3.4397,-3.4397,-3.4397,-3.4397,-3.4397,-3.4397,-3.4018,-3.3456,-3.2855,-3.2502,-3.2241,-3.1967,-3.1679,-3.1444,-3.1444,-3.1209,-3.0986,-3.0986,-3.0986,-3.0986,-3.0986,-3.0986,-3.0986,-3.0986,-3.0986,-3.0986,-3.0986,-3.0986,-3.0986,-3.0986,-3.0986,-3.0986,-3.0986,-3.0986,-3.0986,-3.0986,-3.0986,-3.0986,-3.0986,-3.0986,-3.0986,-3.0986,-3.0986,-3.0986,-3.0986,-3.0986,-3.0986,-3.0986,-3.13,-3.1444,-3.147,-3.2045,-3.2293,-3.2333,-3.2921,-3.3169,-3.3221,-3.3796,-3.4018,-3.4058,-3.4293,-3.4397,-3.4397,-3.4397,-3.4397,-3.4397,-4.329,-4.329,-4.329,-4.329,-4.329,-4.329,-4.329,-4.329,-4.329,-4.329,-4.329,-4.2955,-4.2073,-4.2578,-4.2507,-4.1349,-4.1882,-4.2162,-4.1863,-4.0787,-4.0112,-4.0006,-3.9114,-3.8311,-3.7671,-3.8844,-3.8462,-3.6401,-3.6936,-3.6807,-3.6109,-3.6109,-3.6109,-3.6109,-3.6109,-3.6109,-3.6109,-3.6109,-3.6109,-3.6109,-3.6109,-3.6109,-3.6057,-3.5639,-3.5482,-3.543,-3.4959,-3.4711,-3.4607,-3.4607,-3.4515,-3.4397,-3.4397,-3.4397,-3.4397,-3.4397,-3.411,-3.3652,-3.3064,-3.2894,-3.2868,-3.2725,-3.2359,-3.2006,-3.2006,-3.1588,-3.1182,-3.1182,-3.1078,-3.0986,-3.0986,-3.0986,-3.0986,-3.0986,-3.0986,-3.0986,-3.0986,-3.0986,-3.0986,-3.0986,-3.0986,-3.0986,-3.0986,-3.0986,-3.0986,-3.0986,-3.0986,-3.0986,-3.0986,-3.0986,-3.0986,-3.0986,-3.0986,-3.0986,-3.0986,-3.1117,-3.1182,-3.1196,-3.1771,-3.2006,-3.2019,-3.2633,-3.2894,-3.2934,-3.3522,-3.3783,-3.3809,-3.4228,-3.4397,-3.4397,-3.4397,-3.4397,-3.4397,-3.4397,-3.4397,-3.4397,-4.329,-4.329,-4.329,-4.329,-4.329,-4.329,-4.329,-4.329,-4.329,-4.329,-4.329,-4.2955,-4.2073,-4.2073,-4.2058,-4.1932,-4.2,-4.2353,-4.3101,-4.1528,-4.0403,-4.001,-3.9114,-3.8558,-3.8517,-3.7923,-3.7516,-3.7317,-3.6575,-3.6184,-3.6109,-3.6109,-3.6109,-3.6109,-3.6109,-3.6109,-3.6109,-3.6109,-3.6109,-3.6109,-3.6109,-3.6109,-3.6109,-3.6057,-3.6044,-3.6044,-3.5992,-3.5652,-3.5234,-3.5234,-3.4855,-3.4397,-3.4397,-3.4397,-3.4397,-3.4397,-3.4371,-3.4214,-3.3679,-3.3522,-3.3391,-3.2829,-3.2659,-3.262,-3.262,-3.2189,-3.1745,-3.1745,-3.1352,-3.0986,-3.0986,-3.0986,-3.0986,-3.0986,-3.0986,-3.0986,-3.0986,-3.0986,-3.0986,-3.0986,-3.0986,-3.0986,-3.0986,-3.0986,-3.0986,-3.0986,-3.0986,-3.0986,-3.0986,-3.0986,-3.0986,-3.0986,-3.0986,-3.0986,-3.0986,-3.1471,-3.1745,-3.1745,-3.2359,-3.262,-3.2646,-3.3247,-3.3522,-3.3548,-3.411,-3.4332,-3.4345,-3.4384,-3.4397,-3.4397,-3.4397,-3.4397,-3.4397,-3.4397,-3.4397,-3.4397,-4.329,-4.329,-4.329,-4.329,-4.329,-4.329,-4.329,-4.329,-4.329,-4.329,-4.329,-4.2739,-4.1281,-4.1645,-4.1505,-4.0375,-4.0817,-4.1281,-4.1616,-4.0972,-4.0008,-3.876,-3.8892,-3.8719,-3.8161,-3.8949,-3.8833,-3.7714,-3.7914,-3.7736,-3.722,-3.722,-3.722,-3.722,-3.722,-3.722,-3.722,-3.722,-3.722,-3.722,-3.722,-3.722,-3.7181,-3.6802,-3.6658,-3.6619,-3.624,-3.5966,-3.5796,-3.5796,-3.5417,-3.4959,-3.4959,-3.4698,-3.4397,-3.4397,-3.4397,-3.4358,-3.4149,-3.4097,-3.4031,-3.3809,-3.3496,-3.3247,-3.3247,-3.279,-3.2372,-3.2372,-3.2202,-3.1927,-3.1588,-3.1522,-3.1405,-3.1039,-3.0986,-3.0986,-3.0986,-3.0986,-3.0986,-3.0986,-3.0986,-3.0986,-3.0986,-3.0986,-3.0986,-3.0986,-3.0986,-3.0986,-3.0986,-3.1326,-3.1522,-3.1522,-3.1862,-3.1875,-3.1522,-3.2084,-3.2372,-3.2385,-3.2973,-3.3247,-3.3273,-3.3835,-3.4097,-3.411,-3.4306,-3.4397,-3.4397,-3.4397,-3.4397,-3.4397,-3.4397,-3.4397,-3.4397,-3.4397,-3.4397,-3.4397,-4.329,-4.329,-4.329,-4.329,-4.329,-4.321,-4.2915,-4.3115,-4.321,-4.2915,-4.313,-4.2603,-4.0817,-4.1169,-4.0901,-3.9329,-3.9768,-4.0289,-4.0589,-4.0332,-3.9621,-3.8349,-3.8639,-3.8517,-3.79,-3.9131,-3.9118,-3.79,-3.8517,-3.8472,-3.79,-3.79,-3.79,-3.79,-3.79,-3.79,-3.79,-3.79,-3.79,-3.79,-3.79,-3.79,-3.7861,-3.7442,-3.7286,-3.7233,-3.6815,-3.6541,-3.6384,-3.6384,-3.6018,-3.5547,-3.5547,-3.5155,-3.4646,-3.445,-3.4397,-3.4397,-3.4397,-3.4397,-3.4397,-3.4397,-3.4123,-3.3849,-3.3849,-3.3391,-3.2973,-3.2973,-3.2829,-3.2568,-3.2137,-3.2071,-3.198,-3.1588,-3.1365,-3.1248,-3.1248,-3.1104,-3.0986,-3.0986,-3.0986,-3.0986,-3.0986,-3.0986,-3.0986,-3.0986,-3.0986,-3.1065,-3.1248,-3.1797,-3.2071,-3.2071,-3.2672,-3.279,-3.2359,-3.2777,-3.2973,-3.2986,-3.3561,-3.3849,-3.3862,-3.4228,-3.4397,-3.4397,-3.4397,-3.4397,-3.4397,-3.4397,-3.4397,-3.4397,-3.4397,-3.4397,-3.4397,-3.4397,-3.4397,-3.4397,-4.329,-4.329,-4.329,-4.329,-4.329,-4.301,-4.2114,-4.2739,-4.2955,-4.2114,-4.2739,-4.2603,-4.0774,-4.0603,-4.0202,-3.9285,-3.921,-3.9593,-4.0504,-3.9724,-3.921,-3.921,-3.8349,-3.79,-3.79,-3.79,-3.79,-3.79,-3.79,-3.79,-3.79,-3.79,-3.79,-3.79,-3.79,-3.79,-3.79,-3.79,-3.79,-3.79,-3.79,-3.79,-3.79,-3.79,-3.79,-3.79,-3.79,-3.7521,-3.7011,-3.7011,-3.6606,-3.6109,-3.6109,-3.573,-3.5195,-3.458,-3.441,-3.441,-3.441,-3.4397,-3.4397,-3.4397,-3.4397,-3.4397,-3.4397,-3.3979,-3.36,-3.36,-3.3117,-3.2698,-3.2698,-3.2698,-3.2698,-3.2685,-3.2215,-3.181,-3.181,-3.1352,-3.0999,-3.0999,-3.0999,-3.0999,-3.0999,-3.0999,-3.0999,-3.0999,-3.0999,-3.1248,-3.1784,-3.2385,-3.2698,-3.2698,-3.3287,-3.36,-3.36,-3.36,-3.36,-3.36,-3.4136,-3.4397,-3.4397,-3.4397,-3.4397,-3.4397,-3.4397,-3.4397,-3.4397,-3.4397,-3.4397,-3.4397,-3.4397,-3.4397,-3.4397,-3.4397,-3.4397,-3.4397,-4.329,-4.329,-4.329,-4.329,-4.329,-4.301,-4.2114,-4.2196,-4.2073,-4.1113,-4.1811,-4.1672,-3.9812,-4.0202,-3.997,-3.844,-3.8272,-3.8684,-3.9563,-3.8774,-3.8549,-3.9166,-3.8349,-3.79,-3.79,-3.79,-3.79,-3.79,-3.79,-3.79,-3.79,-3.79,-3.79,-3.79,-3.79,-3.79,-3.79,-3.79,-3.79,-3.79,-3.79,-3.79,-3.79,-3.79,-3.79,-3.79,-3.79,-3.7782,-3.7639,-3.7639,-3.7233,-3.6658,-3.624,-3.5992,-3.5822,-3.5652,-3.5325,-3.5025,-3.5025,-3.4724,-3.4397,-3.4397,-3.4397,-3.4397,-3.4397,-3.428,-3.4162,-3.4162,-3.4018,-3.377,-3.3391,-3.3326,-3.3182,-3.2764,-3.2555,-3.2437,-3.2437,-3.2293,-3.2176,-3.2176,-3.2176,-3.2176,-3.2176,-3.2176,-3.2176,-3.2176,-3.2176,-3.2254,-3.2424,-3.2999,-3.3326,-3.3326,-3.3862,-3.4162,-3.4162,-3.4162,-3.4162,-3.4162,-3.4319,-3.4397,-3.4397,-3.4397,-3.4397,-3.4397,-3.4397,-3.4397,-3.4397,-3.4397,-3.4397,-3.4397,-3.4397,-3.4397,-3.4397,-3.4397,-3.4397,-3.4397,-4.329,-4.329,-4.329,-4.329,-4.2996,-4.2482,-4.1589,-4.1463,-4.1113,-4.0159,-4.0859,-4.0859,-3.9373,-3.9724,-3.9445,-3.8024,-3.79,-3.8103,-3.8626,-3.8181,-3.8148,-3.8671,-3.8194,-3.79,-3.79,-3.79,-3.79,-3.79,-3.79,-3.79,-3.79,-3.79,-3.79,-3.79,-3.79,-3.79,-3.79,-3.79,-3.79,-3.79,-3.79,-3.79,-3.79,-3.79,-3.79,-3.79,-3.79,-3.79,-3.79,-3.79,-3.7665,-3.726,-3.6658,-3.6462,-3.641,-3.6175,-3.5874,-3.5626,-3.5626,-3.5195,-3.4763,-3.4763,-3.458,-3.4397,-3.4397,-3.4397,-3.4397,-3.4397,-3.4397,-3.4293,-3.3966,-3.3914,-3.3796,-3.343,-3.3182,-3.3051,-3.3051,-3.2842,-3.2685,-3.2685,-3.2685,-3.2685,-3.2685,-3.2685,-3.2685,-3.2685,-3.2921,-3.3051,-3.3051,-3.36,-3.3914,-3.3914,-3.4228,-3.4397,-3.4397,-3.4397,-3.4397,-3.4397,-3.4397,-3.4397,-3.4397,-3.4397,-3.4397,-3.4397,-3.4397,-3.4397,-3.4397,-3.4397,-3.4397,-3.4397,-3.4397,-3.4397,-3.4397,-3.4397,-3.4397,-3.4397,-4.329,-4.329,-4.329,-4.329,-4.2578,-4.1686,-4.0731,-4.0504,-4.0159,-3.921,-3.9899,-4.0116,-3.9166,-3.9166,-3.8836,-3.7992,-3.79,-3.79,-3.79,-3.79,-3.79,-3.79,-3.79,-3.79,-3.79,-3.79,-3.79,-3.79,-3.79,-3.79,-3.79,-3.79,-3.79,-3.79,-3.79,-3.79,-3.79,-3.79,-3.79,-3.79,-3.79,-3.79,-3.79,-3.79,-3.79,-3.79,-3.79,-3.79,-3.79,-3.79,-3.79,-3.7808,-3.726,-3.709,-3.6972,-3.6423,-3.6227,-3.6188,-3.6188,-3.5783,-3.5365,-3.5365,-3.4959,-3.4528,-3.4424,-3.4397,-3.4397,-3.4397,-3.4397,-3.4397,-3.4397,-3.4397,-3.4397,-3.4397,-3.3979,-3.3666,-3.3666,-3.3195,-3.2842,-3.2842,-3.2842,-3.2842,-3.2842,-3.2842,-3.2842,-3.2842,-3.3352,-3.3666,-3.3666,-3.4123,-3.4397,-3.4397,-3.4397,-3.4397,-3.4397,-3.4397,-3.4397,-3.4397,-3.4397,-3.4397,-3.4397,-3.4397,-3.4397,-3.4397,-3.4397,-3.4397,-3.4397,-3.4397,-3.4397,-3.4397,-3.4397,-3.4397,-3.4397,-3.4397,-3.4397,-3.4397,-4.329,-4.329,-4.329,-4.329,-4.2578,-4.1686,-4.0731,-3.9986,-3.9179,-3.8317,-3.897,-3.9179,-3.8272,-3.8792,-3.8836,-3.7992,-3.79,-3.79,-3.79,-3.79,-3.79,-3.79,-3.79,-3.79,-3.79,-3.79,-3.79,-3.79,-3.79,-3.79,-3.79,-3.79,-3.79,-3.79,-3.79,-3.79,-3.79,-3.79,-3.79,-3.79,-3.79,-3.79,-3.79,-3.79,-3.79,-3.79,-3.79,-3.79,-3.79,-3.79,-3.79,-3.7874,-3.7756,-3.7704,-3.7678,-3.7547,-3.7181,-3.6802,-3.6802,-3.6384,-3.5926,-3.5926,-3.5835,-3.5495,-3.4607,-3.4397,-3.4397,-3.4397,-3.4397,-3.4397,-3.4397,-3.4397,-3.4397,-3.4397,-3.4293,-3.4228,-3.4228,-3.411,-3.4031,-3.4031,-3.4031,-3.4031,-3.4031,-3.4031,-3.4031,-3.4031,-3.4149,-3.4228,-3.4228,-3.4332,-3.4397,-3.4397,-3.4397,-3.4397,-3.4397,-3.4397,-3.4397,-3.4397,-3.4397,-3.4397,-3.4397,-3.4397,-3.4397,-3.4397,-3.4397,-3.4397,-3.4397,-3.4397,-3.4397,-3.4397,-3.4397,-3.4397,-3.4397,-3.4397,-3.4397,-3.4397,-4.329,-4.329,-4.317,-4.2739,-4.1935,-4.1029,-4.0073,-3.9135,-3.844,-3.7946,-3.8317,-3.8395,-3.7946,-3.8317,-3.8395,-3.7946,-3.79,-3.79,-3.79,-3.79,-3.79,-3.79,-3.79,-3.79,-3.79,-3.79,-3.79,-3.79,-3.79,-3.79,-3.79,-3.79,-3.79,-3.79,-3.79,-3.79,-3.79,-3.79,-3.79,-3.79,-3.79,-3.79,-3.79,-3.79,-3.79,-3.79,-3.79,-3.79,-3.79,-3.79,-3.79,-3.79,-3.79,-3.79,-3.79,-3.79,-3.7678,-3.7429,-3.7429,-3.6998,-3.6541,-3.6541,-3.6319,-3.5874,-3.5012,-3.4829,-3.475,-3.4463,-3.4397,-3.4397,-3.4397,-3.4397,-3.4397,-3.4397,-3.4397,-3.4397,-3.4397,-3.4397,-3.4397,-3.4397,-3.4397,-3.4397,-3.4397,-3.4397,-3.4397,-3.4397,-3.4397,-3.4397,-3.4397,-3.4397,-3.4397,-3.4397,-3.4397,-3.4397,-3.4397,-3.4397,-3.4397,-3.4397,-3.4397,-3.4397,-3.4397,-3.4397,-3.4397,-3.4397,-3.4397,-3.4397,-3.4397,-3.4397,-3.4397,-3.4397,-3.4397,-3.4397,-3.4397,-3.4397,-3.4397,-3.4397,-4.309,-4.309,-4.2795,-4.1893,-4.0986,-4.0116,-3.9329,-3.8472,-3.79,-3.79,-3.79,-3.79,-3.79,-3.79,-3.79,-3.79,-3.79,-3.79,-3.79,-3.79,-3.79,-3.79,-3.79,-3.79,-3.79,-3.79,-3.79,-3.79,-3.79,-3.79,-3.79,-3.79,-3.79,-3.79,-3.79,-3.7952,-3.8044,-3.8044,-3.8109,-3.8187,-3.8187,-3.8135,-3.8044,-3.8044,-3.7978,-3.79,-3.79,-3.79,-3.79,-3.79,-3.79,-3.79,-3.79,-3.79,-3.79,-3.79,-3.79,-3.79,-3.79,-3.7534,-3.7155,-3.7155,-3.6776,-3.6266,-3.5717,-3.5508,-3.5299,-3.4789,-3.4685,-3.4659,-3.4567,-3.4554,-3.4515,-3.441,-3.4397,-3.4397,-3.4397,-3.4397,-3.4397,-3.4397,-3.4397,-3.4397,-3.4397,-3.4397,-3.4397,-3.4397,-3.4397,-3.4397,-3.4397,-3.4397,-3.4397,-3.4397,-3.4397,-3.4397,-3.4397,-3.4397,-3.4397,-3.4397,-3.4397,-3.4397,-3.4397,-3.4397,-3.4397,-3.4397,-3.4397,-3.4397,-3.4397,-3.4397,-3.4397,-3.4397,-3.4397,-3.4314,-3.423,-3.4092,-3.4134,-3.423,-4.2155,-4.2155,-4.1893,-4.0944,-4.0029,-3.9329,-3.9197,-3.8472,-3.79,-3.79,-3.79,-3.79,-3.79,-3.79,-3.79,-3.79,-3.79,-3.79,-3.79,-3.79,-3.79,-3.79,-3.79,-3.79,-3.79,-3.79,-3.79,-3.79,-3.79,-3.79,-3.79,-3.79,-3.79,-3.79,-3.79,-3.8161,-3.8606,-3.8606,-3.8893,-3.9377,-3.9377,-3.9076,-3.8606,-3.8606,-3.8305,-3.79,-3.79,-3.79,-3.79,-3.79,-3.79,-3.79,-3.79,-3.79,-3.79,-3.79,-3.79,-3.79,-3.79,-3.7848,-3.7782,-3.7782,-3.773,-3.7508,-3.6907,-3.6371,-3.5966,-3.5887,-3.5874,-3.573,-3.526,-3.5168,-3.4999,-3.4476,-3.4397,-3.4397,-3.4397,-3.4397,-3.4397,-3.4397,-3.4397,-3.4397,-3.4397,-3.4397,-3.4397,-3.4397,-3.4397,-3.4397,-3.4397,-3.4397,-3.4397,-3.4397,-3.4397,-3.4397,-3.4397,-3.4397,-3.4397,-3.4397,-3.4397,-3.4397,-3.4397,-3.4397,-3.4397,-3.4397,-3.4397,-3.4397,-3.4397,-3.4397,-3.4397,-3.4397,-3.4397,-3.4063,-3.3471,-3.2834,-3.2975,-3.3526,-4.1212,-4.1212,-4.0901,-3.9986,-3.9461,-3.9046,-3.8549,-3.8148,-3.79,-3.79,-3.79,-3.79,-3.79,-3.79,-3.79,-3.79,-3.79,-3.79,-3.79,-3.79,-3.79,-3.79,-3.79,-3.79,-3.79,-3.79,-3.79,-3.79,-3.79,-3.79,-3.79,-3.79,-3.807,-3.8357,-3.8357,-3.8671,-3.9207,-3.9207,-3.9364,-3.9612,-3.9612,-3.9455,-3.9207,-3.9207,-3.9063,-3.8815,-3.8475,-3.8161,-3.79,-3.79,-3.79,-3.79,-3.79,-3.79,-3.79,-3.79,-3.79,-3.79,-3.79,-3.79,-3.79,-3.79,-3.79,-3.7789,-3.7365,-3.7059,-3.6727,-3.6196,-3.6109,-3.6031,-3.5796,-3.5744,-3.5665,-3.5391,-3.4962,-3.4725,-3.4894,-3.4396,-3.405,-3.4189,-3.4243,-3.4272,-3.4397,-3.4397,-3.4397,-3.4397,-3.4397,-3.4397,-3.4397,-3.4397,-3.4397,-3.4397,-3.4021,-3.3852,-3.3852,-3.3852,-3.3852,-3.3852,-3.423,-3.4397,-3.4397,-3.4397,-3.4397,-3.4397,-3.4397,-3.4397,-3.4397,-3.4397,-3.4397,-3.4397,-3.4397,-3.3979,-3.3356,-3.3031,-3.2846,-3.2803]},{"header":{"parameterUnit":"m.s-1","parameterCategory":1,"la1":30.6,"la2":28.766,"lo1":-90.7593,"lo2":-88.6598,"dy":0.0162,"dx":0.0183,"nx":116,"ny":114,"refTime":"2024-04-30T12:00:00:Z","depth":0,"parameterNumber":3,"parameterNumberName":"V-component_of_WINDS"},"data":[0.0,0.0,0.0,0.0,0.0,0.0,0.0,0.0,0.0,0.0,0.0,0.0,0.0,0.0,0.0,0.0,0.0,0.0,0.0,0.0,0.0,0.0,0.0,0.0,0.0,0.0,0.0,0.0,0.0,0.0,0.0,0.0,0.0,0.0,0.0,0.0,0.0,0.0,0.0,0.0,0.0,0.0,0.0,0.0,0.0,0.0,0.0,0.0,0.0,0.0,0.0,0.0,0.0,0.0,0.0,0.0,0.0,0.0,0.0,0.0,0.0,0.0,0.0,0.0,0.0,0.0,0.0,0.0,0.0,0.0,0.0,0.0,0.0,0.0,0.0,0.0,0.0,0.0,0.0,0.0,0.0,0.0,0.0,0.0,0.0,0.0,0.0,0.0,0.0,0.0,0.0,0.0,0.0,0.0,0.0,0.0,0.0,0.0,0.0,0.0,0.0,0.0,0.0,0.0,0.0,0.0,0.0,0.0,0.0,0.0,0.0,0.0,0.0,0.0,0.0,0.0,0.0,0.0,0.0,0.0,0.0,0.0,0.0,0.0,0.0,0.0,0.0,0.0,0.0,0.0,0.0,0.0,0.0,0.0,0.0,0.0,0.0,0.0,0.0,0.0,0.0,0.0,0.0,0.0,0.0,0.0,0.0,0.0,0.0,0.0,0.0,0.0,0.0,0.0,0.0,0.0,0.0,0.0,0.0,0.0,0.0,0.0,0.0,0.0,0.0,0.0,0.0,0.0,0.0,0.0,0.0,0.0,0.0,0.0,0.0,0.0,0.0,0.0,0.0,0.0,0.0,0.0,0.0,0.0,0.0,0.0,0.0,0.0,0.0,0.0,0.0,0.0,0.0,0.0,0.0,0.0,0.0,0.0,0.0,0.0,0.0,0.0,0.0,0.0,0.0,0.0,0.0,0.0,0.0,0.0,0.0,0.0,0.0,0.0,0.0,0.0,0.0,0.0,0.0,0.0,0.0,0.0,0.0,0.0,0.0,0.0,0.0,0.0,0.0,0.0,0.0,0.0,0.0,0.0,0.0,0.0,0.0,0.0,0.0,0.0,0.0,0.0,0.0,0.0,0.0,0.0,0.0,0.0,0.0,0.0,0.0,0.0,0.0,0.0,0.0,0.0,0.0,0.0,0.0,0.0,0.0,0.0,0.0,0.0,0.0,0.0,0.0,0.0,0.0,0.0,0.0,0.0,0.0,0.0,0.0,0.0,0.0,0.0,0.0,0.0,0.0,0.0,0.0,0.0,0.0,0.0,0.0,0.0,0.0,0.0,0.0,0.0,0.0,0.0,0.0,0.0,0.0,0.0,0.0,0.0,0.0,0.0,0.0,0.0,0.0,0.0,0.0,0.0,0.0,0.0,0.0,0.0,0.0,0.0,0.0,0.0,0.0,0.0,0.0,0.0,0.0,0.0,0.0,0.0,0.0,0.0,0.0,0.0,0.0,0.0,0.0,0.0,0.0,0.0,0.0,0.0,0.0,0.0,0.0,0.0,0.0,0.0,0.0,0.0,0.0,0.0,0.0,0.0,0.0,0.0,0.0,0.0,0.0,0.0,0.0,0.0,0.0,0.0,0.0,0.0,0.0,0.0,0.0,0.0,0.0,0.0,0.0,0.0,0.0,0.0,0.0,0.0,0.0,0.0,0.0,0.0,0.0,0.0,0.0,0.0,0.0,0.0,0.0,0.0,0.0,0.0,0.0,0.0,0.0,0.0,0.0,0.0,0.0,0.0,0.0,0.0,0.0,0.0,0.0,0.0,0.0,0.0,0.0,0.0,0.0,0.0,0.0,0.0,0.0,0.0,0.0,0.0,0.0,0.0,0.0,0.0,0.0,0.0,0.0,0.0,0.0,0.0,0.0,0.0,0.0,0.0,0.0,0.0,0.0,0.0,0.0,0.0,0.0,0.0,0.0,0.0,0.0,0.0,0.0,0.0,0.0,0.0,0.0,0.0,0.0,0.0,0.0,0.0,0.0,0.0,0.0,0.0,0.0,0.0,0.0,0.0,0.0,0.0,0.0,0.0,0.0,0.0,0.0,0.0,0.0,0.0,0.0,0.0,0.0,0.0,0.0,0.0,0.0,0.0,0.0,0.0,0.0,0.0,0.0,0.0,0.0,0.0,0.0,0.0,0.0,0.0,0.0,0.0,0.0,0.0,0.0,0.0,0.0,0.0,0.0,0.0,0.0,0.0,0.0,0.0,0.0,0.0,0.0,0.0,0.0,0.0,0.0,0.0,0.0,0.0,0.0,0.0,0.0,0.0,0.0,0.0,0.0,0.0,0.0,0.0,0.0,0.0,0.0,0.0,0.0,0.0,0.0,0.0,0.0,0.0,0.0,0.0,0.0,0.0,0.0,0.0,0.0,0.0,0.0,0.0,0.0,0.0,0.0,0.0,0.0,0.0,0.0,0.0,0.0,0.0,0.0,0.0,0.0,0.0,0.0,0.0,0.0,0.0,0.0,0.0,0.0,0.0,0.0,0.0,0.0,0.0,0.0,0.0,0.0,0.0,0.0,0.0,0.0,0.0,0.0,0.0,0.0,0.0,0.0,0.0,0.0,0.0,0.0,0.0,0.0,0.0,0.0,0.0,0.0,0.0,0.0,0.0,0.0,0.0,0.0,0.0,0.0,0.0,0.0,0.0,0.0,0.0,0.0,0.0,0.0,0.0,0.0,0.0,0.0,0.0,0.0,0.0,0.0,0.0,0.0,0.0,0.0,0.0,0.0,0.0,0.0,0.0,0.0,0.0,0.0,0.0,0.0,0.0,0.0,0.0,0.0,0.0,0.0,0.0,0.0,0.0,0.0,0.0,0.0,0.0,0.0,0.0,0.0,0.0,0.0,0.0,0.0,0.0,0.0,0.0,0.0,0.0,0.0,0.0,0.0,0.0,0.0,0.0,0.0,0.0,0.0,0.0,0.0,0.0,0.0,0.0,0.0,0.0,0.0,0.0,0.0,0.0,0.0,0.0,0.0,0.0,0.0,0.0,0.0,0.0,0.0,0.0,0.0,0.0,0.0,0.0,0.0,0.0,0.0,0.0,0.0,0.0,0.0,0.0,0.0,0.0,0.0,0.0,0.0,0.0,0.0,0.0,0.0,0.0,0.0,0.0,0.0,0.0,0.0,0.0,0.0,0.0,0.0,0.0,0.0,0.0,0.0,0.0,0.0,0.0,0.0,0.0,0.0,0.0,0.0,0.0,0.0,0.0,0.0,0.0,0.0,0.0,0.0,0.0,0.0,0.0,0.0,0.0,0.0,0.0,0.0,0.0,0.0,0.0,0.0,0.0,0.0,0.0,0.0,0.0,0.0,0.0,0.0,0.0,0.0,0.0,0.0,0.0,0.0,0.0,0.0,0.0,0.0,0.0,0.0,0.0,0.0,0.0,0.0,0.0,0.0,0.0,0.0,0.0,0.0,0.0,0.0,0.0,0.0,0.0,0.0,0.0,0.0,0.0,0.0,0.0,0.0,0.0,0.0,0.0,0.0,0.0,0.0,0.0,0.0,0.0,0.0,0.0,0.0,0.0,0.0,0.0,0.0,0.0,0.0,0.0,0.0,0.0,0.0,0.0,0.0,0.0,0.0,0.0,0.0,0.0,0.0,0.0,0.0,0.0,0.0,0.0,0.0,0.0,0.0,0.0,0.0,0.0,0.0,0.0,0.0,0.0,0.0,0.0,0.0,0.0,0.0,0.0,0.0,0.0,0.0,0.0,0.0,0.0,0.0,0.0,0.0,0.0,0.0,0.0,0.0,0.0,0.0,0.0,0.0,0.0,0.0,0.0,0.0,0.0,0.0,0.0,0.0,0.0,0.0,0.0,0.0,0.0,0.0,0.0,0.0,0.0,0.0,0.0,0.0,0.0,0.0,0.0,0.0,0.0,0.0,0.0,0.0,0.0,0.0,0.0,0.0,0.0,0.0,0.0,0.0,0.0,0.0,0.0,0.0,0.0,0.0,0.0,0.0,0.0,0.0,0.0,0.0,0.0,0.0,0.0,0.0,0.0,0.0,0.0,0.0,0.0,0.0,0.0,0.0,0.0,0.0,0.0,0.0,0.0,0.0,0.0,0.0,0.0,0.0,0.0,0.0,0.0,0.0,0.0,0.0,0.0,0.0,0.0,0.0,0.0,0.0,0.0,0.0,0.0,0.0,0.0,0.0,0.0,0.0,0.0,0.0,0.0,0.0,0.0,0.0,0.0,0.0,0.0,0.0,0.0,0.0,0.0,0.0,0.0,0.0,0.0,0.0,0.0,0.0,0.0,0.0,0.0,0.0,0.0,0.0,0.0,0.0,0.0,0.0,0.0,0.0,0.0,0.0,0.0,0.0,0.0,0.0,0.0,0.0,0.0,0.0,0.0,0.0,0.0,0.0,0.0,0.0,0.0,0.0,0.0,0.0,0.0,0.0,0.0,0.0,0.0,0.0,0.0,0.0,0.0,0.0,0.0,0.0,0.0,0.0,0.0,0.0,0.0,0.0,0.0,0.0,0.0,0.0,0.0,0.0,0.0,0.0,0.0,0.0,0.0,0.0,0.0,0.0,0.0,0.0,0.0,0.0,0.0,0.0,0.0,0.0,0.0,0.0,0.0,0.0,0.0,0.0,0.0,0.0,0.0,0.0,0.0,0.0,0.0,0.0,0.0,0.0,0.0,0.0,0.0,0.0,0.0,0.0,0.0,0.0,0.0,0.0,0.0,0.0,0.0,0.0,0.0,0.0,0.0,0.0,0.0,0.0,0.0,0.0,0.0,0.0,0.0,0.0,0.0,0.0,0.0,0.0,0.0,0.0,0.0,0.0,0.0,0.0,0.0,0.0,0.0,0.0,0.0,0.0,0.0,0.0,0.0,0.0,0.0,0.0,0.0,0.0,0.0,0.0,0.0,0.0,0.0,0.0,0.0,0.0,0.0,0.0,0.0,0.0,0.0,0.0,0.0,0.0,0.0,0.0,0.0,0.0,0.0,0.0,0.0,0.0,0.0,0.0,0.0,0.0,0.0,0.0,0.0,0.0,0.0,0.0,0.0,0.0,0.0,0.0,0.0,0.0,0.0,0.0,0.0,0.0,0.0,0.0,0.0,0.0,0.0,0.0,0.0,0.0,0.0,0.0,0.0,0.0,0.0,0.0,0.0,0.0,0.0,0.0,0.0,0.0,0.0,0.0,0.0,0.0,0.0,0.0,0.0,0.0,0.0,0.0,0.0,0.0,0.0,0.0,0.0,0.0,0.0,0.0,0.0,0.0,0.0,0.0,0.0,0.0,0.0,0.0,0.0,0.0,0.0,0.0,0.0,0.0,0.0,0.0,0.0,0.0,0.0,0.0,0.0,0.0,0.0,0.0,0.0,0.0,0.0,0.0,0.0,0.0,0.0,0.0,0.0,0.0,0.0,0.0,0.0,0.0,0.0,0.0,0.0,0.0,0.0,0.0,0.0,0.0,0.0,0.0,0.0,0.0,0.0,0.0,0.0,0.0,0.0,0.0,0.0,0.0,0.0,0.0,0.0,0.0,0.0,0.0,0.0,0.0,0.0,0.0,0.0,0.0,0.0,0.0,0.0,0.0,0.0,0.0,0.0,0.0,0.0,0.0,0.0,0.0,0.0,0.0,0.0,0.0,0.0,0.0,0.0,0.0,0.0,0.0,0.0,0.0,0.0,0.0,0.0,0.0,0.0,0.0,0.0,0.0,0.0,0.0,0.0,0.0,0.0,0.0,0.0,0.0,0.0,0.0,0.0,0.0,0.0,0.0,0.0,0.0,0.0,0.0,0.0,0.0,0.0,0.0,0.0,0.0,0.0,0.0,0.0,0.0,0.0,0.0,0.0,0.0,0.0,0.0,0.0,0.0,0.0,0.0,0.0,0.0,0.0,0.0,0.0,0.0,0.0,0.0,0.0,0.0,0.0,0.0,0.0,0.0,0.0,0.0,0.0,0.0,0.0,0.0,0.0,0.0,0.0,0.0,0.0,0.0,0.0,0.0,0.0,0.0,0.0,0.0,0.0,0.0,0.0,0.0,0.0,0.0,0.0,0.0,0.0,0.0,0.0,0.0,0.0,0.0,0.0,0.0,0.0,0.0,0.0,0.0,0.0,0.0,0.0,1.0869,0.0,0.0,0.0,0.0,0.0,0.0,0.0,0.0,0.0,0.0,0.0,0.0,0.0,0.0,0.0,0.0,0.0,0.0,0.0,0.0,0.0,0.0,0.0,0.0,1.4396,1.4396,1.4396,1.4396,1.4396,1.4396,0.0,0.0,0.0,0.0,0.0,1.4396,1.435,1.4581,1.5108,1.4903,1.5051,1.5511,1.6061,1.6333,1.6355,0.0,0.0,0.0,0.0,0.0,0.0,0.0,0.0,0.0,0.0,0.0,0.0,0.0,0.0,0.0,0.0,0.0,0.0,0.0,0.0,0.0,0.0,0.0,0.0,0.0,0.0,0.0,0.0,0.0,0.0,0.0,0.0,0.0,0.0,0.0,0.0,0.0,0.0,0.0,0.0,0.0,0.0,0.0,0.0,0.0,0.0,0.0,0.0,0.0,0.0,0.0,0.0,0.0,0.0,0.0,0.0,0.0,0.0,0.0,0.0,0.0,0.0,0.0,0.0,0.0,0.0,0.0,0.0,0.0,0.0,0.0,1.057,0.0,0.0,0.0,0.0,0.0,0.0,0.0,0.0,0.0,0.0,0.0,0.0,0.0,0.0,0.0,0.0,0.0,0.0,0.0,0.0,0.0,1.4396,1.4396,1.4396,1.4396,1.4396,1.4396,1.4396,1.4396,1.4396,0.0,0.0,0.0,1.4396,1.4396,1.428,1.4432,1.4937,1.4674,1.4732,1.5096,1.5096,1.5096,1.5107,1.5908,0.0,0.0,0.0,0.0,0.0,0.0,0.0,0.0,0.0,0.0,0.0,0.0,0.0,0.0,0.0,0.0,0.0,0.0,0.0,0.0,0.0,0.0,0.0,0.0,0.0,0.0,0.0,0.0,0.0,0.0,0.0,0.0,0.0,0.0,0.0,0.0,0.0,0.0,0.0,0.0,0.0,0.0,0.0,0.0,0.0,0.0,0.0,0.0,0.0,0.0,0.0,0.0,0.0,0.0,0.0,0.0,0.0,0.0,0.0,0.0,0.0,0.0,0.0,0.9032,0.8687,0.8598,0.8598,0.8508,0.8443,0.9343,0.9547,0.9359,1.0564,0.0,0.0,0.0,0.0,0.0,0.0,0.0,0.0,0.0,0.0,0.0,0.0,0.0,0.0,0.0,0.0,0.0,0.0,0.0,1.4396,1.4396,1.4396,1.4396,1.4396,1.4396,1.4396,1.4396,1.4396,1.4396,1.4396,1.4396,1.4396,1.4396,1.428,1.4246,1.4316,1.4035,1.3894,1.3847,1.3847,1.3847,1.3907,1.5443,1.5896,1.5589,0.0,0.0,0.0,0.0,0.0,0.0,0.0,0.0,0.0,0.0,0.0,0.0,0.0,0.0,0.0,0.0,0.0,0.0,0.0,0.0,0.0,0.0,0.0,0.0,0.0,0.0,0.0,0.0,0.0,0.0,0.0,0.0,0.0,0.0,0.0,0.0,0.0,0.0,0.0,0.0,0.0,1.1032,1.0965,0.0,0.0,0.0,0.0,0.0,0.0,0.0,0.0,0.0,0.0,0.0,0.0,0.0,1.0797,1.0506,1.031,1.0045,0.9788,0.9504,0.9067,0.8521,0.8521,0.8206,0.7661,0.7785,0.0,0.8809,1.0014,0.0,0.0,0.0,0.0,0.0,0.0,0.0,0.0,0.0,0.0,0.0,0.0,0.0,0.0,0.0,0.0,0.0,0.0,0.0,0.0,0.0,1.4326,1.4303,1.4303,1.4221,1.4221,1.428,1.4303,1.4326,1.4396,1.4396,1.435,1.4303,1.4163,1.3999,1.3871,1.381,1.3739,1.3597,1.3597,1.3597,1.3644,1.4686,1.5039,1.4949,1.5722,0.0,0.0,0.0,0.0,0.0,0.0,0.0,0.0,0.0,0.0,0.0,0.0,0.0,0.0,0.0,0.0,0.0,0.0,0.0,0.0,0.0,0.0,0.0,0.0,0.0,0.0,0.0,0.0,0.0,0.0,0.0,0.0,0.0,0.0,0.0,0.0,0.0,0.0,0.0,1.1509,1.1031,1.0936,1.1325,1.1696,0.0,0.0,0.0,0.0,0.0,0.0,0.0,0.0,0.0,1.04,0.9877,0.9352,0.8834,0.8771,0.8637,0.8522,0.8531,0.8396,0.8102,0.8228,0.8113,0.7835,0.7721,0.8058,0.879,0.9568,1.0117,1.0572,0.0,0.0,0.0,0.0,1.2618,1.2375,0.0,0.0,0.0,0.0,0.0,0.0,0.0,0.0,0.0,0.0,0.0,0.0,1.4396,1.428,1.4222,1.4257,1.4116,1.4104,1.4246,1.4222,1.4246,1.4396,1.4396,1.435,1.4199,1.4033,1.3844,1.3597,1.3817,1.3869,1.3772,1.391,1.3876,1.3796,1.4204,1.4331,1.4329,1.5028,1.5466,0.0,0.0,0.0,0.0,0.0,0.0,0.0,0.0,0.0,0.0,0.0,0.0,0.0,0.0,0.0,0.0,0.0,0.0,0.0,0.0,0.0,0.0,0.0,0.0,0.0,0.0,0.0,0.0,0.0,0.0,0.0,0.0,0.0,0.0,0.0,0.0,0.0,0.0,1.1345,1.0874,1.0829,1.1141,1.1448,0.0,0.0,0.0,0.0,0.0,0.0,1.0962,1.0502,0.9998,0.9453,0.8967,0.8472,0.7911,0.8077,0.8077,0.7916,0.8253,0.8299,0.8132,0.8289,0.8252,0.8106,0.7959,0.8265,0.8921,0.9332,0.9907,1.0579,1.1483,1.2004,1.2305,1.2451,1.2389,1.2274,0.0,0.0,0.0,0.0,0.0,0.0,0.0,0.0,0.0,0.0,0.0,1.4246,1.4384,1.428,1.4246,1.4373,1.428,1.4257,1.4373,1.4269,1.4246,1.4396,1.4396,1.435,1.4199,1.3952,1.3739,1.3597,1.4055,1.4273,1.4283,1.4718,1.4697,1.4273,1.4298,1.4049,1.3705,1.4709,1.4903,1.4653,0.0,0.0,0.0,0.0,0.0,0.0,0.0,0.0,0.0,0.0,0.0,0.0,0.0,0.0,0.0,0.0,0.0,0.0,0.0,0.0,0.0,0.0,0.0,0.0,0.0,0.0,0.0,0.0,0.0,0.0,0.0,0.0,0.0,0.0,0.0,0.0,0.0,0.0,0.0,1.0294,1.0243,0.0,0.0,0.0,0.0,1.0134,1.0413,1.0387,0.9907,0.9195,0.9118,0.9741,0.9131,0.8874,0.9018,0.9644,0.9644,0.9023,0.9661,0.9667,0.9039,0.9055,0.8709,0.8115,0.8106,0.8448,0.9112,0.9369,0.9907,1.0643,1.1927,1.2128,1.1709,1.2305,1.2128,1.1654,0.0,0.0,0.0,0.0,0.0,1.4834,1.4466,1.4396,1.4396,1.4396,1.435,1.435,1.4396,1.428,1.4222,1.428,1.415,1.4116,1.4246,1.4222,1.4246,1.4396,1.4326,1.4303,1.4397,1.4213,1.426,1.4511,1.4676,1.4749,1.4749,1.4925,1.4914,1.4749,1.4749,1.4656,1.4494,1.4254,1.4246,1.4478,1.4823,1.5175,0.0,0.0,0.0,0.0,0.0,0.0,0.0,0.0,0.0,0.0,0.0,0.0,0.0,0.0,0.0,0.0,0.0,0.0,0.0,0.0,0.0,0.0,0.0,0.0,0.0,0.0,0.0,0.0,0.0,0.0,0.0,0.0,0.0,0.0,0.0,0.0,0.0,1.0946,1.06,0.0,1.0346,1.0431,1.0291,0.9776,0.9841,0.9739,0.9378,0.8879,0.8751,0.9002,0.8592,0.8389,0.8463,0.8821,0.8898,0.865,0.915,0.9248,0.9031,0.9164,0.9111,0.8874,0.8741,0.898,0.9484,0.945,0.9742,1.03,1.0783,1.0816,1.0662,1.0883,1.1034,1.1152,0.0,0.0,0.0,1.5412,1.5221,1.4949,1.4466,1.4466,1.4477,1.4396,1.435,1.435,1.4396,1.428,1.4222,1.4246,1.4104,1.4057,1.4199,1.4163,1.4238,1.4506,1.4513,1.4602,1.4719,1.4592,1.4687,1.4997,1.5152,1.5235,1.5235,1.539,1.538,1.5235,1.5235,1.5142,1.4956,1.4345,1.4188,1.4365,1.4392,1.4581,1.488,0.0,0.0,0.0,0.0,0.0,0.0,0.0,0.0,0.0,0.0,0.0,0.0,0.0,0.0,0.0,0.0,0.0,0.0,0.0,0.0,0.0,0.0,0.0,0.0,0.0,0.0,0.0,0.0,0.0,0.0,0.0,0.0,0.0,0.0,0.0,1.1665,1.1646,1.1265,1.0874,1.0559,1.0471,1.012,0.9327,0.927,0.9102,0.8769,0.8608,0.855,0.8619,0.8473,0.8429,0.8496,0.8642,0.8713,0.8718,0.8992,0.9084,0.9089,0.9225,0.9282,0.9277,0.9145,0.9276,0.9552,0.941,0.9558,0.9862,1.0026,1.0101,1.0135,1.0412,1.0712,1.1062,0.0,1.6414,1.5812,1.5221,1.5108,1.4971,1.4489,1.4558,1.4639,1.4419,1.4303,1.4246,1.4384,1.428,1.4246,1.4373,1.415,1.4067,1.4197,1.4101,1.423,1.4683,1.4975,1.5149,1.5159,1.5018,1.4976,1.5007,1.545,1.5715,1.5735,1.618,1.6187,1.5753,1.5742,1.5484,1.5059,1.5028,1.4759,1.4354,1.4389,1.4406,1.4406,0.0,0.0,0.0,0.0,0.0,0.0,0.0,0.0,0.0,0.0,0.0,0.0,0.0,0.0,0.0,0.0,0.0,0.0,0.0,0.0,0.0,0.0,0.0,0.0,0.0,0.0,0.0,0.0,0.0,0.0,0.0,0.0,0.0,1.2868,1.2329,1.2089,1.2282,1.2108,1.1586,1.0659,1.0374,0.9776,0.8669,0.8599,0.8462,0.8153,0.8316,0.8519,0.8713,0.8926,0.9089,0.9282,0.9291,0.9291,0.9291,0.9305,0.9315,0.9315,0.9319,0.9319,0.9315,0.9315,0.9305,0.9291,0.9291,0.9286,0.9363,0.9854,1.0078,1.0183,1.0981,1.1284,1.1436,1.6918,1.6414,1.5856,1.5468,1.5434,1.5255,1.4697,1.4651,1.4639,1.4419,1.4373,1.435,1.4396,1.4373,1.4326,1.4246,1.4186,1.4266,1.4548,1.4531,1.446,1.4355,0.0,0.0,1.4193,1.4147,1.4412,1.4996,1.5139,1.5589,1.6365,1.6484,1.6769,1.713,1.6789,1.6572,1.6407,1.5773,1.5421,1.5272,1.4589,1.4338,1.4296,0.0,0.0,0.0,0.0,0.0,0.0,0.0,0.0,0.0,0.0,0.0,0.0,0.0,0.0,0.0,0.0,0.0,0.0,0.0,0.0,0.0,0.0,0.0,0.0,0.0,0.0,0.0,0.0,0.0,0.0,0.0,1.3058,1.2795,1.2668,1.2406,1.2254,1.2281,1.1508,1.0774,1.0303,0.9516,0.8959,0.8696,0.8683,0.8775,0.8963,0.9039,0.9096,0.9152,0.9169,0.923,0.9282,0.9437,0.9517,0.9522,0.9866,1.0012,1.0017,1.0164,1.0149,1.0012,1.0012,0.9842,0.9517,0.9517,0.9423,0.9299,0.9463,0.9526,0.9644,1.0534,1.1371,1.1997,1.7115,1.6714,1.6241,1.5802,1.5812,1.5623,1.4811,1.48,1.4766,1.4443,1.4396,1.4396,1.4396,1.4396,1.435,1.4222,1.4163,1.4153,1.4198,1.427,1.4264,0.0,0.0,1.3902,1.4083,1.4227,1.4538,1.4982,1.5146,1.5518,1.6154,1.6154,1.6354,1.6774,1.6807,1.6709,1.6517,1.6333,1.6146,1.5946,1.5183,1.4656,1.4273,1.4003,1.3762,1.3597,1.3597,1.38,1.4022,1.3716,0.0,0.0,0.0,0.0,0.0,0.0,0.0,0.0,0.0,0.0,0.0,0.0,0.0,0.0,0.0,0.0,0.0,0.0,0.0,0.0,0.0,0.0,0.0,0.0,1.2868,1.2609,1.2973,1.2588,1.2185,1.202,1.1489,1.0955,1.0533,0.9821,0.9344,0.9252,0.9081,0.9067,0.9272,0.9371,0.9456,0.9582,0.9672,0.9762,0.9847,0.9975,1.0036,1.0036,1.0282,1.0445,1.045,1.0569,1.0554,1.0445,1.0445,1.0263,1.0036,1.0036,0.996,0.9814,0.0,0.0,0.0,0.0,1.1225,1.2012,1.7413,1.7157,1.6791,1.6185,1.6238,1.6008,1.5006,1.4994,1.4949,1.4489,1.4396,1.4396,1.4396,1.4396,1.435,1.4186,1.408,1.3862,1.3582,1.3708,0.0,1.3928,1.4159,1.4318,1.4333,1.4615,1.4809,1.4899,1.5199,1.5411,1.5521,1.5521,1.5586,1.5683,1.6281,1.6314,1.5977,1.6598,1.6661,1.6319,1.5921,1.5245,1.4449,1.4345,1.4045,1.3659,1.3559,1.3515,1.3525,1.3577,0.0,0.0,0.0,0.0,0.0,0.0,0.0,0.0,0.0,0.0,0.0,0.0,0.0,0.0,0.0,0.0,0.0,0.0,0.0,0.0,0.0,0.0,0.0,0.0,1.2729,1.2712,1.3514,1.2905,1.2259,1.1963,1.1919,1.1782,1.1415,1.0908,1.0536,1.0248,0.9784,0.9526,0.9509,0.0,0.0,0.0,0.0,1.0441,1.0616,1.0621,1.0621,1.0621,1.0598,1.0612,1.0612,1.0678,1.0678,1.0612,1.0612,1.064,1.0621,1.0621,1.0621,1.0499,0.9729,0.9472,0.9623,1.0299,1.1053,1.1744,1.7447,1.7352,1.7178,1.6778,1.6757,1.6543,1.5856,1.5367,1.4994,1.4674,1.4489,1.4396,1.4396,1.4396,1.4314,1.4057,1.402,1.3972,1.3909,0.0,1.3742,1.3591,1.3183,1.3089,1.3353,1.3427,1.3745,1.4276,1.4341,1.483,1.5748,1.5748,1.605,1.6615,1.6385,1.6224,1.6146,1.6131,1.6076,1.6018,1.6185,1.5946,1.5339,1.4593,1.4252,1.4054,1.3242,1.2957,1.3017,1.3397,1.3516,1.3661,1.4476,0.0,0.0,0.0,0.0,0.0,0.0,0.0,0.0,0.0,0.0,0.0,0.0,0.0,0.0,0.0,0.0,0.0,0.0,0.0,0.0,1.3172,1.3249,1.3434,1.3732,1.362,1.3605,1.3965,1.316,1.2878,1.3515,1.2305,1.1503,1.1617,1.1248,1.0897,1.0695,1.091,1.0869,1.0497,1.054,1.0578,1.0621,1.0621,1.0621,1.0621,0.0,0.0,1.0839,1.1,1.0986,1.0834,1.0834,1.0735,1.0621,1.0621,1.0621,1.0588,1.026,1.0563,1.1114,1.0826,1.1316,1.2075,1.7672,1.7666,1.7529,1.7199,1.7002,1.6705,1.6076,1.5591,1.5153,1.4743,1.4616,1.4523,1.4396,1.4396,1.4326,1.4127,1.39,1.3806,0.0,1.357,1.3372,1.3494,1.292,1.2766,1.3084,1.3251,1.3592,1.4109,1.4256,1.4635,1.5204,1.5204,1.5409,1.5745,1.593,1.5873,1.5652,1.5762,1.5673,1.5468,1.5772,1.5763,1.5519,1.5149,1.4852,1.4538,1.3698,1.3406,1.3394,1.3321,1.3291,1.3382,1.3893,1.4041,1.4041,0.0,0.0,0.0,0.0,0.0,0.0,0.0,0.0,0.0,0.0,0.0,0.0,0.0,0.0,1.3955,1.379,0.0,1.3244,1.3545,1.3408,1.3446,1.3947,1.3595,1.3424,1.3719,1.3135,1.2823,1.322,1.2301,1.1841,1.218,1.1904,1.1697,1.1549,1.1664,1.1687,1.1517,1.1293,1.1207,1.1315,1.1029,1.0886,1.0886,1.0995,1.1047,1.1047,1.1151,1.1142,1.1047,1.1047,1.0981,1.0886,1.0886,1.0886,1.0863,1.0664,1.0784,1.1061,1.0795,1.0912,1.123,1.7902,1.7902,1.7808,1.755,1.722,1.6799,1.6262,1.5834,1.5424,1.4926,1.4766,1.4639,1.4477,1.4419,1.435,1.4222,1.3809,1.3653,0.0,1.3368,1.3142,1.3352,1.3,1.2882,1.3084,1.3442,1.3751,1.4109,1.4431,1.4605,1.4605,1.4605,1.4605,1.4641,1.5275,1.5305,1.4934,1.5322,1.5228,1.4821,1.5112,1.5235,1.5226,1.5407,1.5335,1.5005,1.4034,1.3754,1.3773,1.3259,1.3094,1.3103,1.3295,1.3377,1.3405,1.3516,1.346,0.0,0.0,0.0,0.0,0.0,0.0,0.0,0.0,0.0,1.4139,1.421,1.3805,1.3518,1.3857,1.3219,1.2951,1.3866,1.3504,1.3414,1.4106,1.3558,1.316,1.3333,1.305,1.2806,1.2833,1.247,1.2388,1.2788,1.2575,1.2395,1.2297,1.2341,1.2414,1.2505,1.2094,1.1996,1.217,1.1634,1.134,1.134,1.1243,1.1194,1.1194,1.1194,1.1194,1.1194,1.1194,1.1194,1.1194,1.1194,1.1194,1.1179,1.1019,1.0849,1.073,1.0649,1.0516,1.0379,1.7942,1.7902,1.7882,1.7862,1.757,1.722,1.6854,1.6306,1.5824,1.5468,1.4994,1.4685,1.4685,1.4523,1.435,1.4222,1.3923,0.0,1.3663,1.3787,1.3571,1.2901,1.3212,1.3299,1.3084,1.3442,1.3751,1.4109,1.4431,1.4605,1.4605,1.4605,1.4605,1.4605,1.4669,1.4548,1.4223,1.4596,1.4483,1.4136,1.4484,1.4588,1.4608,1.463,1.505,1.5355,1.3232,1.2868,1.3332,1.3099,1.3021,1.3168,1.4066,1.4332,1.4449,1.4974,0.0,1.4605,1.5785,1.5293,1.4147,1.3094,1.2805,1.2805,0.0,0.0,1.2894,1.3187,1.3188,1.326,1.3589,1.3783,1.3847,1.3684,1.3889,1.409,1.421,1.4114,1.4296,1.4965,1.4148,1.391,1.4713,1.4432,1.4219,1.4263,1.389,1.3485,1.3006,1.3233,1.3177,1.277,1.2721,1.2689,1.271,1.2175,1.1927,1.1878,1.1438,1.1194,1.1194,1.1194,1.1194,1.1194,1.1194,1.1194,1.1194,1.1194,1.1194,1.1194,1.117,1.1146,1.108,1.0712,1.0607,1.0588,1.8103,1.8063,1.8043,1.7922,1.7611,1.7352,1.722,1.682,1.6414,1.612,1.5724,1.5345,1.5074,1.4663,1.435,1.4222,1.4116,1.4058,1.4123,1.3848,1.3767,1.3903,1.376,1.367,1.3633,1.3751,1.3811,1.3807,1.4122,1.4296,1.4304,1.451,1.4605,1.4597,1.4391,1.4217,1.4077,1.3818,1.3622,1.349,1.3787,1.3932,1.3932,1.3932,1.4359,1.484,1.347,1.3177,0.0,0.0,1.2781,1.2835,1.3257,1.3398,1.3428,1.3692,1.3601,0.0,1.4052,1.3791,0.0,0.0,1.259,1.259,1.259,1.275,1.2941,1.306,1.3243,1.3481,1.3831,1.4145,1.4431,0.0,1.4691,1.4769,1.4794,1.4821,1.4937,1.5276,1.521,1.5246,1.5498,1.5068,1.4787,1.4787,1.44,1.4034,1.3797,1.3903,1.3871,1.3673,1.3389,1.3201,1.3201,1.271,1.2467,1.2467,1.1932,1.1683,1.1639,1.134,1.1194,1.1194,1.1194,1.1194,1.1194,1.1194,1.1194,1.1194,1.1194,1.1194,1.1175,1.1,1.0863,1.0764,1.8411,1.8288,1.8143,1.8003,1.7747,1.7509,1.7413,1.7199,1.6926,1.665,1.625,1.579,1.5198,1.4731,1.4419,1.4269,1.4222,1.4256,1.4415,1.4022,1.3957,1.4385,1.4166,1.3927,1.3658,1.3879,1.383,1.3449,1.3791,1.3966,1.3974,1.4193,1.4312,1.4304,1.4077,1.3918,1.3799,1.3298,1.3036,1.2988,1.3171,1.3246,1.3246,1.3246,1.3541,1.3902,1.342,1.3359,0.0,0.0,1.259,1.259,1.259,1.259,1.2621,1.2797,1.2981,1.3072,1.2889,0.0,0.0,1.2652,1.267,1.2742,1.2742,1.3012,1.3259,1.3354,1.3561,1.3839,1.4188,1.4518,1.483,1.5036,1.5148,1.5189,1.5076,1.5014,1.5087,1.5344,1.5687,1.6004,1.6271,1.5601,1.5039,1.4805,1.4469,1.4298,1.4298,1.4298,1.4298,1.4298,1.3919,1.3732,1.3732,1.3249,1.3007,1.3007,1.2467,1.2224,1.2224,1.1683,1.1438,1.1389,1.1243,1.1194,1.1194,1.1194,1.1194,1.1194,1.1194,1.1194,1.1194,1.1194,1.1104,1.0976,1.8855,1.8514,1.8202,1.8183,1.8023,1.7767,1.7447,1.7393,1.7282,1.6918,1.6371,1.568,1.4811,1.4708,1.4616,1.4396,1.428,1.4199,1.4221,1.4373,1.4224,1.3653,1.4289,1.4091,1.2855,1.3607,1.3713,1.3108,1.3433,1.3634,1.3634,1.3642,1.3616,1.3616,1.3608,1.3418,1.3124,1.31,1.2925,1.2606,1.2629,1.2621,1.2621,1.2621,1.2652,1.2652,1.2621,0.0,0.0,0.0,1.259,1.259,1.259,1.259,0.0,1.3299,1.3923,1.4291,1.3662,0.0,1.3329,1.2744,1.2853,1.3076,1.3076,1.333,1.3664,1.4013,1.4093,1.4204,1.4526,1.4919,1.5089,1.4749,1.4976,1.5102,1.4761,1.4394,1.4478,1.5468,1.5236,1.5716,0.0,1.6264,1.5092,1.4382,1.4292,1.4298,1.4298,1.4298,1.4298,1.4298,1.4298,1.4298,1.4298,1.3732,1.3491,1.3491,1.3007,1.2764,1.2764,1.2224,1.198,1.1932,1.1438,1.1194,1.1194,1.1194,1.1194,1.1194,1.1194,1.1194,1.1194,1.1194,1.1189,1.1184,1.9442,1.9295,1.9124,1.8903,1.8592,1.8319,1.8147,1.7902,1.7686,1.7584,1.7039,0.0,0.0,0.0,0.0,0.0,1.4651,1.4512,1.4477,1.4361,1.4299,1.4329,1.4476,1.4447,1.4214,1.3976,1.3691,1.3369,1.3308,1.3259,1.3259,1.3514,1.3618,1.3576,1.3354,1.3195,1.3076,1.2869,1.2941,1.3186,1.3186,1.3186,1.3186,1.3186,1.326,1.3282,0.0,0.0,0.0,0.0,0.0,0.0,1.2867,0.0,0.0,1.2889,1.3072,1.3194,1.295,1.3068,1.3193,1.2972,1.3171,1.3418,1.3418,1.368,1.3966,1.4085,1.449,1.4863,1.4982,1.5475,1.5818,1.5693,1.5964,1.6265,1.6404,1.6518,1.6755,1.7317,1.747,0.0,0.0,0.0,0.0,1.5825,1.4867,1.4298,1.4298,1.4298,1.4298,1.4298,1.4298,1.4298,1.4298,1.4106,1.401,1.401,1.3485,1.3104,1.2813,1.2619,1.2322,1.198,1.1834,1.1541,1.1194,1.1194,1.1194,1.1194,1.1194,1.1194,1.1194,1.1194,1.1194,1.1194,0.0,1.9833,1.9621,1.9424,1.9095,0.0,0.0,0.0,0.0,0.0,0.0,0.0,0.0,0.0,0.0,0.0,0.0,1.4811,1.4777,1.4523,1.4444,1.465,1.4602,1.4532,1.4476,1.4179,1.3857,1.3508,1.3267,1.325,1.3414,1.3359,1.3339,1.3362,1.306,1.283,1.2703,1.2638,1.295,1.3511,1.3563,1.3704,1.3944,1.3974,1.4055,0.0,0.0,0.0,0.0,0.0,0.0,0.0,0.0,0.0,1.2836,1.2652,1.259,1.2622,1.275,1.2949,1.3116,1.3243,1.3521,1.3775,1.3775,1.4045,1.4264,1.4264,1.4665,1.503,1.5165,1.5642,1.6063,1.6182,1.6467,1.6816,1.7231,1.7349,1.751,1.7852,1.7965,1.7932,0.0,0.0,0.0,1.6581,1.5676,1.501,1.4723,1.4675,1.458,1.4298,1.4298,1.4298,1.4298,1.4298,1.4298,1.4298,1.3968,1.363,1.334,1.3152,1.2861,1.2516,1.237,1.2078,1.178,1.1536,1.1487,1.1487,1.1292,1.1194,1.1194,1.1194,1.1194,1.1243,0.0,0.0,1.9762,0.0,0.0,0.0,0.0,0.0,0.0,0.0,0.0,0.0,0.0,0.0,0.0,0.0,0.0,0.0,1.5131,1.48,0.0,1.4627,1.4674,1.4418,1.3806,1.4164,1.4102,1.3557,1.3395,1.3534,1.395,1.3199,1.2882,1.2986,1.2737,1.2404,1.2041,1.2421,1.2962,1.3567,1.3691,1.4138,1.4787,1.4904,0.0,0.0,0.0,0.0,0.0,0.0,0.0,0.0,0.0,1.2836,1.2621,1.259,1.2606,1.2694,1.2996,1.3116,1.3219,1.3537,1.3878,1.414,1.414,1.4359,1.4605,1.4605,1.4621,1.474,1.5125,0.0,1.5817,1.615,1.6467,1.6865,1.7254,1.7019,1.6906,0.0,0.0,0.0,0.0,0.0,0.0,1.6723,0.0,1.6251,1.5439,1.5384,1.5057,1.4346,1.4298,1.4298,1.4298,1.4298,1.4298,1.4298,1.4298,1.4298,1.4298,1.3775,1.3539,1.3491,1.3055,1.2813,1.2764,1.2273,1.2029,1.198,1.1487,1.1292,1.1243,1.1243,1.1243,1.134,0.0,0.0,0.0,0.0,0.0,0.0,0.0,0.0,0.0,0.0,0.0,0.0,0.0,0.0,0.0,0.0,0.0,0.0,1.5424,1.5131,0.0,0.0,0.0,0.0,0.0,0.0,0.0,0.0,0.0,1.3495,1.3634,1.3406,1.3185,1.2908,1.2846,1.2592,1.2214,1.2342,1.3129,1.4307,0.0,1.4859,1.5604,0.0,0.0,0.0,0.0,0.0,0.0,0.0,0.0,0.0,0.0,1.295,1.2867,1.2652,1.2781,1.2973,1.3068,1.3465,1.387,1.3958,1.4209,1.447,1.447,1.4542,1.4605,1.4605,1.4855,1.5078,1.5165,1.5666,0.0,1.619,1.6467,0.0,1.7556,1.7593,0.0,1.8301,0.0,1.8311,1.8496,1.8357,0.0,0.0,1.7239,1.6251,1.5439,1.5384,1.5057,1.4346,1.4298,1.4298,1.4298,1.4298,1.4298,1.4298,1.4298,1.4298,1.4298,1.4154,1.3871,1.3491,1.3346,1.3104,1.2813,1.2667,1.2613,1.2565,1.2467,1.2175,1.1785,1.1785,1.1536,1.134,0.0,0.0,0.0,0.0,0.0,0.0,0.0,0.0,0.0,0.0,0.0,0.0,0.0,0.0,0.0,0.0,0.0,0.0,0.0,1.5479,0.0,0.0,0.0,0.0,0.0,0.0,0.0,0.0,0.0,0.0,0.0,1.375,1.3487,1.3329,1.323,1.2942,1.2582,1.276,0.0,0.0,0.0,0.0,0.0,0.0,0.0,0.0,0.0,0.0,0.0,0.0,0.0,1.3246,1.3072,1.2928,1.2805,1.2652,0.0,1.3124,1.3267,1.3703,1.4148,1.4272,1.4462,1.4605,1.4605,1.4605,1.4605,1.4605,1.4908,1.521,1.5194,1.5771,1.6227,0.0,0.0,0.0,1.7719,1.7814,1.8033,0.0,1.8781,0.0,1.8781,1.8781,1.8781,0.0,1.7746,1.6763,1.5961,1.5581,1.5057,1.4346,1.4298,1.4298,1.4298,1.4298,1.4298,1.4298,1.4298,1.4298,1.4298,1.4298,1.4154,1.3871,1.3871,1.3678,1.3437,1.3201,1.3104,1.3098,1.3232,1.3082,1.2883,1.3216,1.3113,1.2963,0.0,0.0,0.0,0.0,0.0,0.0,0.0,0.0,0.0,0.0,1.7983,1.7922,0.0,0.0,0.0,0.0,0.0,0.0,0.0,0.0,0.0,0.0,0.0,0.0,0.0,0.0,0.0,0.0,0.0,0.0,0.0,0.0,0.0,0.0,0.0,0.0,0.0,0.0,0.0,0.0,0.0,0.0,0.0,0.0,0.0,0.0,0.0,0.0,0.0,0.0,1.3338,1.3042,1.2981,1.2775,1.259,1.259,1.2877,1.3219,1.3505,1.3878,1.426,1.4526,1.4605,1.4605,1.4677,1.4677,1.4669,1.4748,0.0,1.5268,1.5275,1.5847,1.6275,1.6197,0.0,1.6946,1.7647,1.779,1.8017,1.8676,1.875,1.8781,1.8781,1.8781,1.8781,1.8781,1.8118,1.7412,1.677,1.6096,1.5384,1.4634,1.449,1.4442,1.4442,1.4346,1.4298,1.4298,1.4298,1.4298,1.4298,1.4298,1.4298,1.4298,1.4298,1.4298,1.425,1.3775,1.3588,1.363,1.3842,1.3974,1.407,1.4727,1.4965,1.5013,0.0,0.0,0.0,0.0,0.0,0.0,0.0,0.0,0.0,0.0,1.8378,1.8083,0.0,0.0,0.0,0.0,0.0,0.0,0.0,0.0,0.0,0.0,0.0,0.0,0.0,0.0,0.0,0.0,0.0,0.0,0.0,0.0,0.0,0.0,0.0,0.0,0.0,0.0,0.0,0.0,0.0,0.0,0.0,0.0,0.0,0.0,0.0,0.0,0.0,0.0,1.37,1.3338,1.2836,1.2652,1.259,1.259,1.3036,1.3546,1.3568,1.4053,1.4526,1.4589,1.4605,1.4677,1.5026,1.5098,0.0,0.0,1.5657,1.5718,1.5715,1.6029,1.6307,1.6267,1.6542,1.6903,1.7347,1.7647,1.7966,0.0,1.8653,1.8781,1.8781,1.8781,0.0,0.0,1.8118,1.7645,1.7505,1.7365,1.6943,1.6204,1.5581,1.5201,1.5201,1.458,1.4298,1.4298,1.4298,1.4298,1.4298,1.4298,1.4298,1.4298,1.4298,0.0,1.4298,1.4202,1.4154,1.4154,1.4196,1.4376,1.4561,1.4704,1.4835,1.5013,0.0,0.0,0.0,0.0,0.0,0.0,0.0,2.0342,2.0085,1.9591,1.9072,1.8553,1.8089,1.8063,1.7963,0.0,0.0,0.0,0.0,0.0,0.0,0.0,0.0,0.0,0.0,0.0,0.0,0.0,0.0,0.0,0.0,0.0,0.0,0.0,0.0,0.0,0.0,0.0,0.0,0.0,0.0,0.0,0.0,0.0,0.0,0.0,0.0,0.0,0.0,0.0,1.4061,1.3992,1.3307,1.3064,1.3064,1.3064,1.3577,1.4073,1.3916,1.4377,1.4848,1.4641,1.4605,1.4713,1.5098,0.0,0.0,0.0,1.5939,1.6017,1.5833,1.625,0.0,1.6324,1.6591,1.6901,1.7244,1.7608,0.0,1.8255,1.8613,1.8781,0.0,1.8781,1.8781,1.8781,1.845,1.811,1.7738,1.7326,1.6951,1.6629,1.6251,1.6008,1.6008,1.5676,1.5486,1.5486,1.5486,1.5296,1.4867,1.4867,1.4675,1.4298,1.4298,1.4298,1.4298,1.4298,1.4298,1.4346,1.4723,1.5201,1.5717,1.6129,1.6546,1.6962,0.0,0.0,0.0,0.0,0.0,0.0,2.0794,2.0613,2.041,2.0187,1.9752,1.9188,1.8489,1.8288,1.8143,0.0,0.0,0.0,0.0,0.0,0.0,0.0,0.0,0.0,0.0,0.0,0.0,1.5198,0.0,0.0,0.0,0.0,0.0,0.0,0.0,0.0,0.0,0.0,0.0,0.0,0.0,0.0,0.0,0.0,0.0,0.0,0.0,0.0,0.0,0.0,1.4508,1.4677,1.3932,1.3631,1.3528,1.3613,1.4078,1.4551,1.4313,1.4709,1.5098,1.4713,1.4677,1.4812,1.524,1.5374,0.0,1.5939,1.6237,1.6342,1.6079,1.6608,1.692,0.0,1.6817,1.7153,1.721,1.7616,1.8005,0.0,1.8565,0.0,1.8781,1.8781,0.0,1.8781,1.8781,1.8542,1.7971,1.7372,1.7052,1.7052,1.6911,1.6864,1.6864,1.6676,1.6588,1.6588,1.6588,1.6251,1.5676,1.5676,1.5343,1.4771,1.4771,1.4771,1.4771,1.4771,1.4771,1.4867,1.5439,1.615,1.6911,1.7505,1.8164,1.8781,0.0,0.0,0.0,0.0,0.0,0.0,2.0794,2.0778,2.0663,2.041,2.0309,1.9997,1.9188,1.8553,1.8183,0.0,0.0,0.0,0.0,0.0,0.0,0.0,0.0,0.0,0.0,0.0,0.0,1.5468,1.5198,0.0,0.0,0.0,0.0,0.0,0.0,0.0,0.0,0.0,0.0,0.0,0.0,0.0,0.0,0.0,0.0,0.0,0.0,0.0,0.0,0.0,0.0,1.5059,1.4556,1.398,1.3579,1.3939,0.0,0.0,1.4647,1.4934,1.5098,1.4713,1.4883,1.5232,1.5657,0.0,1.6307,1.6735,1.6839,1.6839,1.6795,1.7263,1.7439,1.6928,0.0,1.7861,0.0,1.7705,1.8205,1.7906,0.0,0.0,1.8781,1.8781,1.8781,1.8781,1.8781,1.8781,1.8689,1.8643,1.8596,1.8596,1.7932,1.7598,1.7598,1.6904,1.6588,1.6588,1.6588,1.6581,1.6487,1.6487,1.644,1.6393,1.6393,1.6393,0.0,1.6393,1.6393,1.6393,1.644,1.6951,1.7598,1.7692,1.8164,1.8781,0.0,0.0,0.0,0.0,0.0,0.0,2.0794,2.0794,2.0761,2.0646,2.0495,2.0275,1.9962,1.9244,1.863,1.8242,1.8123,0.0,0.0,0.0,0.0,0.0,0.0,0.0,0.0,0.0,1.6129,1.5976,1.5546,0.0,0.0,0.0,0.0,0.0,0.0,1.4811,0.0,0.0,0.0,0.0,0.0,0.0,0.0,0.0,0.0,0.0,0.0,0.0,0.0,0.0,0.0,0.0,1.4823,1.4692,0.0,0.0,1.5135,1.5586,1.5358,1.5584,1.5771,1.5417,1.5444,1.5665,1.6017,1.6202,1.6412,1.6839,1.6908,1.7012,1.7304,1.7304,1.7257,0.0,0.0,0.0,1.7298,0.0,1.868,1.8197,1.8832,0.0,0.0,0.0,1.8781,1.8781,1.8781,1.8781,1.8781,1.8781,1.8781,1.8781,1.8542,1.835,1.835,1.8079,1.7939,1.7939,1.7939,1.7699,1.7279,1.7279,1.6998,1.6588,1.6588,1.6588,0.0,1.6588,1.6588,1.6588,1.6588,1.7044,1.7692,1.7692,1.8164,1.8781,0.0,0.0,0.0,0.0,0.0,2.0794,2.0794,2.0794,2.0794,2.0794,2.0645,2.0495,2.041,1.9821,1.9184,1.8548,1.8307,0.0,0.0,0.0,0.0,0.0,0.0,0.0,0.0,0.0,1.6432,1.629,1.5812,1.558,0.0,0.0,1.5221,1.5221,0.0,0.0,0.0,0.0,0.0,0.0,0.0,0.0,0.0,0.0,0.0,0.0,0.0,0.0,0.0,0.0,0.0,0.0,0.0,0.0,0.0,0.0,1.5771,1.6239,1.5958,1.6094,1.6237,1.5868,1.5868,1.6017,1.6237,1.6377,1.6551,1.6839,1.7038,1.721,1.7407,1.7407,1.7407,0.0,0.0,1.8091,1.7803,1.8851,1.9452,0.0,0.0,1.9455,0.0,1.8874,1.8781,1.8781,1.8781,1.8781,1.8781,1.8781,1.8781,1.8781,1.8781,1.8781,1.8781,1.8781,1.8781,1.8781,1.8781,1.8542,1.8017,1.8017,1.7746,1.7239,1.7239,1.7239,0.0,1.7239,1.7239,1.7239,1.7239,1.7559,1.8017,1.8017,1.835,1.8781,0.0,0.0,0.0,0.0,0.0,2.0794,2.0794,2.0794,2.0794,2.0794,2.0794,2.0679,2.0427,2.015,1.9795,1.924,1.8572,0.0,0.0,0.0,0.0,0.0,0.0,0.0,1.7413,1.7086,1.6714,1.629,1.5957,1.5792,1.5792,1.558,1.5491,1.5491,0.0,0.0,0.0,0.0,0.0,0.0,0.0,0.0,0.0,0.0,0.0,0.0,0.0,0.0,0.0,0.0,0.0,0.0,0.0,1.5956,1.6319,0.0,1.5982,1.6303,1.6305,1.6307,1.6237,1.5868,1.6053,1.6307,1.6307,1.663,1.6908,1.6908,1.7304,1.7545,1.7003,1.7774,1.8138,1.7072,0.0,0.0,1.8507,1.9696,0.0,0.0,0.0,1.9592,1.9592,1.9096,1.8781,1.8781,1.8781,0.0,1.8781,1.8781,1.8781,1.8781,1.8781,1.8781,1.8781,1.8781,1.8781,1.8781,1.8781,1.8781,1.8781,1.8781,1.8781,1.8781,1.8781,1.8781,0.0,1.8781,1.8781,1.8781,1.8781,1.8781,1.8781,1.8781,1.8781,1.8781,0.0,0.0,0.0,0.0,0.0,0.0,2.0794,2.0794,2.0794,2.0794,2.0794,2.0712,2.0427,2.015,1.9848,1.9442,1.8917,0.0,0.0,0.0,0.0,0.0,0.0,0.0,1.7747,1.7406,1.7186,1.7047,1.6714,1.6414,1.6129,1.6086,1.591,1.5703,1.5614,1.5781,0.0,0.0,0.0,0.0,0.0,0.0,0.0,0.0,0.0,0.0,0.0,0.0,0.0,0.0,0.0,0.0,0.0,0.0,0.0,1.6414,1.644,1.6718,1.6698,1.6691,1.67,1.6586,1.6621,1.6691,1.6691,1.6804,1.7012,1.7373,1.7569,1.7867,1.8442,1.8509,1.8408,1.8037,1.9008,0.0,0.0,0.0,0.0,1.952,1.919,1.905,0.0,0.0,1.8781,1.8781,1.8781,1.8781,1.8781,1.8781,1.8781,1.8781,1.8781,1.8781,1.8781,1.8781,1.8781,1.8781,1.8781,1.8781,1.8781,1.8781,1.8781,1.8781,1.8781,1.8781,1.8781,1.8781,1.8781,1.8781,1.8781,1.8781,1.8781,1.8781,1.8781,1.8781,0.0,0.0,0.0,0.0,0.0,0.0,2.0811,2.0794,2.0761,2.0663,2.0662,2.0561,2.0289,1.9993,1.9726,1.953,1.9143,0.0,0.0,0.0,0.0,0.0,0.0,0.0,1.8123,1.7733,1.7516,1.7516,1.7094,1.6693,1.629,1.6501,1.6414,1.6104,1.6319,1.6595,0.0,0.0,0.0,0.0,0.0,0.0,1.8437,0.0,0.0,0.0,0.0,0.0,0.0,0.0,0.0,0.0,0.0,0.0,0.0,0.0,1.6722,1.6908,1.6908,1.6908,1.6908,1.6908,1.6908,1.6943,1.7176,1.721,1.7339,1.791,1.8172,1.8442,1.89,1.89,1.8734,1.8533,1.9243,0.0,0.0,0.0,0.0,1.9678,0.0,0.0,0.0,1.8781,1.8781,1.8781,1.8781,1.8781,1.8781,1.8781,1.8781,1.8781,1.8781,1.8781,1.8781,1.8781,1.8781,1.8781,1.8781,1.8781,1.8781,1.8781,1.8781,1.8781,1.8781,1.8781,0.0,1.8781,1.8781,1.8781,1.8781,1.8781,1.8781,1.8781,1.8781,1.8781,0.0,0.0,0.0,0.0,0.0,0.0,0.0,2.0778,2.0678,2.041,2.0376,2.0272,1.999,1.969,1.9479,1.946,1.9236,0.0,0.0,0.0,0.0,0.0,0.0,1.8498,1.8498,1.7996,1.7754,1.7808,1.7285,1.6854,1.6501,1.7013,1.7057,1.676,1.7243,1.746,1.7483,1.8037,1.8253,1.8301,1.8794,1.8987,0.0,0.0,0.0,0.0,0.0,0.0,0.0,0.0,0.0,0.0,0.0,0.0,0.0,0.0,0.0,0.0,0.0,1.7012,1.6968,1.6968,1.6978,1.7141,1.7638,1.7774,0.0,1.8442,1.8934,1.9144,1.8643,1.8967,1.9154,1.8617,1.9264,0.0,0.0,2.0703,0.0,0.0,2.0292,0.0,1.8966,1.8874,1.8827,1.8781,1.8827,1.8827,1.8781,1.8781,1.8827,1.8874,1.8827,1.8781,1.8781,1.8781,1.8781,1.8781,1.8781,1.8781,1.8781,1.8781,1.8781,0.0,1.8781,1.8781,1.8781,1.8781,1.8781,1.8781,1.8781,1.8781,1.8781,1.8781,1.8781,1.8781,0.0,0.0,0.0,0.0,0.0,0.0,0.0,0.0,0.0,0.0,2.0096,1.9957,1.9657,1.9548,1.942,0.0,0.0,0.0,0.0,0.0,0.0,0.0,1.8498,1.8498,1.8498,1.8228,1.8309,1.8776,1.8484,1.8379,1.8435,1.8578,1.8448,1.8103,1.7938,1.7922,1.8049,1.8578,1.8806,1.8819,1.8939,1.8987,0.0,0.0,0.0,0.0,1.8934,1.8907,0.0,0.0,0.0,0.0,0.0,0.0,0.0,0.0,1.8902,1.9354,1.87,0.0,1.751,1.751,1.7808,1.8172,0.0,1.8307,1.8465,1.9,0.0,1.9266,1.9133,1.9233,1.9248,1.9065,0.0,0.0,1.965,0.0,0.0,2.0296,1.9965,1.9691,1.9409,1.9409,1.9234,1.8827,1.9188,1.9234,1.8827,1.8781,1.9012,1.9417,1.9004,1.8781,1.8781,1.8781,1.8781,1.8781,1.8781,1.8781,1.8781,1.8781,1.8781,1.8781,1.8781,1.8781,1.8781,1.8781,1.8781,1.8781,1.8781,1.8781,1.8781,1.8781,1.8781,1.8781,0.0,0.0,0.0,0.0,0.0,0.0,0.0,0.0,0.0,0.0,1.9762,1.9654,1.9347,1.931,1.9254,0.0,0.0,0.0,0.0,0.0,0.0,1.8793,1.8774,1.8736,1.8625,1.8705,1.8871,1.91,1.9177,1.9158,1.9116,1.9344,1.929,1.8973,1.9001,1.8946,1.8862,1.9155,1.9172,1.8987,1.8987,0.0,0.0,0.0,0.0,0.0,1.8987,1.8987,0.0,1.8987,1.8907,1.8822,0.0,0.0,0.0,0.0,1.9642,1.9835,1.9354,1.8767,1.8273,1.8104,1.8307,1.8566,1.88,0.0,0.0,0.0,0.0,0.0,0.0,0.0,0.0,0.0,1.9429,0.0,0.0,0.0,2.0462,2.0621,2.0411,2.0138,0.0,1.992,1.9783,1.9517,1.9737,1.9691,1.9188,1.9188,1.9279,1.9592,1.9325,1.9188,1.9188,1.892,1.8781,1.8781,1.8781,1.8781,1.8781,1.8781,1.8781,1.8781,1.8781,1.8781,1.8781,1.8781,1.8781,1.8781,1.8781,1.8781,1.8781,1.8781,1.8781,1.8781,0.0,0.0,0.0,0.0,0.0,0.0,0.0,0.0,0.0,0.0,0.0,0.0,0.0,0.0,0.0,0.0,0.0,0.0,0.0,0.0,1.9145,1.9246,1.9261,1.917,1.8999,1.9389,1.9551,1.9482,1.974,1.9759,1.9518,1.994,1.9915,1.9541,1.999,1.9939,1.9512,1.9512,1.9303,1.8987,1.8987,0.0,0.0,0.0,0.0,0.0,0.0,0.0,0.0,1.8987,1.8987,1.9083,1.964,0.0,0.0,0.0,0.0,0.0,1.9868,1.9519,1.9133,1.8777,1.871,1.8844,1.9309,0.0,0.0,0.0,0.0,0.0,0.0,1.9468,0.0,0.0,0.0,0.0,2.0449,2.086,2.108,2.1132,2.1042,0.0,2.0473,2.0428,2.0382,2.0292,2.0382,2.0192,1.9729,1.9729,1.9737,1.982,1.9729,1.9729,1.982,1.9279,1.9012,1.892,1.892,1.8874,1.8781,1.8781,1.8781,1.8781,1.8781,1.8781,1.8781,1.8781,1.8781,1.8781,1.8781,1.8781,1.8781,1.8781,1.8781,1.8781,0.0,0.0,0.0,0.0,0.0,0.0,0.0,0.0,0.0,0.0,0.0,0.0,0.0,0.0,0.0,0.0,0.0,0.0,0.0,1.9101,1.9348,1.9928,1.9943,1.9923,1.9904,2.0302,2.0727,2.121,2.0874,2.0965,2.1376,2.1233,2.0788,2.0079,2.0169,1.9798,1.9093,1.9093,1.9066,1.8987,1.8987,0.0,0.0,0.0,0.0,0.0,0.0,0.0,0.0,1.8987,1.8987,1.9083,1.964,0.0,0.0,0.0,0.0,0.0,2.1451,2.073,2.0009,1.9671,1.9726,1.9868,1.9976,0.0,0.0,0.0,0.0,0.0,0.0,1.8819,1.8954,0.0,0.0,2.1251,0.0,0.0,2.122,2.1552,0.0,2.0952,2.0907,2.0907,2.0736,2.0337,2.069,2.0682,2.0201,2.0201,2.0374,2.0763,2.0419,2.0374,2.0772,2.0329,1.9874,1.9463,1.9463,1.9234,1.8781,1.8781,1.8781,1.8781,1.8781,1.8781,1.8781,1.8781,1.8781,1.8781,1.8781,1.8781,1.8781,1.8781,1.8781,1.8781,0.0,0.0,0.0,0.0,0.0,0.0,0.0,0.0,0.0,0.0,0.0,0.0,0.0,0.0,0.0,0.0,0.0,0.0,0.0,1.9101,1.9406,2.0074,2.0407,2.0535,2.0427,2.0926,2.1275,2.1449,2.1411,2.1531,2.1793,2.1544,2.1191,2.0847,2.0847,2.051,1.9952,1.9734,1.9526,1.9303,0.0,0.0,0.0,0.0,0.0,0.0,0.0,0.0,0.0,0.0,1.8987,1.9131,1.9977,0.0,0.0,0.0,0.0,0.0,2.2018,2.1526,2.089,2.0247,1.9639,1.9231,1.9231,0.0,0.0,0.0,0.0,0.0,0.0,0.0,1.896,2.0052,0.0,2.104,2.0863,2.119,2.1476,0.0,0.0,2.1365,2.1365,2.1365,2.1275,2.106,2.1284,2.1186,2.069,2.069,2.0781,2.0988,2.0772,2.0916,2.1365,2.115,2.0699,1.9965,1.9737,1.96,1.9608,1.9371,1.9234,1.9234,1.9234,1.9058,1.8781,1.8781,1.8781,1.8781,1.8781,1.8781,1.8781,1.8781,1.8781,1.8781,0.0,0.0,0.0,0.0,0.0,0.0,0.0,0.0,0.0,0.0,0.0,0.0,0.0,0.0,0.0,0.0,0.0,0.0,0.0,1.9246,1.9624,2.0277,2.0901,2.1151,2.1011,2.1606,2.181,2.1595,2.1806,2.1817,2.1712,2.1496,2.1385,2.1337,2.1191,2.0932,2.0572,2.0118,1.9734,1.9434,0.0,0.0,0.0,0.0,0.0,0.0,0.0,0.0,0.0,0.0,0.0,0.0,0.0,0.0,0.0,2.1921,2.2197,2.2197,2.2197,2.1851,2.1356,2.0623,1.9617,1.8744,1.8543,1.8509,0.0,0.0,0.0,0.0,0.0,1.8902,0.0,1.9993,2.0463,2.0828,2.1053,2.1475,2.1696,2.1696,2.1696,2.1696,2.1696,2.1865,2.1874,2.1687,2.1865,2.1731,2.1177,2.1177,2.1177,2.1177,2.1177,2.132,2.1696,2.1696,2.1284,2.0464,2.0093,2.0056,2.0292,1.992,1.9783,1.9783,1.9783,1.9509,1.915,1.915,1.915,1.915,1.915,1.9096,1.9012,1.9012,1.892,1.8781,0.0,0.0,0.0,0.0,0.0,0.0,0.0,0.0,0.0,0.0,0.0,0.0,0.0,0.0,0.0,0.0,0.0,0.0,1.9101,1.9682,2.0306,2.0901,2.1569,2.1917,2.191,2.2511,2.2703,2.2521,2.2273,2.1926,2.1423,2.1423,2.1323,2.1188,2.056,2.0195,2.0016,1.937,1.9066,1.904,1.9013,0.0,0.0,0.0,0.0,0.0,0.0,0.0,0.0,0.0,0.0,0.0,0.0,0.0,2.1464,2.2029,2.2197,2.2197,2.2197,2.1588,2.0942,2.0878,2.0279,0.0,1.8677,1.8509,0.0,1.8983,0.0,0.0,0.0,1.9784,2.0224,2.0663,2.1113,2.1343,2.1139,0.0,2.1696,2.1696,2.1696,2.1696,2.1696,2.2309,2.2451,2.1731,2.2309,2.2397,2.1687,2.1642,2.1642,2.1642,2.1642,2.1687,2.1696,2.1696,2.1463,2.0952,2.0907,2.0682,2.0292,2.0292,2.0246,2.0246,2.0246,2.0246,2.0201,2.0201,2.0201,2.0201,2.0201,1.992,1.9546,1.9546,1.9234,1.8781,0.0,0.0,0.0,0.0,0.0,0.0,0.0,0.0,0.0,0.0,0.0,1.9101,1.9101,0.0,0.0,0.0,0.0,0.0,1.9696,1.9957,2.0553,2.1569,2.1859,2.2178,2.2548,2.2772,2.2865,2.2797,2.2555,2.2254,2.1902,2.1568,2.1458,2.1541,2.097,2.0623,2.0446,1.9965,1.9617,1.9356,1.9093,1.8987,0.0,0.0,0.0,0.0,0.0,0.0,0.0,0.0,1.9853,2.0394,2.0935,2.1247,2.1512,2.2041,2.2197,2.2197,2.2197,2.1557,2.089,2.089,2.0074,0.0,0.0,1.8506,1.8582,1.8206,1.8131,0.0,0.0,0.0,2.0386,2.1502,2.1414,2.1293,2.1438,2.1595,2.1696,2.1696,2.1696,2.1865,2.2353,2.2627,2.2882,2.2984,2.3246,2.329,2.3018,2.2608,2.2564,2.2984,2.2608,2.2397,2.2397,2.2397,2.2043,2.141,2.1132,2.1051,2.115,2.0871,2.0736,2.0736,2.0736,2.0555,2.0292,2.0292,2.0292,2.0292,2.0292,2.0201,2.0011,1.9729,1.9455,1.9234,0.0,0.0,0.0,0.0,0.0,0.0,0.0,0.0,1.9101,0.0,0.0,0.0,0.0,1.9101,0.0,0.0,0.0,0.0,2.0335,2.0582,2.109,2.196,2.2178,2.2475,2.2888,2.2888,2.2865,2.2797,2.2578,2.237,2.2184,2.1722,2.1616,2.1769,2.1191,2.0896,2.0771,2.0245,1.9849,1.9552,1.9146,1.8987,0.0,0.0,0.0,0.0,0.0,0.0,0.0,0.0,2.0406,2.0935,2.1296,2.1524,2.1728,2.2089,2.203,2.1788,2.1788,2.1345,2.0826,2.0526,0.0,0.0,1.8558,1.8518,1.8466,1.7805,1.8229,0.0,2.0302,0.0,0.0,0.0,2.1583,2.1298,2.1943,2.2043,2.2132,2.2344,2.2378,2.2555,2.3047,2.3309,2.356,2.379,2.4016,2.4059,2.379,2.3377,2.3343,2.38,2.3333,2.3135,2.3135,2.3135,2.274,2.2043,2.1722,2.1633,2.1687,2.1365,2.123,2.123,2.123,2.1051,2.0744,2.0744,2.0744,2.0744,2.0744,2.0654,2.0464,2.0138,1.9957,1.9783,0.0,0.0,0.0,0.0,0.0,0.0,0.0,0.0,1.9101,1.9101,1.9101,0.0,0.0,0.0,0.0,0.0,0.0,0.0,2.0959,2.1627,2.1989,2.2004,2.2577,2.2888,2.2888,2.2888,2.2797,2.2615,2.2347,2.2208,2.2208,2.1926,2.1793,2.1769,2.1104,2.0795,2.0746,1.9965,1.9617,1.9552,1.9172,1.9025,1.8999,0.0,0.0,0.0,0.0,0.0,0.0,0.0,2.0942,2.1416,2.1416,2.1777,2.2197,2.2197,2.1588,2.091,2.091,2.089,2.0655,0.0,0.0,0.0,1.9121,1.8533,1.8278,1.8156,1.9051,2.0088,2.0709,2.0651,0.0,2.1931,2.1549,2.1516,2.2648,2.2803,2.3047,2.3714,2.38,2.38,2.379,2.4456,2.4594,2.3887,2.4509,2.4594,2.3844,2.379,2.379,2.3844,2.379,2.379,2.379,2.379,2.3464,2.2794,2.2794,2.2407,2.1696,2.1696,2.1696,2.1696,2.1696,2.1696,2.1696,2.1696,2.1696,2.1696,2.1696,2.1419,2.1042,2.1042,2.0736,2.0337,0.0,0.0,0.0,0.0,0.0,0.0,0.0,0.0,1.9101,1.9101,1.9101,0.0,0.0,0.0,0.0,0.0,0.0,0.0,2.1656,2.1888,2.2193,2.262,2.2786,2.2888,2.2888,2.2888,2.2865,2.2797,2.2729,2.2684,2.2684,2.1898,2.1732,2.2044,2.0883,2.0372,2.0372,2.022,1.9785,1.9223,1.9867,1.9961,1.9767,0.0,0.0,0.0,0.0,0.0,0.0,0.0,0.0,0.0,2.1957,2.2065,2.2197,2.2197,2.2018,2.1819,2.1819,2.089,0.0,2.0386,0.0,0.0,0.0,1.9309,0.0,0.0,1.9746,2.0222,2.1192,2.1123,0.0,2.2404,2.2436,2.2431,2.274,2.3222,2.3594,2.38,2.38,2.4016,2.4509,2.4775,2.4988,2.5242,2.5464,2.5506,2.5285,2.485,2.4807,2.5242,2.4807,2.4551,2.4551,2.4551,2.4198,2.3507,2.3507,2.2862,2.1696,2.1696,2.1696,2.1696,2.1696,2.1696,2.1696,2.1696,2.1696,2.1731,2.2264,2.2397,2.2299,2.2403,2.2394,2.2129,0.0,0.0,0.0,0.0,0.0,0.0,1.9101,1.9101,1.9203,1.9464,1.9508,1.9595,0.0,0.0,0.0,2.0828,2.1191,0.0,2.2316,2.2345,2.2519,2.2873,2.2888,2.2888,2.2888,2.2888,2.2888,2.2888,2.2888,2.2888,2.2888,2.2203,2.1851,2.1779,2.1129,2.0703,2.0488,2.0669,2.0642,2.0435,2.0623,2.068,2.0677,0.0,0.0,0.0,0.0,0.0,0.0,0.0,0.0,0.0,2.2197,2.2197,2.2197,2.2197,2.1956,2.1683,2.1683,2.089,0.0,1.9857,1.9237,1.874,1.9036,0.0,0.0,0.0,2.0114,2.0407,2.1268,2.1382,0.0,2.2624,2.2803,2.3013,2.357,2.3993,2.4327,2.4584,2.4627,2.4807,2.5253,2.5295,2.5464,2.5853,2.5895,2.5895,2.5895,2.5506,2.5464,2.5906,2.5517,2.5295,2.5295,2.5295,2.4935,2.4241,2.4241,2.3637,2.2511,2.2264,2.2132,2.2132,2.183,2.1696,2.1696,2.1696,2.1696,2.1776,2.2495,2.2803,2.2838,2.3236,2.34,2.327,0.0,0.0,1.9101,1.9101,0.0,0.0,1.9188,1.9232,1.9493,2.0103,2.0175,2.0393,0.0,0.0,0.0,2.1946,2.2048,2.2323,2.2859,2.2888,2.2888,2.2888,2.2888,2.2888,2.2888,2.2888,2.2888,2.2888,2.2888,2.2888,2.2888,2.2684,2.2152,2.1391,2.166,2.1519,2.1102,2.1274,2.1811,2.2456,2.1362,2.1262,2.1658,2.1027,0.0,0.0,0.0,0.0,0.0,0.0,0.0,0.0,2.2197,2.2197,2.2197,2.2197,2.162,2.1017,2.1017,2.0953,0.0,1.887,1.9229,0.0,1.9613,1.9107,1.899,1.981,0.0,2.064,2.1034,2.1412,2.1954,2.2671,2.2838,2.3353,2.469,2.4946,2.5211,2.5812,2.5895,2.5895,2.5895,2.5895,2.5895,2.5895,2.5895,2.5895,2.5895,2.5895,2.5895,2.5895,2.5895,2.5895,2.5895,2.5895,2.5591,2.4988,2.4988,2.4637,2.3973,2.3222,2.2882,2.2838,2.2176,2.1865,2.1785,2.1785,2.1785,2.1785,2.2574,2.2882,2.2969,2.3724,2.3973,2.3973,0.0,0.0,1.9101,1.9101,0.0,0.0,1.9885,2.0291,2.064,2.0785,2.0799,2.0857,2.0988,2.1467,0.0,2.1989,2.2432,2.2765,2.2888,2.2888,2.2888,2.2888,2.2888,2.2888,2.2888,2.2888,2.2888,2.2888,2.2888,2.2888,2.2888,2.2486,2.2428,2.2662,2.1851,2.1915,2.2578,2.1894,2.1794,2.2129,2.1948,2.189,2.1877,2.2161,2.2244,0.0,0.0,0.0,0.0,0.0,0.0,0.0,2.2197,2.2197,2.2197,2.2197,2.2061,2.1925,2.1925,2.142,0.0,0.0,1.992,1.9436,1.8995,1.9031,1.9429,2.0403,2.0559,2.064,2.1034,2.1412,2.1954,2.2671,2.3256,2.3897,2.4775,2.5338,2.5728,2.5895,2.5895,2.5895,2.5895,2.5895,2.5895,2.5895,2.5895,2.5895,2.5895,2.5895,2.5895,2.5895,2.5895,2.5895,2.5895,2.5895,2.5812,2.5686,2.5686,2.5591,2.5422,2.4155,2.3584,2.3594,2.341,2.3038,2.2574,2.2574,2.223,2.182,2.3071,2.3584,2.3724,2.4988,2.5464,2.5369,0.0,0.0,0.0,0.0,0.0,0.0,0.0,0.0,2.1119,2.1438,2.1481,2.1583,2.1866,2.2214,0.0,0.0,2.2722,2.2888,2.2888,2.2888,2.2888,2.2888,2.2888,2.2888,2.2888,2.2888,2.2797,2.2555,2.2797,2.2843,2.2766,2.2813,2.2658,2.2394,2.2564,2.2658,2.2615,2.2558,2.2644,2.2832,2.2543,2.2551,2.2706,2.2688,2.2678,2.2635,2.2586,0.0,0.0,0.0,0.0,0.0,0.0,0.0,2.2197,2.2197,2.2197,2.2197,2.2197,0.0,0.0,2.1557,0.0,2.0102,2.0115,2.0284,2.0664,2.1428,2.131,2.1212,2.1823,2.2368,2.295,2.3701,2.4122,2.4584,2.5295,2.5686,2.5895,2.5895,2.5895,2.5895,2.5895,2.5895,2.5895,2.5895,2.5895,2.5895,2.5895,2.5895,2.5895,2.5895,2.5895,2.5895,2.5895,2.5895,2.5895,2.5895,2.5895,2.5895,2.5853,2.4807,2.4145,2.38,2.38,2.3584,2.3299,2.3299,2.3038,2.2809,2.3897,2.4327,2.4456,2.5506,2.5895,2.5853,0.0,0.0,0.0,0.0,0.0,0.0,0.0,0.0,0.0,2.2091,2.2164,2.2345,2.2844,2.2888,2.2888,0.0,0.0,0.0,2.2775,2.2775,2.2775,2.2775,2.2865,2.2888,2.2888,2.282,2.2638,2.2324,2.2692,2.2772,2.261,2.3165,2.3003,2.2295,2.3339,2.342,2.2767,2.3098,2.3501,2.3859,2.3108,2.3065,2.3442,2.3017,2.2909,2.3017,2.2909,2.2939,2.2987,2.2878,0.0,0.0,0.0,0.0,2.229,2.229,2.2247,2.2216,2.2216,0.0,2.2206,2.2252,2.1702,0.0,2.1705,2.18,2.1966,2.2493,2.2165,2.1984,2.2805,2.342,2.4059,2.4775,2.4903,2.5115,2.5812,2.5895,2.5895,2.5895,2.5895,2.5895,2.5895,2.5895,2.5895,2.5895,2.5895,2.5895,2.5895,2.5895,2.5895,2.5895,2.5895,2.5895,2.5895,2.5895,2.5895,2.5895,2.5895,2.5895,2.5895,2.5338,2.4722,2.4145,2.4145,2.4102,2.3973,2.3973,2.393,2.3887,2.4594,2.4903,2.4988,2.5644,2.5895,2.5895,0.0,0.0,0.0,0.0,0.0,0.0,0.0,0.0,0.0,0.0,2.2772,2.2801,2.2888,2.2888,2.2888,2.2888,2.2532,2.2301,2.2301,0.0,0.0,2.2301,2.2684,2.2888,2.2888,2.2486,2.2463,2.2797,2.2752,2.2679,2.2605,2.2909,2.3737,2.4831,2.3607,2.3926,2.526,2.3357,2.3259,2.4337,2.3535,2.3143,2.3017,2.3352,2.3488,2.3488,2.3488,2.3488,2.3488,2.3488,2.3095,0.0,0.0,0.0,2.2616,2.2616,2.2525,2.2359,0.0,0.0,2.2206,0.0,2.2172,2.2118,0.0,0.0,2.2376,0.0,2.2676,2.263,2.3511,2.3757,2.4059,2.4775,2.4903,2.5115,2.5812,2.5895,2.5895,2.5895,2.5895,2.5895,2.5895,2.5895,2.5895,2.5895,2.5895,2.5895,2.5895,2.5895,2.5895,2.5895,2.5895,2.5895,2.5895,2.5895,2.5895,2.5895,2.5895,2.5895,2.5895,2.5812,2.5728,2.5633,2.5633,2.5295,2.4765,2.4765,2.437,2.3887,2.4594,2.4903,2.4988,2.5644,2.5895,2.5895,0.0,0.0,0.0,0.0,0.0,0.0,0.0,0.0,0.0,0.0,0.0,2.2888,2.2888,2.2684,2.2615,2.2865,2.2463,2.2301,2.2578,2.2347,2.2208,2.2208,2.2109,2.2203,2.2486,2.2301,2.24,2.2785,2.2836,2.3175,2.3713,2.3269,2.3366,2.3919,2.438,2.4453,2.4205,2.4034,2.3783,2.3484,2.3458,2.3203,2.28,2.3017,2.3108,2.3108,2.3185,2.3215,2.3245,2.3514,2.3198,2.2739,2.2878,0.0,0.0,0.0,2.2402,2.2389,2.2309,2.2247,2.2344,0.0,2.3124,2.3235,2.3636,0.0,2.3687,2.3748,2.3831,2.4011,2.4375,2.4722,2.5062,2.5422,2.5464,2.5549,2.5853,2.5895,2.5895,2.5895,2.5895,2.5895,2.5895,2.5895,2.5895,2.5895,2.5895,2.5895,2.5895,2.5895,2.5895,2.5895,2.5895,2.5895,2.5895,2.5895,2.5895,2.5895,2.5895,2.5895,2.5895,2.5895,2.5895,2.5895,2.5895,2.5728,2.5464,2.5464,2.5285,2.502,2.5327,2.5464,2.5506,2.577,2.5895,2.5895,0.0,0.0,0.0,0.0,0.0,0.0,0.0,0.0,0.0,0.0,0.0,2.2888,2.2888,0.0,0.0,0.0,2.2147,2.1874,2.2109,2.1898,2.1779,2.1779,2.167,2.1803,2.2184,2.2362,2.2538,2.2779,2.3208,2.3693,2.4204,2.4012,2.3533,2.2859,2.4408,2.4551,2.3708,2.4237,2.3959,2.315,2.3471,2.3245,2.2708,2.2878,2.2939,2.2939,2.3047,2.3108,2.3198,2.3514,2.3258,2.286,2.3047,2.2866,0.0,0.0,0.0,0.0,0.0,0.0,2.2414,2.3372,2.3697,2.398,0.0,0.0,2.4858,0.0,2.4982,2.5307,2.5276,2.563,2.5895,2.5895,2.5895,2.5895,2.5895,2.5895,2.5895,2.5895,2.5895,2.5895,2.5895,2.5895,2.5895,2.5895,2.5895,2.5895,2.5895,2.5895,2.5895,2.5895,2.5895,2.5895,2.5895,2.5895,2.5895,2.5895,2.5895,2.5895,2.5895,2.5895,2.5895,2.5895,2.5895,2.5895,2.5895,2.5895,2.5895,2.5895,2.5895,2.5895,2.5895,2.5895,2.5895,2.5895,0.0,0.0,0.0,0.0,0.0,0.0,0.0,0.0,0.0,0.0,0.0,2.2888,2.2888,2.2486,2.2208,2.2231,2.1275,2.0485,2.0003,2.0409,2.0684,2.0684,2.1636,0.0,2.2208,2.2746,2.3045,2.2975,2.4007,2.4069,2.3223,2.5217,2.5037,2.3058,2.2927,2.3943,2.5605,2.3458,2.3173,2.4176,2.3754,2.3245,2.2769,2.3322,2.3547,2.3547,2.3547,2.3666,2.3771,2.3771,2.3471,2.3078,2.3108,2.3065,2.3078,0.0,0.0,0.0,0.0,2.2197,0.0,2.2883,2.3433,0.0,0.0,0.0,2.5326,2.5424,2.5866,2.6267,2.6291,2.6103,2.5895,2.5895,2.5895,2.5895,2.5895,2.5895,2.5895,2.5895,2.5895,2.5895,2.5895,2.5895,2.5895,2.5895,2.5895,2.5895,2.5895,2.5895,2.5895,2.5895,2.5895,2.5895,2.5895,2.5895,2.5895,2.5895,2.5895,2.5895,2.5895,2.5895,2.5895,2.5895,2.5895,2.5895,2.5895,2.5895,2.5895,2.5895,2.5895,2.5895,2.5895,2.5895,2.5895,2.5895,0.0,0.0,0.0,0.0,0.0,0.0,0.0,0.0,0.0,0.0,0.0,0.0,0.0,2.1992,2.1694,2.1694,2.1334,2.1028,2.0832,2.1,2.1107,2.1107,2.1525,2.1904,2.2255,2.2482,2.3039,2.3957,2.3744,2.4162,2.5135,2.4532,2.4568,2.5134,2.4639,2.4221,2.3826,2.3796,2.3501,2.3125,2.3458,2.3143,2.2512,2.2653,2.2714,2.2714,2.2793,2.2854,2.2975,2.3407,2.3228,2.2909,2.321,2.315,2.2969,2.2969,2.286,0.0,0.0,0.0,0.0,2.2994,2.3474,2.3938,2.441,2.4892,2.5266,2.5085,2.546,2.5709,2.5467,2.6166,2.6745,2.6745,2.6745,2.6745,2.6745,2.6498,2.629,2.629,2.629,2.6166,2.5937,2.6135,2.6177,2.5937,2.5895,2.5895,2.5895,2.5895,2.5895,2.5895,2.5895,2.5895,2.5895,2.5895,2.5895,2.5895,2.5895,2.5895,2.5895,2.5895,2.5895,2.5895,2.5895,2.5895,2.5895,2.5895,2.5895,2.5895,2.5895,2.5895,2.5895,2.5895,2.5895,2.5895,0.0,0.0,0.0,0.0,0.0,2.2752,2.2278,2.2463,2.2555,2.2254,0.0,0.0,0.0,0.0,2.1855,2.1478,2.1427,2.1427,2.1427,2.1446,2.1415,2.1415,2.1637,2.1924,2.228,2.2496,2.3071,2.4028,2.3836,2.4243,2.5217,2.441,2.4467,2.5217,2.5035,2.4582,2.3901,2.3914,2.359,2.31,2.3173,2.2854,2.234,2.2216,2.2197,2.2216,2.2359,2.2451,2.2574,2.3072,2.306,2.2891,2.315,2.306,2.2939,2.3078,2.2939,0.0,2.2555,0.0,0.0,0.0,0.0,2.3673,2.4145,0.0,2.5025,2.4981,2.5359,2.5629,2.5359,2.6275,2.7057,2.6938,2.707,2.7185,2.7185,2.694,2.6723,2.6723,2.6723,2.661,2.6385,2.6569,2.661,2.6343,2.6343,2.626,2.6093,2.626,2.626,2.6093,2.5979,2.5895,2.5895,2.5895,2.5895,2.5895,2.5895,2.5895,2.5895,2.5895,2.5895,2.5895,2.5895,2.5895,2.5895,2.5895,2.5895,2.5895,2.5895,2.5895,2.5895,2.5895,2.5895,2.5895,0.0,0.0,2.2888,2.2865,2.288,2.2735,2.2259,2.2203,2.2217,2.2203,0.0,0.0,0.0,0.0,0.0,2.1592,2.1493,2.1493,2.1493,2.1506,2.1506,2.1506,2.2045,2.2332,2.2332,2.2938,2.3178,2.3137,2.4367,2.4353,2.3215,2.4992,2.4879,2.3245,2.3809,2.4908,2.6122,2.3725,2.3382,2.4355,2.2962,2.2328,2.2216,2.2228,2.2197,2.2216,2.2359,2.2525,2.2708,2.286,2.2969,2.3047,2.2939,2.2909,2.2987,2.3471,2.3185,2.2678,0.0,0.0,0.0,0.0,0.0,0.0,2.3661,0.0,2.4662,2.518,2.5709,2.6069,2.6069,2.6489,2.6764,2.6419,2.6858,2.7203,2.7226,2.7226,2.7226,2.7226,2.7226,2.7226,2.7185,2.7226,2.7226,2.7185,2.7185,2.7021,2.6528,2.694,2.6981,2.6528,2.6135,2.5937,2.5937,2.5937,2.5937,2.5906,2.5906,2.5895,2.5895,2.5895,2.5895,2.5895,2.5895,2.5895,2.5895,2.5895,2.5895,2.5895,2.5895,2.5895,2.5895,2.5895,2.5895,2.5895,0.0,2.2888,2.2797,2.244,2.2715,2.2662,2.1758,2.2285,2.2671,0.0,0.0,0.0,2.2525,2.2175,2.1829,2.1536,2.1493,2.1493,2.1493,2.1857,2.2083,2.2083,2.2576,2.2879,2.2879,2.3532,2.3839,2.3838,2.4169,2.4605,2.5118,2.4263,2.4553,2.5701,2.3989,2.4279,2.5879,2.3855,2.3233,2.3568,2.2896,2.2775,2.295,2.2389,2.2197,2.2197,2.2247,2.2278,2.234,2.2482,2.2561,2.2635,2.2848,2.2969,2.3168,2.3767,2.3826,0.0,2.4134,0.0,0.0,0.0,0.0,0.0,2.3425,2.3948,2.452,2.4676,2.5155,2.5528,2.5528,2.5961,2.6296,2.6217,2.6975,2.77,2.8079,2.7909,2.7708,2.7708,2.7708,2.7574,2.7226,2.7534,2.7574,0.0,2.7185,2.7144,2.701,2.7144,2.7144,2.7021,2.6899,2.6828,2.6828,2.6828,2.6663,2.6332,2.6332,2.6177,2.5895,2.5895,2.5895,2.5895,2.5895,2.5895,2.5895,2.5895,2.5895,2.5895,2.5895,2.5895,2.5895,2.5895,2.5895,2.5895,2.3374,2.3529,2.3529,2.3001,2.3175,2.31,2.2271,2.2485,2.2604,0.0,0.0,0.0,2.3041,2.2515,2.2171,2.2171,2.2171,2.2171,2.2171,2.2443,2.2631,2.2631,2.3187,2.3395,2.3108,2.3505,2.384,2.4102,2.384,2.4213,2.5118,2.4031,2.4134,2.5217,2.3972,2.3855,2.4637,2.4396,2.409,2.3764,2.2922,2.285,2.3182,2.2474,2.2197,2.2228,2.2247,2.2485,2.2705,2.2567,2.2525,2.2665,2.3399,2.3518,2.356,2.4452,2.4553,0.0,0.0,0.0,0.0,0.0,0.0,0.0,2.3915,2.4112,2.4382,2.4759,2.5095,2.5312,2.5312,2.5564,2.5841,2.6057,2.6635,2.7236,2.7777,2.7627,2.747,2.747,2.766,2.7711,2.7449,2.786,2.803,2.7765,2.7765,2.7765,2.7765,2.7389,2.7267,2.7493,2.7307,2.7185,2.7185,2.7185,2.7062,2.6775,2.6599,2.6362,2.6135,2.5979,2.5895,2.5895,2.6093,2.6135,2.6135,2.6135,2.6052,2.5895,2.5895,2.5895,2.5895,2.5895,2.5895,2.5895,0.0,2.4223,2.4412,2.3817,2.377,2.3646,2.3176,2.2695,2.2393,0.0,2.2864,2.3386,2.392,2.3454,2.3108,2.3108,2.3108,2.3108,2.3108,2.3108,2.3108,2.3108,2.3662,2.3721,2.3108,2.3222,2.3537,2.3985,2.3537,2.3566,2.4102,2.4102,2.3839,2.3335,2.3891,2.3811,2.3354,2.5051,2.5389,2.4661,2.3219,2.2946,2.3298,2.2568,2.2318,2.2397,2.2509,2.2969,2.3469,2.2991,2.2862,2.3126,2.4305,2.4281,2.405,2.5353,2.5312,0.0,0.0,0.0,0.0,2.4886,2.4437,0.0,2.4842,2.4601,2.4408,2.5055,2.5263,2.5358,2.531,2.5346,2.5504,2.5973,2.6046,2.6226,2.6813,2.6898,2.6898,2.6898,2.7318,2.7594,2.7594,2.8026,2.833,2.833,2.839,2.845,2.851,2.7765,2.7522,2.7962,2.7574,2.7348,2.7348,2.7348,2.7307,2.7267,2.6857,2.661,2.6569,2.6218,2.6021,2.6063,2.6404,2.6569,2.6569,2.6569,2.6332,2.5979,2.5906,2.5895,2.5895,2.5895,2.5895,2.5895,2.3185,2.3277,2.3186,2.2711,2.2974,2.3083,2.2562,2.2756,2.293,2.293,2.3048,2.3149,2.3263,2.3198,2.3108,2.3108,2.3108,2.3108,2.3108,2.3108,2.3108,2.3108,2.3228,2.3215,2.3108,2.3634,2.3722,2.3305,2.3722,2.3984,2.4102,2.4102,2.4292,2.4637,2.4547,2.4816,2.5288,2.4978,2.5301,2.5916,2.4635,2.4267,2.4442,2.3291,2.3119,2.3493,2.3525,2.3631,2.3724,2.3745,2.3948,2.4283,2.4557,2.4337,2.4292,2.5972,2.6095,2.5997,0.0,0.0,2.7755,2.7297,2.6949,0.0,2.5644,2.5582,2.5446,2.4677,2.5193,2.5658,2.523,2.5499,2.576,2.5716,2.5693,2.5961,2.6803,2.6898,2.6898,2.6898,2.6994,2.7054,2.7054,2.7138,2.7198,2.7198,2.7594,2.8026,2.8486,2.8339,2.8299,2.8391,2.8299,2.8259,2.8259,2.8259,2.8059,2.776,2.7667,2.7412,2.7062,2.6981,2.6951,2.694,2.7021,2.7062,2.7062,2.7062,2.6775,2.6362,2.6021,2.5895,2.5895,2.5895,2.5895,2.5895,2.3617,2.3809,2.3837,2.3295,2.343,2.3498,2.3238,2.3128,2.3108,2.3108,2.3108,2.3208,2.354,2.3534,2.3647,2.3923,2.3948,2.3948,2.3948,2.3684,2.3534,2.3534,2.3577,2.3454,2.3108,2.375,2.4089,2.4047,2.4089,2.4263,2.4538,2.4234,2.4187,2.4372,2.4628,2.5127,2.5764,2.5999,2.6162,2.6122,2.4906,2.4586,2.4748,2.3753,2.3577,2.3806,2.3806,2.3806,2.3875,2.4262,2.4649,2.4943,2.4924,2.5121,2.5577,2.6783,2.6957,2.7024,2.8339,2.8709,2.8624,2.8326,2.7952,0.0,0.0,2.6831,2.6641,2.6232,2.6583,2.6768,2.6171,2.6529,2.6688,2.5902,2.5987,2.6116,2.6239,2.6166,2.6081,2.6081,2.6358,2.6514,2.6514,2.6729,2.6898,2.6898,2.7138,2.7522,2.805,2.8114,2.8234,2.8498,2.851,2.851,2.851,2.851,2.8391,2.8203,2.8002,2.78,2.7534,2.7319,2.7185,2.7226,2.7452,2.7534,2.7534,2.7534,2.7412,2.7167,2.6704,2.6415,2.6218,2.6218,2.6052,2.5895,2.4002,2.4308,2.4481,2.4002,2.3927,2.3927,2.3927,2.3556,2.3308,2.3409,2.3434,2.3609,2.4104,2.4155,2.4343,2.475,2.4788,2.4788,2.4788,2.4406,2.4155,2.4155,2.4222,2.3996,2.3421,2.3966,2.4475,2.4958,2.4593,2.4681,2.516,2.4914,2.4545,2.413,2.4982,2.559,2.6062,2.7098,2.7101,2.6368,2.5239,2.4853,2.4832,2.4177,2.4011,2.4095,2.414,2.414,2.4234,2.4862,2.5328,2.564,2.5492,2.6102,2.7009,2.7601,2.7797,2.802,2.8857,2.9072,2.9072,2.9072,2.8713,2.8389,0.0,0.0,0.0,2.794,0.0,0.0,0.0,0.0,0.0,2.6427,0.0,0.0,0.0,2.5662,0.0,2.5335,2.5685,2.5949,2.5949,2.6358,2.6621,2.6729,2.6741,2.697,2.7498,2.763,2.7921,2.8342,2.8462,2.851,2.851,2.851,2.851,2.851,2.8163,2.8002,2.8002,2.7603,2.7429,2.747,2.7869,2.8002,2.8002,2.8002,2.8002,2.7962,2.74,2.6981,2.664,2.664,2.6373,2.6021,2.3215,2.3275,2.3305,2.3228,2.3215,2.3215,2.3215,2.3595,2.4079,2.4537,2.46,2.4625,2.4687,2.47,2.4725,2.4775,2.4788,2.4788,2.4788,2.4725,2.47,2.47,2.4734,2.4683,2.46,2.4696,2.4747,2.4811,2.534,2.5638,2.573,2.685,2.6728,2.56,2.66,2.7198,0.0,2.7295,2.7446,2.7716,2.6935,2.6046,2.5191,2.4638,2.4735,2.5131,2.5319,2.5401,2.5483,2.5904,2.6451,2.6902,2.6489,2.6935,2.7703,2.8234,2.8467,2.8842,3.0041,3.0394,3.0394,3.0394,3.032,3.0125,2.9588,0.0,2.9045,2.797,0.0,0.0,0.0,0.0,0.0,0.0,0.0,0.0,2.5978,2.6443,2.6431,2.5415,2.536,2.5396,2.5396,2.5456,2.5685,2.6154,2.619,2.643,2.6958,2.7426,2.7753,2.7774,2.827,2.851,2.851,2.851,2.851,2.851,2.8431,2.8431,2.8431,2.8391,2.8339,2.8351,2.8391,2.8431,2.8431,2.8431,2.8431,2.8351,2.751,2.7185,2.7103,2.7103,2.6816,2.6445,2.3672,2.364,2.371,2.4023,2.4086,2.4086,2.4086,2.4286,2.4556,2.4763,2.4788,2.4933,2.5234,2.5272,2.541,2.5749,2.5808,2.5808,2.5808,2.546,2.5272,2.5272,2.4983,2.4788,2.4788,2.4788,2.4968,2.5326,2.5597,2.5741,2.5772,2.6711,2.6796,2.6154,2.6581,2.7178,2.7833,2.6971,2.6892,2.7291,2.6607,2.6245,2.6019,2.5262,2.5312,2.5817,2.6214,2.636,2.6372,2.6566,2.7523,2.8412,2.7052,2.7878,2.9218,2.8661,2.885,2.9421,3.0345,3.0598,3.0598,3.0598,3.0598,3.0538,3.0251,3.019,3.0013,2.9485,0.0,0.0,0.0,0.0,0.0,0.0,2.7166,0.0,0.0,0.0,2.6377,2.6312,0.0,0.0,2.5335,2.5312,2.5396,2.5624,2.5636,2.5877,2.6418,2.6659,2.7067,2.7666,2.7933,2.821,2.851,2.851,2.851,2.851,2.851,2.851,2.851,2.851,2.851,2.851,2.851,2.851,2.851,2.851,2.851,2.8471,2.8099,2.7817,2.7626,2.7626,2.7319,2.6899,2.4481,2.4318,2.4356,2.4725,2.4788,2.4838,2.5008,2.5034,2.5096,2.5247,2.5272,2.541,2.5787,2.5871,2.6034,2.6461,2.6499,2.6499,2.6499,2.6097,2.5871,2.5871,2.5473,2.5272,2.5272,2.5272,2.5489,2.5904,2.6306,2.6451,2.6483,2.737,2.7602,2.7277,2.7019,2.7373,2.8051,2.6939,2.6667,2.6947,2.6625,2.6639,2.6845,2.6105,2.6021,2.6382,2.6816,2.7036,2.7148,2.7248,2.8409,2.9525,2.7916,2.9002,3.0632,2.9283,2.947,3.019,3.0521,3.0598,3.0598,3.0598,3.0598,3.0598,3.0598,3.0598,3.0598,3.0598,3.0598,0.0,0.0,0.0,0.0,0.0,0.0,2.7253,0.0,2.6451,0.0,0.0,0.0,0.0,0.0,2.5684,2.5642,2.5662,2.5581,2.5658,2.5865,2.6021,2.6526,2.7438,2.7606,2.7981,2.8498,2.851,2.851,2.851,2.851,2.851,2.851,2.851,2.851,2.851,2.851,2.851,2.851,2.851,2.851,2.851,2.851,2.8431,2.8311,2.8311,2.7938,2.74,2.5448,2.5146,2.4763,2.4788,2.4788,2.4996,2.5498,2.5573,2.5774,2.6361,2.6449,2.6449,2.6461,2.6461,2.6474,2.6499,2.6499,2.6499,2.6499,2.6474,2.6461,2.6461,2.6449,2.6449,2.6449,2.6449,2.6436,2.6471,2.7769,2.8405,0.0,0.0,0.0,0.0,2.8542,2.8285,2.8427,2.7537,2.7196,2.7235,2.773,2.7756,2.7447,2.7224,2.7025,2.6899,2.7124,2.7422,2.7828,2.823,2.9138,3.0,2.9408,3.0419,3.1606,3.0257,3.0605,3.1321,3.0742,3.0598,3.0598,3.0598,3.0598,3.0598,3.0598,3.0598,3.0598,3.0598,3.0598,3.0598,3.0583,0.0,0.0,0.0,0.0,0.0,0.0,0.0,0.0,0.0,0.0,0.0,0.0,2.666,2.6484,0.0,2.6333,2.5921,2.5371,2.5817,2.6358,2.691,2.7414,2.7981,2.8498,2.851,2.851,2.851,2.851,2.851,2.851,2.851,2.851,2.851,2.851,2.851,2.851,2.851,2.851,2.851,2.851,2.8855,2.9341,2.9341,2.8724,2.7962,2.6172,2.6059,2.5946,2.5946,2.5946,2.5996,2.6172,2.6197,2.6273,2.6461,2.6499,2.6637,2.7002,2.704,2.719,2.7519,2.7544,2.7394,2.7065,2.704,2.6876,2.6512,2.6499,2.6499,2.6499,2.6499,2.6499,2.6499,2.7384,2.7835,0.0,0.0,0.0,0.0,0.0,2.8698,2.8247,2.7517,2.7144,2.7148,2.8189,2.8694,2.8759,2.8175,2.7898,2.787,2.8301,2.8539,2.8693,2.8808,2.9939,3.103,2.9961,3.1171,3.2698,3.1354,3.1511,3.2135,3.1917,3.154,3.1206,3.1206,3.0887,3.0598,3.0598,3.0598,3.0598,3.0598,3.0598,3.0598,3.0598,0.0,0.0,0.0,0.0,0.0,0.0,0.0,0.0,0.0,0.0,0.0,0.0,0.0,0.0,2.6,2.5743,2.5523,2.5312,2.548,2.5997,2.6861,2.7066,2.7582,2.8498,2.851,2.851,2.851,2.8882,2.9118,2.9118,2.9118,2.9118,2.9079,2.8657,2.8736,2.9118,2.9118,2.9341,2.9639,2.9263,2.9445,2.9947,2.9535,2.9457,2.9523,2.6499,2.6499,2.6499,2.6499,2.6499,2.6499,2.6499,2.6663,2.6788,2.6788,2.6952,2.718,2.7544,2.757,2.772,2.8072,2.8109,2.7959,2.7595,2.757,2.7419,2.709,2.6889,2.6788,2.6788,2.6815,2.685,2.685,2.7769,2.826,0.0,0.0,0.0,0.0,0.0,2.8998,2.8293,2.7794,2.7403,2.7226,2.8399,2.9176,2.9554,2.9024,2.8922,2.9087,2.9732,3.0088,3.0266,3.0266,3.102,3.1815,3.1231,3.2047,3.3058,3.225,3.2409,3.2803,3.2539,3.2176,3.1843,3.1843,3.138,3.0916,3.0916,3.0757,3.0598,3.0598,3.0598,3.0598,3.0598,0.0,0.0,0.0,0.0,0.0,0.0,2.7041,2.6806,2.6806,2.7026,0.0,0.0,0.0,2.5897,2.6021,2.5605,2.5317,2.53,2.5312,2.5769,2.6861,2.6898,2.7402,2.8498,2.851,2.8618,2.8803,2.9223,2.9535,2.9716,2.9716,2.9716,2.9716,2.9302,2.938,2.9716,2.9716,2.9947,3.0241,2.9871,3.0101,3.0545,2.9947,3.0101,3.0582,2.6575,2.6575,2.6575,2.6575,2.6549,2.6537,2.6537,2.7002,2.7318,2.7318,2.777,2.8109,2.8147,2.8147,2.816,2.8185,2.8185,2.8172,2.8147,2.8147,2.8134,2.8109,2.7607,2.7318,2.7318,2.743,2.7523,2.7556,2.8885,0.0,0.0,0.0,0.0,0.0,2.9931,0.0,2.8541,2.839,2.8005,2.7599,2.8598,2.9404,2.9972,2.9972,3.0165,3.0532,3.1217,3.1842,3.2326,3.2362,3.2282,3.2309,3.3058,3.3058,3.2806,3.2922,3.3235,3.3416,3.2774,3.2553,3.2571,3.2571,3.2031,3.1538,3.1538,3.1076,3.0641,3.0641,3.0627,3.0598,3.0598,3.0598,0.0,0.0,0.0,0.0,0.0,0.0,2.6806,2.6806,2.6806,2.696,0.0,2.6583,2.6233,2.6557,2.5887,2.5401,2.5323,2.5382,2.5865,2.6863,2.6949,2.7505,2.853,2.8578,2.8882,2.9457,2.9484,2.9793,3.0355,3.0355,3.0355,3.0355,3.0317,3.0317,3.0355,3.0355,3.0355,3.0393,3.0355,3.0696,3.1108,3.0582,3.0784,3.1158,2.7682,2.7682,2.7682,2.7682,2.7379,2.7102,2.7102,2.7544,2.7896,2.7896,2.8009,2.826,2.8637,2.8675,2.8888,2.9315,2.9365,2.9176,2.8712,2.8675,2.8536,2.8122,2.7971,2.7896,2.7896,2.7556,2.7601,2.8077,2.856,0.0,2.9623,0.0,0.0,0.0,0.0,2.9893,2.9091,2.9053,2.9508,3.0286,3.0361,3.1172,3.2326,3.2326,3.2398,3.2313,3.1402,3.1143,3.1378,3.1965,3.2506,3.2946,3.3157,3.3569,3.3948,3.3994,3.41,3.4138,3.3964,3.3587,3.3256,3.3256,3.2745,3.2234,3.2234,3.1743,3.1279,3.1279,3.0901,3.0598,3.0598,3.0598,3.0539,0.0,0.0,0.0,0.0,2.6806,2.6806,2.6806,2.6806,2.683,2.6946,2.6385,2.6052,2.6156,2.6228,2.5999,2.5335,2.6321,2.6924,2.6893,2.7713,2.8484,2.9177,2.963,2.9909,3.005,3.0507,3.0809,3.0959,3.0959,3.0959,3.0921,3.0469,3.0545,3.0959,3.0959,3.127,3.1666,3.1158,3.1071,3.1233,3.1593,3.1827,3.19,2.8109,2.8109,2.8109,2.8109,2.8047,2.7921,2.7682,2.8109,2.8461,2.8461,2.8687,2.8963,2.9277,2.9302,2.944,2.9767,2.9792,2.9654,2.9327,2.9302,2.9164,2.8863,2.8599,2.8461,2.8461,2.8221,2.8446,2.9162,2.9282,2.9718,3.0437,0.0,0.0,0.0,0.0,3.056,2.9824,3.0079,3.0752,3.1648,3.1502,3.1951,0.0,3.272,3.272,3.2648,3.2096,3.2132,3.2506,3.2946,3.3157,3.3262,3.3624,3.3776,3.3928,3.4298,3.4414,3.4414,3.4414,3.4153,3.3877,3.3877,3.3398,3.2933,3.2933,3.2425,3.1961,3.1961,3.1438,3.0988,3.0988,3.0786,3.051,0.0,0.0,0.0,2.7374,2.72,2.7099,2.6849,2.6806,2.6806,2.6806,2.6482,2.6176,2.6003,2.6556,2.657,2.5843,2.6894,2.7558,2.7629,2.8257,2.8963,2.9805,3.0125,3.0431,3.0696,3.1033,3.1344,3.1629,3.1629,3.1629,3.1629,3.1283,3.132,3.1629,3.1629,3.1863,3.2169,3.1776,3.1629,3.1703,3.2059,3.2218,3.2218,2.8323,2.8323,2.8323,2.8323,2.8725,2.8875,2.8398,2.8737,2.9001,2.9001,2.9478,2.9792,2.9792,2.9792,2.9792,2.9792,2.9792,2.9792,2.9792,2.9792,2.9792,2.9792,2.9315,2.9001,2.9001,2.9036,2.9513,3.0384,3.0389,3.0825,3.1611,0.0,0.0,0.0,0.0,0.0,0.0,3.122,3.1719,3.2218,3.2218,3.2304,3.2412,3.2412,3.2412,3.2484,3.3122,3.3742,3.4264,3.4366,3.3928,3.3485,3.4182,3.3928,3.3485,3.4182,3.4414,3.4414,3.4414,3.4414,3.4414,3.4414,3.4008,3.3634,3.3634,3.3108,3.2643,3.2643,3.2121,3.1582,3.154,3.1003,3.0394,0.0,0.0,2.9189,2.8,2.7826,2.7594,2.6982,2.691,0.0,2.682,2.6677,2.6416,2.6085,2.6845,2.7138,2.6582,2.7387,2.8103,2.8699,2.8886,2.9466,3.0504,3.0581,3.0846,3.1344,3.1344,3.1629,3.2218,3.2218,3.2218,3.2218,3.2218,3.2218,3.2218,3.2218,3.2218,3.2218,3.2218,3.2218,3.2218,3.2218,3.2218,3.2218,2.9503,2.9503,2.9503,2.9503,2.9578,2.9616,2.9515,2.9578,2.9641,2.9641,2.9729,2.9792,2.9792,2.9792,2.9792,2.9792,2.9792,2.9792,2.9792,2.9792,2.9792,2.9792,2.9691,2.9641,2.9641,2.9177,2.96,3.0972,3.0514,3.1015,3.2307,0.0,0.0,0.0,0.0,0.0,3.1999,3.1981,3.2374,3.3003,3.3003,3.3416,3.4011,3.4011,3.4011,3.4011,3.4147,3.3845,3.352,3.4196,3.4312,3.423,3.4346,3.4298,3.423,3.4346,3.4414,3.4414,3.4414,3.4414,3.4414,3.4414,3.4327,3.424,3.424,3.3761,3.3329,3.3329,3.2788,3.2147,3.1582,3.1003,3.0394,2.9697,2.9595,2.9334,2.8623,2.8507,2.8274,2.7608,2.7536,2.736,2.6837,2.6594,2.6408,2.6332,2.7439,2.7752,2.6953,2.8636,2.9599,2.9509,3.0423,3.1124,3.1545,3.205,3.22,3.2009,3.2009,3.2096,3.2218,3.2218,3.2218,3.2218,3.2218,3.2218,3.2218,3.2218,3.2218,3.2218,3.2218,3.2218,3.2218,3.2218,3.2218,3.2218,2.9792,2.9792,2.9792,2.9792,2.9792,2.9792,2.9792,2.9792,2.9792,2.9792,2.9792,2.9792,2.9792,2.9792,2.9792,2.9792,2.9792,2.9792,2.9792,2.9792,2.9792,2.9792,2.9792,2.9792,2.9792,2.9515,2.9908,3.1003,3.081,3.1288,3.2392,3.2465,0.0,3.2527,0.0,3.3143,0.0,3.3338,3.35,3.3811,3.3811,3.4045,3.4414,3.4414,3.4414,3.4414,3.4414,3.4147,3.3894,3.4264,3.4414,3.4414,3.4414,3.4414,3.4414,3.4414,3.4414,3.4414,3.4414,3.4414,3.4414,3.4414,3.4414,3.4414,3.4414,3.4182,3.3964,3.3964,3.3456,3.2716,3.17,3.1264,3.0858,3.0219,3.0118,2.99,2.9261,2.9174,2.8927,2.8289,2.8216,2.7969,2.7331,2.7138,2.7073,2.7073,2.8252,2.8739,2.8135,2.936,3.0244,3.0563,3.1095,3.1778,3.2577,3.287,3.2931,3.2767,3.2552,3.248,3.2444,3.2277,3.2218,3.2218,3.2218,3.2218,3.2218,3.2218,3.2218,3.2218,3.2218,3.2218,3.2218,3.2218,3.2218,3.2218,2.9792,2.9792,2.9792,2.9792,2.9792,2.9792,2.9792,2.9892,2.993,2.9804,2.9792,2.9829,2.9955,2.9967,3.0018,3.0118,3.003,2.9967,2.9967,2.9854,2.9792,2.9792,2.9792,2.9792,2.9792,2.9792,3.0177,3.0895,3.1181,3.1734,3.2497,3.2762,0.0,0.0,0.0,3.3949,3.4414,3.4414,3.4414,3.4414,3.4414,3.4414,3.4414,3.4414,3.4414,3.4414,3.4414,3.4414,3.4414,3.4414,3.4414,3.4414,3.4414,3.4414,3.4414,3.4414,3.4414,3.4414,3.4414,3.4414,3.4414,3.4414,3.4414,3.4414,3.4414,3.4414,3.4414,3.4414,3.3906,3.3184,3.2121,3.17,3.1351,3.0858,3.0685,3.0423,2.99,2.9827,2.9595,2.8956,2.8884,2.8623,2.7998,2.7898,2.7956,2.8087,2.8899,2.9363,2.9214,2.9845,3.0651,3.1599,3.1641,3.2201,3.3395,3.3409,3.3374,3.3304,3.2988,3.2846,3.281,3.248,3.2314,3.2314,3.2241,3.2218,3.2218,3.2218,3.2218,3.2218,3.2218,3.2218,3.2218,3.2218,3.2218,3.2232,2.9792,2.9792,2.9792,2.9792,2.9792,2.9792,2.9792,3.0218,3.0357,2.9854,2.9792,2.998,3.0482,3.0545,3.0733,3.1198,3.0809,3.0545,3.0545,3.0068,2.9792,2.9792,2.9792,2.9792,2.9792,2.9792,3.0177,3.0895,3.1656,3.2387,3.3129,3.3853,3.424,3.424,3.4298,3.4356,3.4414,3.4414,3.4414,3.4414,3.4414,3.4414,3.4414,3.4414,3.4414,3.4414,3.4414,3.4414,3.4414,3.4414,3.4414,3.4414,3.4414,3.4414,3.4414,3.4414,3.4414,3.4414,3.4414,3.4414,3.4414,3.4414,3.4414,3.4414,3.4414,3.4414,3.4414,3.4414,3.3906,3.346,3.3344,3.2324,3.1466,3.1438,3.0945,3.0583,3.0525,3.0525,3.0248,2.9581,2.9508,2.929,2.868,2.8622,2.8826,2.9378,2.9029,2.9015,2.9537,3.0204,3.1101,3.2373,3.2384,3.2813,3.3756,3.3736,3.3597,3.3304,3.3269,3.3234,3.3234,3.2846,3.2632,3.2632,3.2336,3.2218,3.2218,3.2218,3.2218,3.2218,3.2218,3.2218,3.2218,3.2218,3.2218,3.2286,2.9792,2.9792,2.9892,3.0231,3.0281,3.0394,3.0708,3.0934,3.0997,3.0783,3.0746,3.0834,3.106,3.1085,3.1173,3.1373,3.1198,3.1085,3.1085,3.0871,3.062,3.0306,3.0281,3.0131,2.9804,2.9792,3.0177,3.0895,3.1709,3.247,3.3213,3.4011,3.4414,3.4414,3.4414,3.4414,3.4414,3.4414,3.4414,3.4414,3.4414,3.4414,3.4414,3.4414,3.4414,3.4414,3.4414,3.4414,3.4414,3.4414,3.4414,3.4414,3.4414,3.4414,3.4414,3.4414,3.4414,3.4414,3.4414,3.4414,3.4414,3.4414,3.4414,3.4414,3.4414,3.4414,3.4414,3.4414,3.4211,3.392,3.3576,3.3067,3.2556,3.2179,3.1569,3.1134,3.1134,3.0814,3.051,3.0219,3.019,2.9943,2.9305,2.9247,2.9348,2.9581,2.9392,2.9523,3.0161,3.08,3.1569,3.2452,3.289,3.3448,3.4147,3.4162,3.4094,3.3942,3.3736,3.3597,3.3597,3.3234,3.3058,3.3058,3.2646,3.2503,3.2467,3.2277,3.2218,3.2218,3.2218,3.2218,3.2218,3.2218,3.2436,3.2775,3.0269,3.0269,3.0382,3.0771,3.0846,3.0972,3.1336,3.1524,3.1637,3.1637,3.1788,3.1813,3.165,3.1637,3.17,3.1863,3.1738,3.1637,3.1637,3.1486,3.1223,3.0859,3.0846,3.0583,3.0043,3.003,3.0201,3.0582,3.1341,3.2146,3.2897,3.3928,3.4414,3.4414,3.4414,3.4414,3.4414,3.4414,3.4414,3.4414,3.4414,3.4414,3.4414,3.4414,3.4414,3.4414,3.4414,3.4414,3.4414,3.4414,3.4414,3.4414,3.4414,3.4414,3.4414,3.4414,3.4414,3.4414,3.4414,3.4414,3.4414,3.4414,3.4414,3.4414,3.4414,3.4414,3.4414,3.4414,3.4414,3.4283,3.3819,3.3634,3.3358,3.2875,3.2251,3.1743,3.154,3.1134,3.0816,3.0627,3.0598,3.0423,2.9943,2.99,2.99,2.99,3.0045,3.0379,3.0829,3.1279,3.1917,3.2774,3.3256,3.3808,3.4399,3.4414,3.4414,3.4414,3.4128,3.3991,3.3942,3.3632,3.3374,3.3269,3.2988,3.2881,3.2846,3.2624,3.2516,3.2516,3.2372,3.2336,3.2363,3.2445,3.2735,3.3142,3.1373,3.1373,3.1373,3.1386,3.1386,3.1386,3.1386,3.1851,3.2202,3.2202,3.2704,3.283,3.2265,3.2202,3.2428,3.3048,3.2528,3.2202,3.2202,3.1687,3.1386,3.1386,3.1386,3.1135,3.062,3.0608,3.0344,2.9792,3.0545,3.1341,3.2146,3.3687,3.4414,3.4414,3.4414,3.4414,3.4414,3.4414,3.4414,3.4414,3.4414,3.4414,3.4414,3.4414,3.4414,3.4414,3.4414,3.4414,3.4414,3.4414,3.4414,3.4414,3.4414,3.4414,3.4414,3.4414,3.4414,3.4414,3.4414,3.4414,3.4414,3.4414,3.4414,3.4414,3.4414,3.4414,3.4414,3.4414,3.4414,3.4414,3.4399,3.3891,3.3503,3.3489,3.2919,3.2249,3.1582,3.148,3.1279,3.067,3.0598,3.0598,3.0598,3.0598,3.0598,3.0598,3.1134,3.1466,3.148,3.1495,3.2121,3.3445,3.3503,3.3808,3.4399,3.4414,3.4414,3.4414,3.4414,3.438,3.438,3.3991,3.3632,3.3304,3.3304,3.3304,3.3304,3.3304,3.3304,3.3234,3.2846,3.2704,3.2751,3.3005,3.3088,3.3264,3.1386,3.1386,3.1512,3.1888,3.1951,3.2089,3.2478,3.2679,3.2805,3.2805,3.2968,3.3048,3.2817,3.2805,3.288,3.3056,3.2905,3.2805,3.2805,3.2629,3.2365,3.1964,3.1951,3.17,3.116,3.1148,3.1329,3.1693,3.1525,3.1937,3.2861,3.3894,3.4414,3.4428,3.4864,3.5101,3.5116,3.5517,3.5706,3.5706,3.5706,3.5706,3.5706,3.5706,3.5706,3.5706,3.5706,3.5706,3.5633,3.5198,3.5101,3.498,3.4545,3.4414,3.4414,3.4414,3.4414,3.4414,3.4414,3.4414,3.4414,3.4414,3.4414,3.4414,3.4414,3.4414,3.4414,3.4414,3.4414,3.4414,3.4414,3.424,3.4109,3.4109,3.3587,3.3093,3.2875,3.2469,3.2121,3.1917,3.1903,3.1903,3.1903,3.1903,3.1714,3.125,3.183,3.1973,3.1509,3.2367,3.3067,3.3489,3.3891,3.4211,3.4414,3.4414,3.4414,3.4414,3.4414,3.4414,3.4414,3.4264,3.4162,3.4025,3.377,3.3632,3.3632,3.3374,3.3304,3.3304,3.3164,3.3345,3.3737,3.3838,3.4414,3.5207,3.2026,3.2026,3.2127,3.2478,3.2541,3.2667,3.3018,3.3124,3.3124,3.3124,3.3124,3.3124,3.3124,3.3124,3.3124,3.3124,3.3124,3.3124,3.3124,3.3124,3.2918,3.2554,3.2541,3.2277,3.1712,3.17,3.1833,3.2129,3.2071,3.2539,3.3484,3.4264,3.4784,3.514,3.5546,3.5755,3.577,3.6141,3.6301,3.6301,3.6301,3.6301,3.6301,3.6301,3.6301,3.6301,3.6301,3.6301,3.6243,3.5851,3.5755,3.5648,3.5256,3.4965,3.4719,3.4486,3.4414,3.4414,3.4414,3.4414,3.4414,3.4414,3.4414,3.4414,3.4414,3.4414,3.4414,3.4414,3.4414,3.4414,3.4414,3.4414,3.4414,3.4414,3.408,3.3779,3.3532,3.3122,3.2788,3.2542,3.2481,3.2481,3.2481,3.2481,3.2338,3.1901,3.2498,3.2687,3.2266,3.3053,3.3605,3.3819,3.4196,3.4414,3.4414,3.4414,3.4414,3.4414,3.4414,3.4414,3.4414,3.4414,3.4414,3.438,3.4128,3.4025,3.4025,3.3805,3.3878,3.4078,3.3938,3.425,3.4808,3.4888,3.5428,3.6131,3.3124,3.3124,3.3124,3.3124,3.3124,3.3124,3.3124,3.3124,3.3124,3.3124,3.3124,3.3124,3.3124,3.3124,3.3124,3.3124,3.3124,3.3124,3.3124,3.3124,3.3124,3.3124,3.3124,3.283,3.2277,3.2307,3.2126,3.164,3.2433,3.3236,3.4006,3.4734,3.5522,3.6301,3.6359,3.6373,3.6373,3.6417,3.6446,3.6446,3.6446,3.6446,3.6446,3.6446,3.6446,3.6446,3.6446,3.6446,3.6431,3.6388,3.6373,3.6373,3.6315,3.5894,3.5334,3.4661,3.4443,3.4414,3.4414,3.4414,3.4414,3.4414,3.4414,3.4414,3.4414,3.4414,3.4414,3.4414,3.4414,3.4414,3.4414,3.4414,3.4414,3.4414,3.4414,3.4196,3.3649,3.3561,3.3311,3.273,3.2611,3.2611,3.2611,3.2611,3.2597,3.2553,3.318,3.3547,3.3503,3.3547,3.3804,3.4385,3.4414,3.4414,3.4414,3.4414,3.4414,3.4414,3.4414,3.4414,3.4414,3.4414,3.4414,3.4414,3.4414,3.4414,3.4414,3.4457,3.4835,3.5372,3.5037,3.5311,3.5933,3.6118,3.6207,3.6334,3.3124,3.3124,3.3124,3.3124,3.3124,3.3124,3.3124,3.3124,3.3124,3.3124,3.3124,3.3124,3.3124,3.3124,3.3124,3.3124,3.3124,3.3124,3.3124,3.3124,3.3124,3.3124,3.3124,3.3018,3.288,3.3533,3.3916,3.4019,3.4815,3.5093,3.491,3.566,3.6108,3.633,3.6838,3.707,3.7099,3.7549,3.7752,3.7752,3.7752,3.7752,3.7752,3.7752,3.7752,3.7752,3.7752,3.7752,3.768,3.723,3.707,3.6983,3.6475,3.6199,3.5967,3.5348,3.4791,3.4414,3.4414,3.4414,3.4414,3.4414,3.4414,3.4414,3.4414,3.4414,3.4414,3.4414,3.4414,3.4414,3.4414,3.4414,3.4414,3.4414,3.4414,3.4356,3.4211,3.4196,3.4138,3.3978,3.3964,3.3964,3.3964,3.3964,3.3761,3.3314,3.3833,3.3978,3.3518,3.3935,3.4254,3.4414,3.4414,3.4414,3.4414,3.4414,3.4414,3.4414,3.4414,3.4414,3.4414,3.4414,3.4414,3.4414,3.4414,3.4414,3.4443,3.4936,3.5261,3.545,3.5824,3.6346,3.6953,3.6987,3.7319,3.7737,3.3822,3.3822,3.3822,3.3822,3.3822,3.3822,3.3822,3.3822,3.3822,3.3822,3.3822,3.3822,3.3822,3.3822,3.3721,3.347,3.3219,3.3124,3.3124,3.3124,3.3124,3.3124,3.3124,3.3124,3.3124,3.3937,3.4668,3.518,3.5588,3.5864,3.5977,3.6404,3.679,3.7186,3.7549,3.7723,3.7738,3.8072,3.8202,3.8202,3.8202,3.8202,3.8202,3.8202,3.8202,3.8202,3.8202,3.8202,3.8159,3.7825,3.7723,3.7651,3.7288,3.6983,3.6693,3.6344,3.559,3.4849,3.4849,3.4632,3.4414,3.4414,3.4414,3.4414,3.4414,3.4414,3.4414,3.4414,3.4414,3.4414,3.4414,3.4414,3.4414,3.4414,3.4414,3.4414,3.4414,3.4414,3.4414,3.4414,3.4414,3.4414,3.4414,3.4414,3.4269,3.3935,3.4211,3.4269,3.392,3.4225,3.4414,3.4414,3.4414,3.4414,3.4414,3.4414,3.4414,3.4414,3.4414,3.4414,3.4414,3.4414,3.4414,3.4428,3.4719,3.4849,3.4893,3.5532,3.6002,3.6286,3.6635,3.7157,3.7723,3.7723,3.7926,3.8202,3.468,3.468,3.468,3.468,3.468,3.468,3.468,3.468,3.468,3.468,3.468,3.468,3.468,3.468,3.4537,3.406,3.3596,3.3257,3.3124,3.3197,3.324,3.3124,3.324,3.324,3.3124,3.405,3.4978,3.5789,3.5949,3.6385,3.7092,3.7092,3.7491,3.8202,3.8202,3.8202,3.8202,3.8202,3.8202,3.8202,3.8202,3.8202,3.8202,3.8202,3.8202,3.8202,3.8202,3.8202,3.8202,3.8202,3.8202,3.8202,3.8202,3.7854,3.7447,3.7447,3.6591,3.5668,3.5566,3.5038,3.453,3.4443,3.4414,3.4414,3.4414,3.4414,3.4414,3.4414,3.4414,3.4414,3.4414,3.4414,3.4414,3.4414,3.4414,3.4414,3.4414,3.4414,3.4414,3.4414,3.4414,3.4414,3.4414,3.4414,3.4414,3.4414,3.4414,3.4414,3.4414,3.4414,3.4414,3.4414,3.4414,3.4414,3.4414,3.4414,3.4414,3.4414,3.4414,3.4414,3.4414,3.4501,3.4559,3.4588,3.5261,3.5552,3.5581,3.6199,3.6794,3.7317,3.7404,3.7752,3.8202,3.8202,3.8202,3.8202,3.468,3.468,3.468,3.468,3.468,3.468,3.468,3.468,3.468,3.468,3.468,3.468,3.468,3.468,3.4688,3.46,3.4512,3.4073,3.3174,3.3781,3.3865,3.3111,3.3823,3.3852,3.3124,3.4635,3.5829,3.6688,3.7438,3.7886,3.8,3.8,3.8089,3.8202,3.8202,3.8202,3.8202,3.8202,3.8202,3.8202,3.8202,3.8202,3.8202,3.8202,3.8202,3.8202,3.8202,3.8202,3.8202,3.8202,3.8202,3.8202,3.8202,3.8144,3.8072,3.8072,3.7564,3.6881,3.6315,3.5691,3.5116,3.4545,3.4414,3.4414,3.4414,3.4414,3.4414,3.4414,3.4414,3.4414,3.4414,3.4414,3.4414,3.4414,3.4414,3.4414,3.4414,3.4414,3.4414,3.4414,3.4414,3.4414,3.4414,3.4414,3.4414,3.4414,3.4414,3.4414,3.4414,3.4414,3.4414,3.4414,3.4414,3.4414,3.4414,3.4414,3.4414,3.4414,3.4414,3.4414,3.4428,3.5,3.5247,3.529,3.588,3.6156,3.6214,3.6881,3.7215,3.736,3.7868,3.813,3.8202,3.8202,3.8202,3.8202,3.5604,3.5604,3.5604,3.5604,3.5604,3.5604,3.5604,3.5604,3.5604,3.5604,3.5604,3.5823,3.6314,3.5915,3.5709,3.5936,3.5426,3.4781,3.401,3.4796,3.5128,3.474,3.5627,3.6174,3.6216,3.598,3.6743,3.8607,3.8528,3.8738,3.9218,3.9218,3.9218,3.9218,3.9218,3.9218,3.9218,3.9218,3.9218,3.9218,3.9218,3.9218,3.9189,3.8855,3.8739,3.8696,3.8333,3.8202,3.8202,3.8202,3.8202,3.8202,3.8202,3.8202,3.8202,3.8202,3.7781,3.7157,3.6489,3.6098,3.5807,3.5503,3.5183,3.4922,3.4922,3.4661,3.4414,3.4414,3.4414,3.4414,3.4414,3.4414,3.4414,3.4414,3.4414,3.4414,3.4414,3.4414,3.4414,3.4414,3.4414,3.4414,3.4414,3.4414,3.4414,3.4414,3.4414,3.4414,3.4414,3.4414,3.4414,3.4414,3.4414,3.4414,3.4414,3.4414,3.4414,3.4414,3.4762,3.4922,3.4951,3.559,3.5865,3.5909,3.6562,3.6838,3.6896,3.7535,3.7781,3.7825,3.8086,3.8202,3.8202,3.8202,3.8202,3.8202,3.6405,3.6405,3.6405,3.6405,3.6405,3.6405,3.6405,3.6405,3.6405,3.6405,3.6405,3.6769,3.7717,3.7176,3.687,3.7149,3.6488,3.5772,3.5127,3.6165,3.6595,3.6101,3.7037,3.7895,3.8586,3.7348,3.7714,3.9812,3.9264,3.9384,4.0104,4.0104,4.0104,4.0104,4.0104,4.0104,4.0104,4.0104,4.0104,4.0104,4.0104,4.0104,4.0046,3.9581,3.9407,3.9349,3.8826,3.8551,3.8434,3.8434,3.8333,3.8202,3.8202,3.8202,3.8202,3.8202,3.7883,3.7375,3.6722,3.6533,3.6504,3.6344,3.5938,3.5625,3.5625,3.5082,3.4632,3.4632,3.4516,3.4414,3.4414,3.4414,3.4414,3.4414,3.4414,3.4414,3.4414,3.4414,3.4414,3.4414,3.4414,3.4414,3.4414,3.4414,3.4414,3.4414,3.4414,3.4414,3.4414,3.4414,3.4414,3.4414,3.4414,3.4414,3.4414,3.4559,3.4632,3.4646,3.5285,3.5625,3.5639,3.6243,3.6533,3.6577,3.723,3.752,3.7549,3.8014,3.8202,3.8202,3.8202,3.8202,3.8202,3.8202,3.8202,3.8202,3.6405,3.6405,3.6405,3.6405,3.6405,3.6405,3.6405,3.6405,3.6405,3.6405,3.6405,3.6769,3.7717,3.7717,3.7704,3.7756,3.7652,3.7224,3.6326,3.797,3.809,3.6184,3.7037,3.7644,3.7686,3.8339,3.8764,3.8982,3.9653,4.001,4.0104,4.0104,4.0104,4.0104,4.0104,4.0104,4.0104,4.0104,4.0104,4.0104,4.0104,4.0104,4.0104,4.0046,4.0031,4.0031,3.9973,3.9596,3.9131,3.9131,3.871,3.8202,3.8202,3.8202,3.8202,3.8202,3.8173,3.7999,3.7404,3.723,3.7085,3.646,3.6272,3.6228,3.6228,3.5749,3.5334,3.5334,3.482,3.4414,3.4414,3.4414,3.4414,3.4414,3.4414,3.4414,3.4414,3.4414,3.4414,3.4414,3.4414,3.4414,3.4414,3.4414,3.4414,3.4414,3.4414,3.4414,3.4414,3.4414,3.4414,3.4414,3.4414,3.4414,3.4414,3.5029,3.5334,3.5334,3.5938,3.6228,3.6257,3.6925,3.723,3.7259,3.7883,3.813,3.8144,3.8188,3.8202,3.8202,3.8202,3.8202,3.8202,3.8202,3.8202,3.8202,3.6405,3.6405,3.6405,3.6405,3.6405,3.6405,3.6405,3.6405,3.6405,3.6405,3.6405,3.6989,3.8496,3.816,3.8283,3.9417,3.8988,3.8496,3.8134,3.8796,3.9401,3.9788,3.9577,3.9746,4.039,3.9548,3.969,4.0888,4.0569,4.0734,4.1337,4.1337,4.1337,4.1337,4.1337,4.1337,4.1337,4.1337,4.1337,4.1337,4.1337,4.1337,4.1294,4.0873,4.0713,4.067,4.0249,3.9944,3.9755,3.9755,3.9334,3.8826,3.8826,3.8536,3.8202,3.8202,3.8202,3.8159,3.7926,3.7868,3.7796,3.7549,3.7201,3.6925,3.6925,3.6417,3.5952,3.5952,3.5764,3.5459,3.5082,3.5009,3.4878,3.4472,3.4414,3.4414,3.4414,3.4414,3.4414,3.4414,3.4414,3.4414,3.4414,3.4414,3.4414,3.4414,3.4414,3.4414,3.4414,3.4791,3.5009,3.5009,3.5386,3.5401,3.5009,3.5633,3.5952,3.5967,3.662,3.6925,3.6954,3.7578,3.7868,3.7883,3.8101,3.8202,3.8202,3.8202,3.8202,3.8202,3.8202,3.8202,3.8202,3.8202,3.8202,3.8202,3.6405,3.6405,3.6405,3.6405,3.6405,3.6499,3.6815,3.6581,3.6499,3.6815,3.6593,3.7116,3.8988,3.8644,3.8899,4.0461,4.0029,3.9505,3.9197,3.9461,4.023,4.1577,4.1254,4.1395,4.2092,4.0788,4.0774,4.2092,4.1395,4.1437,4.2092,4.2092,4.2092,4.2092,4.2092,4.2092,4.2092,4.2092,4.2092,4.2092,4.2092,4.2092,4.2049,4.1584,4.141,4.1352,4.0887,4.0583,4.0408,4.0408,4.0002,3.9479,3.9479,3.9044,3.8478,3.826,3.8202,3.8202,3.8202,3.8202,3.8202,3.8202,3.7897,3.7593,3.7593,3.7085,3.662,3.662,3.646,3.617,3.577,3.5697,3.5517,3.5082,3.4835,3.4704,3.4704,3.4545,3.4414,3.4414,3.4414,3.4414,3.4414,3.4414,3.4414,3.4414,3.4414,3.4501,3.4704,3.5314,3.5697,3.5697,3.6286,3.6417,3.6017,3.6402,3.662,3.6635,3.7273,3.7593,3.7607,3.8014,3.8202,3.8202,3.8202,3.8202,3.8202,3.8202,3.8202,3.8202,3.8202,3.8202,3.8202,3.8202,3.8202,3.8202,3.6405,3.6405,3.6405,3.6405,3.6405,3.6734,3.7671,3.6989,3.6769,3.7671,3.6989,3.7116,3.9033,3.921,3.9593,4.0504,4.0603,4.0202,3.9285,4.0073,4.0603,4.0603,4.1577,4.2092,4.2092,4.2092,4.2092,4.2092,4.2092,4.2092,4.2092,4.2092,4.2092,4.2092,4.2092,4.2092,4.2092,4.2092,4.2092,4.2092,4.2092,4.2092,4.2092,4.2092,4.2092,4.2092,4.2092,4.1671,4.1105,4.1105,4.0655,4.0104,4.0104,3.9683,3.9088,3.8405,3.8217,3.8217,3.8217,3.8202,3.8202,3.8202,3.8202,3.8202,3.8202,3.7738,3.7317,3.7317,3.678,3.6315,3.6315,3.6315,3.6315,3.6301,3.5778,3.5407,3.5407,3.482,3.4428,3.4428,3.4428,3.4428,3.4428,3.4428,3.4428,3.4428,3.4428,3.4704,3.5378,3.5967,3.6315,3.6315,3.6968,3.7317,3.7317,3.7317,3.7317,3.7317,3.7912,3.8202,3.8202,3.8202,3.8202,3.8202,3.8202,3.8202,3.8202,3.8202,3.8202,3.8202,3.8202,3.8202,3.8202,3.8202,3.8202,3.8202,3.6405,3.6405,3.6405,3.6405,3.6405,3.6734,3.7671,3.7579,3.7717,3.8675,3.7978,3.8102,3.9986,3.9593,3.9883,4.1493,4.1675,4.1212,4.026,4.1128,4.1339,4.0646,4.1577,4.2092,4.2092,4.2092,4.2092,4.2092,4.2092,4.2092,4.2092,4.2092,4.2092,4.2092,4.2092,4.2092,4.2092,4.2092,4.2092,4.2092,4.2092,4.2092,4.2092,4.2092,4.2092,4.2092,4.2092,4.1961,4.1802,4.1802,4.1352,4.0713,4.0249,3.9973,3.9784,3.9596,3.9233,3.8899,3.8899,3.8565,3.8202,3.8202,3.8202,3.8202,3.8202,3.8072,3.7941,3.7941,3.7781,3.7506,3.7085,3.7012,3.6852,3.6388,3.6156,3.6025,3.6025,3.5865,3.5735,3.5735,3.5735,3.5735,3.5735,3.5735,3.5735,3.5735,3.5735,3.5822,3.6011,3.6649,3.7012,3.7012,3.7607,3.7941,3.7941,3.7941,3.7941,3.7941,3.8115,3.8202,3.8202,3.8202,3.8202,3.8202,3.8202,3.8202,3.8202,3.8202,3.8202,3.8202,3.8202,3.8202,3.8202,3.8202,3.8202,3.8202,3.6405,3.6405,3.6405,3.6405,3.6722,3.7256,3.8192,3.8328,3.8675,3.9637,3.8944,3.8944,4.0418,4.0073,4.0403,4.1953,4.2092,4.1856,4.124,4.1758,4.1814,4.1198,4.1773,4.2092,4.2092,4.2092,4.2092,4.2092,4.2092,4.2092,4.2092,4.2092,4.2092,4.2092,4.2092,4.2092,4.2092,4.2092,4.2092,4.2092,4.2092,4.2092,4.2092,4.2092,4.2092,4.2092,4.2092,4.2092,4.2092,4.2092,4.1831,4.1381,4.0713,4.0495,4.0437,4.0176,3.9842,3.9567,3.9567,3.9088,3.8609,3.8609,3.8405,3.8202,3.8202,3.8202,3.8202,3.8202,3.8202,3.8086,3.7723,3.7665,3.7535,3.7128,3.6852,3.6707,3.6707,3.6475,3.6301,3.6301,3.6301,3.6301,3.6301,3.6301,3.6301,3.6301,3.6562,3.6707,3.6707,3.7317,3.7665,3.7665,3.8014,3.8202,3.8202,3.8202,3.8202,3.8202,3.8202,3.8202,3.8202,3.8202,3.8202,3.8202,3.8202,3.8202,3.8202,3.8202,3.8202,3.8202,3.8202,3.8202,3.8202,3.8202,3.8202,3.8202,3.6405,3.6405,3.6405,3.6405,3.7176,3.8115,3.9077,3.9285,3.9637,4.0603,3.9899,3.9681,4.0646,4.0646,4.1015,4.2009,4.2092,4.2092,4.2092,4.2092,4.2092,4.2092,4.2092,4.2092,4.2092,4.2092,4.2092,4.2092,4.2092,4.2092,4.2092,4.2092,4.2092,4.2092,4.2092,4.2092,4.2092,4.2092,4.2092,4.2092,4.2092,4.2092,4.2092,4.2092,4.2092,4.2092,4.2092,4.2092,4.2092,4.2092,4.2092,4.199,4.1381,4.1192,4.1062,4.0452,4.0234,4.0191,4.0191,3.9741,3.9276,3.9276,3.8826,3.8347,3.8231,3.8202,3.8202,3.8202,3.8202,3.8202,3.8202,3.8202,3.8202,3.8202,3.7738,3.7389,3.7389,3.6867,3.6475,3.6475,3.6475,3.6475,3.6475,3.6475,3.6475,3.6475,3.7041,3.7389,3.7389,3.7897,3.8202,3.8202,3.8202,3.8202,3.8202,3.8202,3.8202,3.8202,3.8202,3.8202,3.8202,3.8202,3.8202,3.8202,3.8202,3.8202,3.8202,3.8202,3.8202,3.8202,3.8202,3.8202,3.8202,3.8202,3.8202,3.8202,3.6405,3.6405,3.6405,3.6405,3.7176,3.8115,3.9077,3.9812,4.066,4.1633,4.0887,4.066,4.1675,4.1057,4.1015,4.2009,4.2092,4.2092,4.2092,4.2092,4.2092,4.2092,4.2092,4.2092,4.2092,4.2092,4.2092,4.2092,4.2092,4.2092,4.2092,4.2092,4.2092,4.2092,4.2092,4.2092,4.2092,4.2092,4.2092,4.2092,4.2092,4.2092,4.2092,4.2092,4.2092,4.2092,4.2092,4.2092,4.2092,4.2092,4.2092,4.2063,4.1932,4.1874,4.1845,4.17,4.1294,4.0873,4.0873,4.0408,3.99,3.99,3.9799,3.9421,3.8434,3.8202,3.8202,3.8202,3.8202,3.8202,3.8202,3.8202,3.8202,3.8202,3.8086,3.8014,3.8014,3.7883,3.7796,3.7796,3.7796,3.7796,3.7796,3.7796,3.7796,3.7796,3.7926,3.8014,3.8014,3.813,3.8202,3.8202,3.8202,3.8202,3.8202,3.8202,3.8202,3.8202,3.8202,3.8202,3.8202,3.8202,3.8202,3.8202,3.8202,3.8202,3.8202,3.8202,3.8202,3.8202,3.8202,3.8202,3.8202,3.8202,3.8202,3.8202,3.6405,3.6405,3.6546,3.6989,3.7841,3.8765,3.9724,4.0703,4.1493,4.2051,4.1633,4.1535,4.2051,4.1633,4.1535,4.2051,4.2092,4.2092,4.2092,4.2092,4.2092,4.2092,4.2092,4.2092,4.2092,4.2092,4.2092,4.2092,4.2092,4.2092,4.2092,4.2092,4.2092,4.2092,4.2092,4.2092,4.2092,4.2092,4.2092,4.2092,4.2092,4.2092,4.2092,4.2092,4.2092,4.2092,4.2092,4.2092,4.2092,4.2092,4.2092,4.2092,4.2092,4.2092,4.2092,4.2092,4.1845,4.157,4.157,4.1091,4.0583,4.0583,4.0336,3.9842,3.8884,3.8681,3.8594,3.8275,3.8202,3.8202,3.8202,3.8202,3.8202,3.8202,3.8202,3.8202,3.8202,3.8202,3.8202,3.8202,3.8202,3.8202,3.8202,3.8202,3.8202,3.8202,3.8202,3.8202,3.8202,3.8202,3.8202,3.8202,3.8202,3.8202,3.8202,3.8202,3.8202,3.8202,3.8202,3.8202,3.8202,3.8202,3.8202,3.8202,3.8202,3.8202,3.8202,3.8202,3.8202,3.8202,3.8202,3.8202,3.8202,3.8202,3.8202,3.8202,3.664,3.664,3.6956,3.7887,3.881,3.9681,4.0461,4.1437,4.2092,4.2092,4.2092,4.2092,4.2092,4.2092,4.2092,4.2092,4.2092,4.2092,4.2092,4.2092,4.2092,4.2092,4.2092,4.2092,4.2092,4.2092,4.2092,4.2092,4.2092,4.2092,4.2092,4.2092,4.2092,4.2092,4.2092,4.215,4.2252,4.2252,4.2324,4.2411,4.2411,4.2353,4.2252,4.2252,4.2179,4.2092,4.2092,4.2092,4.2092,4.2092,4.2092,4.2092,4.2092,4.2092,4.2092,4.2092,4.2092,4.2092,4.2092,4.1686,4.1265,4.1265,4.0844,4.0278,3.9668,3.9436,3.9204,3.8638,3.8522,3.8492,3.8391,3.8376,3.8333,3.8217,3.8202,3.8202,3.8202,3.8202,3.8202,3.8202,3.8202,3.8202,3.8202,3.8202,3.8202,3.8202,3.8202,3.8202,3.8202,3.8202,3.8202,3.8202,3.8202,3.8202,3.8202,3.8202,3.8202,3.8202,3.8202,3.8202,3.8202,3.8202,3.8202,3.8202,3.8202,3.8202,3.8202,3.8202,3.8202,3.8202,3.8202,3.8277,3.8352,3.8449,3.8412,3.8352,3.7625,3.7625,3.7887,3.8854,3.9768,4.0461,4.0589,4.1437,4.2092,4.2092,4.2092,4.2092,4.2092,4.2092,4.2092,4.2092,4.2092,4.2092,4.2092,4.2092,4.2092,4.2092,4.2092,4.2092,4.2092,4.2092,4.2092,4.2092,4.2092,4.2092,4.2092,4.2092,4.2092,4.2092,4.2092,4.2382,4.2876,4.2876,4.3195,4.3732,4.3732,4.3398,4.2876,4.2876,4.2542,4.2092,4.2092,4.2092,4.2092,4.2092,4.2092,4.2092,4.2092,4.2092,4.2092,4.2092,4.2092,4.2092,4.2092,4.2034,4.1961,4.1961,4.1903,4.1657,4.0989,4.0394,3.9944,3.9857,3.9842,3.9683,3.916,3.9059,3.887,3.8289,3.8202,3.8202,3.8202,3.8202,3.8202,3.8202,3.8202,3.8202,3.8202,3.8202,3.8202,3.8202,3.8202,3.8202,3.8202,3.8202,3.8202,3.8202,3.8202,3.8202,3.8202,3.8202,3.8202,3.8202,3.8202,3.8202,3.8202,3.8202,3.8202,3.8202,3.8202,3.8202,3.8202,3.8202,3.8202,3.8202,3.8202,3.8501,3.9017,3.9478,3.9385,3.8995,3.8599,3.8599,3.8899,3.9812,4.0332,4.0788,4.1339,4.1814,4.2092,4.2092,4.2092,4.2092,4.2092,4.2092,4.2092,4.2092,4.2092,4.2092,4.2092,4.2092,4.2092,4.2092,4.2092,4.2092,4.2092,4.2092,4.2092,4.2092,4.2092,4.2092,4.2092,4.2092,4.2281,4.26,4.26,4.2948,4.3544,4.3544,4.3718,4.3993,4.3993,4.3819,4.3544,4.3544,4.3384,4.3108,4.2731,4.2382,4.2092,4.2092,4.2092,4.2092,4.2092,4.2092,4.2092,4.2092,4.2092,4.2092,4.2092,4.2092,4.2092,4.2092,4.2092,4.2061,4.1864,4.1613,4.115,4.0288,4.0104,4.0017,3.9755,3.9697,3.961,3.9305,3.9086,3.8906,3.8754,3.8623,3.8486,3.8389,3.8366,3.8315,3.8202,3.8202,3.8202,3.8202,3.8202,3.8202,3.8202,3.8202,3.8202,3.8202,3.8538,3.8686,3.8686,3.8686,3.8686,3.8686,3.8352,3.8202,3.8202,3.8202,3.8202,3.8202,3.8202,3.8202,3.8202,3.8202,3.8202,3.8202,3.8202,3.8575,3.9141,3.9364,3.9493,3.9529]}]]